[[{"header":{"parameterUnit":"m.s-1","parameterCategory":1,"la1":30.6,"la2":29.2853,"lo1":-89.7004,"lo2":-87.6739,"dy":0.0162,"dx":0.0183,"nx":112,"ny":82,"refTime":"2026-04-18T00:00:00:Z","depth":0,"parameterNumber":2,"parameterNumberName":"U-component_of_WINDS"},"data":[0.0,0.0,0.0,0.0,0.0,0.0,0.0,0.0,0.0,0.0,0.0,0.0,0.0,0.0,0.0,0.0,0.0,0.0,0.0,0.0,0.0,0.0,0.0,0.0,0.0,0.0,0.0,0.0,0.0,0.0,0.0,0.0,0.0,0.0,0.0,0.0,0.0,0.0,0.0,0.0,0.0,0.0,0.0,0.0,0.0,0.0,0.0,0.0,0.0,0.0,0.0,0.0,0.0,0.0,0.0,0.0,0.0,0.0,0.0,0.0,0.0,0.0,0.0,0.0,0.0,0.0,0.0,0.0,0.0,0.0,0.0,0.0,0.0,0.0,0.0,0.0,0.0,0.0,0.0,0.0,0.0,0.0,0.0,0.0,0.0,0.0,0.0,0.0,0.0,0.0,0.0,1.6138,1.839,1.9635,1.9158,1.8983,1.8005,1.5944,0.0,0.0,0.0,0.0,0.0,0.0,0.0,0.0,0.0,0.0,0.0,0.0,0.0,0.0,0.0,0.0,0.0,0.0,0.0,0.0,0.0,0.0,0.0,0.0,0.0,0.0,0.0,0.0,0.0,0.0,0.0,0.0,0.0,0.0,0.0,0.0,0.0,0.0,0.0,0.0,0.0,0.0,0.0,0.0,0.0,0.0,0.0,0.0,0.0,0.0,0.0,0.0,0.0,0.0,0.0,0.0,0.0,0.0,0.0,0.0,0.0,0.0,0.0,0.0,0.0,0.0,0.0,0.0,0.0,0.0,0.0,0.0,0.0,0.0,0.0,0.0,0.0,0.0,0.0,0.0,0.0,0.0,0.0,0.0,0.0,0.0,0.0,0.0,0.0,0.0,0.0,0.0,0.0,0.0,0.0,0.0,0.0,0.0,0.0,0.0,0.0,0.0,0.0,0.0,1.5295,1.8204,1.9284,1.9761,1.9685,1.8844,1.7765,1.645,0.0,0.0,0.0,0.0,0.0,0.0,0.0,0.0,0.0,0.0,0.0,0.0,0.0,0.0,0.0,0.0,0.0,0.0,0.0,0.0,0.0,0.0,0.0,0.0,0.0,0.0,0.0,0.0,0.0,0.0,0.0,0.0,0.0,0.0,0.0,0.0,0.0,0.0,0.0,0.0,0.0,0.0,0.0,0.0,0.0,0.0,0.0,0.0,0.0,0.0,0.0,0.0,0.0,0.0,0.0,0.0,0.0,0.0,0.0,0.0,0.0,0.0,0.0,0.0,0.0,0.0,0.0,0.0,0.0,0.0,0.0,0.0,0.0,0.0,0.0,0.0,0.0,0.0,0.0,0.0,0.0,0.0,0.0,0.0,0.0,0.0,0.0,0.0,0.0,0.0,0.0,0.0,0.0,0.0,0.0,0.0,0.0,0.0,0.0,0.0,0.0,0.0,0.0,1.4959,1.6367,1.8757,1.9472,1.9811,1.9811,1.8832,1.7715,1.6586,1.4679,0.0,0.0,0.0,0.0,0.0,0.0,0.0,0.0,0.0,0.0,0.0,0.0,0.0,0.0,0.0,0.0,0.0,0.0,0.0,0.0,0.0,0.0,0.0,0.0,0.0,0.0,0.0,0.0,0.0,0.0,0.0,0.0,0.0,0.0,0.0,0.0,0.0,0.0,0.0,0.0,0.0,0.0,0.0,0.0,0.0,0.0,0.0,0.0,0.0,0.0,0.0,0.0,0.0,0.0,0.0,0.0,0.0,0.0,0.0,0.0,0.0,0.0,0.0,0.0,0.0,0.0,0.0,0.0,0.0,0.0,0.0,0.0,0.0,0.0,0.0,0.0,0.0,0.0,0.0,0.0,0.0,0.0,0.0,0.0,0.0,0.0,0.0,0.0,0.0,0.0,0.0,0.0,0.0,0.0,0.0,0.0,0.0,0.0,0.0,0.0,0.0,0.0,1.6661,1.7478,1.9033,1.956,1.9811,1.9811,1.8706,1.7576,1.655,1.4309,0.0,0.0,0.0,0.0,0.0,0.0,0.0,0.0,0.0,0.0,0.0,0.0,0.0,0.0,0.0,0.0,0.0,0.0,0.0,0.0,0.0,0.0,0.0,0.0,0.0,0.0,0.0,0.0,0.0,0.0,0.0,0.0,0.0,0.0,0.0,0.0,0.0,0.0,0.0,0.0,0.0,0.0,0.0,0.0,0.0,0.0,0.0,0.0,0.0,0.0,0.0,0.0,0.0,0.0,0.0,0.0,0.0,0.0,0.0,0.0,0.0,0.0,0.0,0.0,0.0,0.0,0.0,0.0,0.0,0.0,0.0,0.0,0.0,0.0,0.0,0.0,0.0,0.0,0.0,0.0,0.0,0.0,0.0,0.0,0.0,0.0,0.0,0.0,0.0,0.0,0.0,0.0,0.0,0.0,0.0,0.0,0.0,0.0,0.0,0.0,0.0,0.0,1.7124,1.8505,1.9622,1.9786,1.9811,1.9811,1.8366,1.7186,1.6525,1.3951,0.0,0.0,0.0,0.0,0.0,0.0,0.0,0.0,0.0,0.0,0.0,0.0,0.0,0.0,0.0,0.0,0.0,0.0,0.0,0.0,0.0,0.0,0.0,0.0,0.0,0.0,0.0,0.0,0.0,0.0,0.0,0.0,0.0,0.0,0.0,0.0,0.0,0.0,0.0,0.0,0.0,0.0,0.0,0.0,0.0,0.0,0.0,0.0,0.0,0.0,0.0,0.0,0.0,0.0,0.0,0.0,0.0,0.0,0.0,0.0,0.0,0.0,0.0,0.0,0.0,0.0,0.0,0.0,0.0,0.0,0.0,0.0,0.0,0.0,0.0,0.0,0.0,0.0,0.0,0.0,0.0,0.0,0.0,0.0,0.0,0.0,0.0,0.0,0.0,0.0,0.0,0.0,0.0,0.0,0.0,0.0,0.0,0.0,0.0,0.0,0.0,0.0,1.7074,1.8098,0.0,1.9291,1.9291,1.9291,1.8093,1.7098,1.6539,0.0,0.0,0.0,0.0,0.0,0.0,0.0,0.0,0.0,0.0,0.0,0.0,0.0,0.0,0.0,0.0,0.0,0.0,0.0,0.0,0.0,0.0,0.0,0.0,0.0,0.0,0.0,0.0,0.0,0.0,0.0,0.0,0.0,0.0,0.0,0.0,0.0,0.0,0.0,0.0,0.0,0.0,0.0,0.0,0.0,0.0,0.0,0.0,0.0,0.0,0.0,0.0,0.0,0.0,0.0,0.0,0.0,0.0,0.0,0.0,0.0,0.0,0.0,0.0,0.0,0.0,0.0,0.0,0.0,0.0,0.0,0.0,0.0,0.0,0.0,0.0,0.0,0.0,0.0,0.0,0.0,0.0,0.0,0.0,0.0,0.0,0.0,0.0,0.0,0.0,0.0,0.0,0.0,0.0,0.0,0.0,0.0,0.0,0.0,0.0,0.0,0.0,1.6185,1.7174,1.8062,0.0,1.9092,1.8995,1.8995,1.78,1.6807,1.6289,0.0,0.0,0.0,0.0,0.0,0.0,0.0,0.0,0.0,0.0,0.0,0.0,0.0,0.0,0.0,0.0,0.0,0.0,0.0,0.0,0.0,0.0,0.0,0.0,0.0,0.0,0.0,0.0,0.0,0.0,0.0,0.0,0.0,0.0,0.0,0.0,0.0,0.0,0.0,0.0,0.0,0.0,0.0,0.0,0.0,0.0,0.0,0.0,0.0,0.0,0.0,0.0,0.0,0.0,0.0,0.0,0.0,0.0,0.0,0.0,0.0,0.0,0.0,0.0,0.0,0.0,0.0,0.0,0.0,0.0,0.0,0.0,0.0,0.0,0.0,0.0,0.0,0.0,0.0,0.0,0.0,0.0,0.0,0.0,0.0,0.0,0.0,0.0,0.0,0.0,0.0,0.0,0.0,0.0,0.0,0.0,0.0,0.0,0.0,0.0,0.0,0.0,1.6235,1.7489,1.8594,1.9673,1.9296,1.8983,1.8983,1.7467,1.6274,0.0,0.0,0.0,0.0,0.0,0.0,0.0,0.0,0.0,0.0,0.0,0.0,0.0,0.0,0.0,0.0,0.0,0.0,0.0,0.0,0.0,0.0,0.0,0.0,0.0,0.0,0.0,0.0,0.0,0.0,0.0,0.0,0.0,0.0,0.0,0.0,0.0,0.0,0.0,0.0,0.0,0.0,0.0,0.0,0.0,0.0,0.0,0.0,0.0,0.0,0.0,0.0,0.0,0.0,0.0,0.0,0.0,0.0,0.0,0.0,0.0,0.0,0.0,0.0,0.0,0.0,0.0,0.0,0.0,0.0,0.0,0.0,0.0,0.0,0.0,0.0,0.0,0.0,0.0,0.0,0.0,0.0,0.0,0.0,0.0,0.0,0.0,0.0,0.0,0.0,0.0,0.0,0.0,0.0,0.0,0.0,0.0,0.0,0.0,0.0,0.0,0.0,0.0,0.0,1.7121,1.7834,1.8527,1.8089,1.7752,1.7796,1.6972,1.6228,1.5717,0.0,0.0,0.0,0.0,0.0,0.0,0.0,0.0,0.0,0.0,0.0,0.0,0.0,0.0,0.0,0.0,0.0,0.0,0.0,0.0,0.0,0.0,0.0,0.0,0.0,0.0,0.0,0.0,0.0,0.0,0.0,0.0,0.0,0.0,0.0,0.0,0.0,0.0,0.0,0.0,0.0,0.0,0.0,0.0,0.0,0.0,0.0,0.0,0.0,0.0,0.0,0.0,0.0,0.0,0.0,0.0,0.0,0.0,0.0,0.0,0.0,0.0,0.0,0.0,0.0,0.0,0.0,0.0,0.0,0.0,0.0,0.0,0.0,0.0,0.0,0.0,0.0,0.0,0.0,0.0,0.0,0.0,0.0,0.0,0.0,0.0,0.0,0.0,0.0,0.0,0.0,0.0,0.0,0.0,0.0,0.0,0.0,0.0,0.0,0.0,0.0,0.0,1.5934,1.7055,1.7945,1.8686,1.827,1.7851,1.7678,1.7132,1.632,1.5204,0.0,0.0,0.0,0.0,0.0,0.0,0.0,0.0,0.0,0.0,0.0,0.0,0.0,0.0,0.0,0.0,0.0,0.0,0.0,0.0,0.0,0.0,0.0,0.0,0.0,0.0,0.0,0.0,0.0,0.0,0.0,0.0,0.0,0.0,0.0,0.0,0.0,0.0,0.0,0.0,0.0,0.0,0.0,0.0,0.0,0.0,0.0,0.0,0.0,0.0,0.0,0.0,0.0,0.0,0.0,0.0,0.0,0.0,0.0,0.0,0.0,0.0,0.0,0.0,0.0,0.0,0.0,0.0,0.0,0.0,0.0,0.0,0.0,0.0,0.0,0.0,0.0,0.0,0.0,0.0,0.0,0.0,0.0,0.0,0.0,0.0,0.0,0.0,0.0,0.0,0.0,0.0,0.0,0.0,0.0,0.0,0.0,0.0,0.0,0.0,0.0,0.0,1.5472,1.7043,1.8375,1.9454,1.9093,1.8549,1.8065,1.7578,1.6474,1.4562,0.0,0.0,0.0,0.0,0.0,0.0,0.0,0.0,0.0,0.0,0.0,0.0,0.0,0.0,0.0,0.0,0.0,0.0,0.0,0.0,0.0,0.0,0.0,0.0,0.0,0.0,0.0,0.0,0.0,0.0,0.0,0.0,0.0,0.0,0.0,0.0,0.0,0.0,0.0,0.0,0.0,0.0,0.0,0.0,0.0,0.0,0.0,0.0,0.0,0.0,0.0,0.0,0.0,0.0,0.0,0.0,0.0,0.0,0.0,0.0,1.3238,0.0,0.0,0.0,0.0,0.0,0.0,0.0,0.0,0.0,0.0,0.0,0.0,0.0,0.0,0.0,0.0,0.0,0.0,0.0,0.0,0.0,0.0,0.0,0.0,0.0,0.0,0.0,0.0,0.0,0.0,0.0,0.0,0.0,0.0,0.0,0.0,0.0,0.0,0.0,0.0,0.0,1.5432,1.6019,1.6609,1.7644,1.7263,1.692,1.6787,1.6677,1.6268,1.5449,0.0,0.0,0.0,0.0,0.0,0.0,0.0,0.0,0.0,0.0,0.0,0.0,0.0,0.0,0.0,0.0,0.0,0.0,0.0,0.0,0.0,0.0,0.0,0.0,0.0,0.0,0.0,0.0,0.0,0.0,0.0,0.0,0.0,0.0,0.0,0.0,0.0,0.0,0.0,0.0,0.0,0.0,0.0,0.0,0.0,0.0,0.0,0.0,0.0,0.0,0.0,0.0,0.0,0.0,0.0,0.0,0.0,0.0,0.0,0.0,0.0,1.4288,0.0,0.0,0.0,0.0,0.0,0.0,0.0,0.0,0.0,0.0,0.0,0.0,0.0,0.0,0.0,0.0,0.0,0.0,0.0,0.0,0.0,0.0,0.0,0.0,0.0,0.0,0.0,0.0,0.0,0.0,0.0,0.0,0.0,0.0,0.0,0.0,0.0,0.0,0.0,0.0,1.4838,1.5677,1.6506,1.753,1.7387,1.7107,1.6851,1.6835,1.6441,1.5471,1.479,0.0,0.0,0.0,0.0,0.0,0.0,0.0,0.0,0.0,0.0,0.0,0.0,0.0,0.0,0.0,0.0,0.0,0.0,0.0,0.0,0.0,0.0,0.0,0.0,0.0,0.0,0.0,0.0,0.0,0.0,0.0,0.0,0.0,0.0,0.0,0.0,0.0,0.0,0.0,0.0,0.0,0.0,0.0,0.0,0.0,0.0,0.0,0.0,0.0,0.0,0.0,0.0,0.0,0.0,0.0,1.6932,1.7071,1.7311,1.7562,1.6519,1.5928,1.5649,0.0,0.0,0.0,0.0,0.0,0.0,0.0,0.0,0.0,0.0,0.0,0.0,0.0,0.0,0.0,0.0,0.0,0.0,0.0,0.0,0.0,0.0,0.0,0.0,0.0,1.6807,1.6535,0.0,0.0,0.0,0.0,0.0,0.0,0.0,0.0,0.0,0.0,0.0,0.0,1.4291,1.5592,1.6799,1.7702,1.7793,1.7621,1.7188,1.7142,1.6604,1.5391,1.51,1.4196,0.0,0.0,0.0,0.0,0.0,0.0,0.0,0.0,0.0,0.0,0.0,0.0,0.0,0.0,0.0,0.0,0.0,0.0,0.0,0.0,0.0,0.0,0.0,0.0,0.0,0.0,0.0,0.0,0.0,0.0,0.0,0.0,0.9618,0.9801,0.0,0.0,0.0,0.0,0.0,0.0,0.0,0.0,0.0,0.0,0.0,0.0,0.0,0.0,1.5221,1.6371,1.7006,1.712,1.8117,1.8751,1.9011,1.8849,1.9254,2.0066,1.9037,0.0,1.6975,1.5956,0.0,0.0,0.0,0.0,0.0,0.0,0.0,0.0,0.0,0.0,0.0,0.0,0.0,0.0,0.0,0.0,0.0,0.0,0.0,0.0,0.0,0.0,1.8616,1.8605,1.8222,1.7775,0.0,1.5887,1.4323,1.3714,0.0,0.0,0.0,0.0,0.0,0.0,0.0,0.0,1.4639,1.5403,1.6041,1.6567,1.663,1.6588,1.6511,1.6517,1.6435,1.6225,1.5822,1.5451,1.521,1.3849,0.0,0.0,0.0,0.0,0.0,0.0,0.0,0.0,0.0,0.0,0.0,0.0,0.0,0.0,0.0,0.0,0.0,0.0,0.0,0.0,0.0,0.0,0.0,0.0,0.0,0.0,0.0,0.0,0.0,0.9218,0.9872,1.0084,0.9936,0.9729,0.0,0.0,0.0,0.0,0.0,0.0,0.0,0.0,0.0,1.4796,1.5188,1.5925,1.7082,1.7708,1.8385,1.9105,1.9704,2.0101,2.0282,2.0014,1.9922,1.9951,1.9448,1.885,1.8212,1.7614,1.6996,1.6343,0.0,0.0,0.0,0.0,0.0,0.0,1.6665,0.0,0.0,0.0,0.0,0.0,0.0,0.0,0.0,0.0,0.0,0.0,0.0,0.0,0.0,1.9221,1.878,1.829,1.829,1.7252,1.5986,0.0,1.4473,1.3649,1.196,0.0,0.0,0.0,0.0,0.0,1.5026,1.5622,1.6129,1.669,1.6732,1.6643,1.6409,1.6399,1.6533,1.6895,1.6703,1.6362,1.5769,1.5293,1.4371,0.0,0.0,0.0,0.0,0.0,0.0,0.0,0.0,0.0,0.0,0.0,0.0,0.0,0.0,0.0,0.0,0.0,0.0,0.0,0.0,0.0,0.0,0.0,0.0,0.0,0.0,0.0,0.0,0.9759,1.0241,1.0518,1.067,1.0552,0.0,0.0,0.0,0.0,0.0,0.0,1.3418,1.4269,1.522,1.6232,1.6635,1.7403,1.8638,1.8929,1.944,2.0191,2.0542,2.0744,2.0758,2.0505,2.0132,1.9619,1.9237,1.9086,1.9019,1.881,1.8526,1.8201,1.7824,1.7445,0.0,1.8114,1.8218,1.8046,1.9283,1.9426,1.8978,1.8278,0.0,1.7982,1.7069,0.0,0.0,0.0,0.0,1.8577,1.9039,0.0,1.9057,1.9539,1.9118,1.8666,1.8779,1.8193,1.7299,0.0,1.5927,1.5257,1.3193,0.0,0.0,0.0,0.0,1.4522,1.5544,1.6099,1.6564,1.7076,1.7132,1.6977,1.6581,1.6539,1.6701,1.7055,1.7072,1.6792,1.6219,1.6262,1.5606,0.0,0.0,0.0,0.0,0.0,0.0,0.0,0.0,0.0,0.0,0.0,0.0,0.0,0.0,0.0,0.0,0.0,0.0,0.0,0.0,0.0,0.0,0.0,0.0,0.0,0.0,0.0,0.0,0.0,0.0,1.1519,1.1809,0.0,0.0,0.0,0.0,1.2245,1.3864,1.494,1.5057,1.5862,1.6744,1.7762,1.8119,1.8545,1.9055,2.0076,2.018,1.9379,2.0349,2.0572,2.0123,2.0127,2.0075,1.9915,1.8971,1.8785,1.9172,1.9107,1.9206,1.9384,1.9103,1.8978,1.9022,1.9528,1.9691,1.9751,2.0357,2.0223,1.9903,2.0306,2.0183,1.996,2.0405,2.0264,0.0,0.0,1.9402,1.9703,1.9587,1.943,1.9409,1.9953,1.9525,1.9106,1.9541,1.8479,1.7304,0.0,1.651,1.5716,1.4254,0.0,0.0,1.4182,1.472,1.5457,1.6332,1.6849,1.7223,1.7446,1.7461,1.7344,1.7012,1.6986,1.6808,1.6474,1.6456,1.6691,1.7194,1.6268,1.5941,1.6332,1.425,0.0,0.0,0.0,0.0,0.0,0.0,0.0,0.0,0.0,0.0,0.0,0.0,0.0,0.0,0.0,0.0,0.0,0.0,0.0,0.0,0.0,0.0,0.0,0.0,0.0,0.0,0.0,0.0,1.2943,1.3496,0.0,0.0,1.4167,1.4635,1.4515,1.5608,1.6436,1.679,1.7646,1.843,1.9102,1.9117,1.9326,1.9801,1.9776,1.9847,2.008,2.0043,2.0195,2.0473,1.9946,1.9637,1.9441,1.8781,1.8634,1.8873,1.8806,1.8962,1.9248,1.9278,1.9288,1.9342,1.9624,1.9737,1.9827,2.0441,2.0552,2.0419,2.0353,2.0047,1.9644,1.95,1.9597,1.9715,1.9577,1.9977,2.0407,2.0317,1.9919,1.9578,1.9644,1.8985,1.8401,1.856,1.8158,1.7841,1.7999,1.7201,1.6202,1.5231,1.5281,1.5394,1.517,1.5505,1.6128,1.7078,1.7352,1.758,1.7868,1.79,1.7763,1.7487,1.7157,1.7086,1.7355,1.6786,1.6436,1.64,1.6326,1.6058,1.5614,1.4735,1.3963,0.0,0.0,0.0,0.0,0.0,0.0,0.0,0.0,0.0,0.0,0.0,0.0,0.0,0.0,0.0,0.0,0.0,0.0,0.0,0.0,0.0,0.0,0.0,0.0,0.0,0.0,1.3197,1.3953,1.4787,1.5184,1.4868,1.5541,1.6058,1.6173,1.6906,1.7581,1.814,1.8771,1.9347,1.9831,1.9555,1.9541,1.9869,1.9617,1.9598,1.9792,1.962,1.9683,1.99,1.9315,1.8878,1.8538,1.8221,1.8154,1.8233,1.8253,1.8503,1.8929,1.9523,1.978,1.9818,2.0095,2.0206,2.0241,2.0519,2.0584,2.056,2.0339,2.0062,1.9773,1.9596,1.9793,2.0035,1.9907,2.0172,2.0439,2.0183,1.9808,1.9432,1.9291,1.8826,1.8437,1.8437,1.8303,1.8283,1.8559,1.7915,1.7148,1.6534,1.6586,1.6629,1.6259,1.6405,1.6821,1.7629,1.7774,1.7939,1.8222,1.8304,1.8234,1.7957,1.7502,1.7352,1.7576,1.6741,1.6183,1.6116,1.6235,1.6068,1.5624,1.5312,1.4928,1.4421,0.0,0.0,0.0,0.0,0.0,0.0,0.0,0.0,0.0,0.0,0.0,0.0,0.0,0.0,0.0,0.0,0.0,0.0,0.0,0.0,0.0,0.0,0.0,1.2528,1.3236,1.3957,1.4493,1.5597,1.5989,1.5234,1.6065,1.6758,1.7078,1.7658,1.8306,1.9019,1.9115,1.9381,1.9865,1.9412,1.9187,1.9218,1.9773,1.9499,1.8413,1.9042,1.902,1.8397,1.8247,1.7867,1.7322,1.7301,1.7312,1.7331,1.7509,1.7909,1.8524,1.9888,2.043,2.0508,2.0953,2.1146,2.1085,2.0569,2.039,2.039,2.039,2.0392,2.0452,2.0987,2.1146,2.1011,2.0352,2.0043,1.9753,1.9145,1.9014,1.9005,1.9005,1.9151,1.9297,1.9315,1.8947,1.8617,1.8617,1.8617,1.8481,1.8088,1.8027,1.7891,1.7497,1.7438,0.0,1.7932,1.8178,1.8364,1.8482,1.8684,1.8701,1.8444,1.7973,1.7502,1.7033,1.6167,1.5908,1.6425,1.5942,1.5977,1.6594,1.6015,1.5442,1.4944,0.0,0.0,0.0,0.0,0.0,0.0,0.0,0.0,0.0,0.0,0.0,0.0,0.0,0.0,0.0,0.0,0.0,0.0,0.0,0.0,0.0,0.0,1.2211,1.3478,1.4377,1.5129,1.5657,1.6153,1.6363,1.6144,1.7053,1.7563,1.7278,1.7755,1.803,1.7953,1.7898,1.8301,1.9228,1.8903,1.8906,1.9333,1.9016,1.8743,1.8456,1.8214,1.8145,1.8235,1.791,1.7823,1.7925,1.7634,1.7683,1.792,1.7546,1.7611,1.804,1.8821,1.912,1.9146,1.9321,1.9766,2.0255,2.0256,2.0255,2.0255,2.0255,1.9966,1.9615,1.9767,1.9825,1.9785,1.9588,1.9612,1.9596,1.9303,1.9219,1.9222,1.9222,1.9161,1.9114,1.9279,1.9199,1.9102,1.9102,1.9102,1.8965,1.8518,1.8422,1.8401,1.8303,0.0,0.0,1.801,1.8178,1.8364,1.8482,1.8684,1.8824,1.8899,1.8175,1.7502,0.0,1.5863,1.5252,1.5411,1.5266,1.5618,1.6513,1.5976,1.588,0.0,0.0,0.0,0.0,0.0,0.0,0.0,0.0,0.0,0.0,0.0,0.0,0.0,0.0,0.0,0.0,0.0,0.0,0.0,0.0,0.0,0.0,1.1482,1.2777,1.4092,1.4701,1.5239,1.5871,1.6206,1.6422,1.6582,1.7021,1.7309,1.7339,1.7466,1.7595,1.77,1.772,1.8032,1.8664,1.853,1.865,1.9058,1.8539,1.8322,1.8403,1.7916,1.7825,1.8018,1.7643,1.7594,0.0,1.7578,1.7696,1.8018,1.7818,1.7928,0.0,0.0,0.0,0.0,0.0,1.9207,1.9632,1.9763,1.9825,1.9825,1.9825,1.9588,1.9292,1.9292,1.9292,1.9292,1.9292,1.939,1.9449,1.933,1.9421,1.9543,1.9543,1.9621,1.9654,1.9571,1.9551,1.9492,1.9316,0.0,0.0,1.9162,1.9005,1.8771,1.8401,1.8481,1.8442,0.0,1.8335,1.8606,1.878,1.913,1.9356,1.9392,1.8713,0.0,0.0,0.0,1.5497,1.5311,0.0,0.0,0.0,0.0,0.0,0.0,0.0,0.0,0.0,1.6109,1.6556,0.0,0.0,0.0,0.0,0.0,0.0,0.0,0.0,0.0,0.0,0.0,0.0,0.0,0.0,0.0,0.0,1.2216,1.3467,1.423,1.4397,1.4731,1.5455,1.5827,1.6163,1.6465,1.6272,1.642,1.7111,1.6928,1.706,1.7658,0.0,0.0,0.0,0.0,1.8289,1.8523,1.8201,1.8119,1.8176,1.7896,1.7721,1.7673,1.7371,1.7244,1.7244,1.7244,1.7451,1.7816,1.8112,1.8478,1.8764,1.8523,1.8403,1.845,1.8998,1.9188,0.0,0.0,0.0,0.0,1.9439,1.9402,1.9366,1.9366,1.9347,1.9292,1.9292,1.9292,1.9292,1.9292,1.9587,1.9863,1.9883,2.0235,2.0469,2.0059,1.998,1.9863,1.9434,1.9374,1.9473,1.9785,1.957,1.9102,1.8322,1.8479,0.0,1.8127,1.8572,1.9001,1.9178,0.0,0.0,1.9889,1.9409,1.8729,1.7833,1.6953,1.6284,1.5856,1.59,1.6345,1.7242,1.8389,1.9004,1.9095,1.9556,1.9792,1.978,1.8385,1.8565,0.0,0.0,0.0,0.0,0.0,0.0,0.0,0.0,0.0,0.0,0.0,0.0,0.0,0.0,0.0,1.0968,1.1946,1.2803,1.3228,1.3756,1.4372,1.5106,1.5039,1.5004,1.5227,1.5572,1.5783,1.5791,1.6374,1.6472,1.5927,1.594,0.0,1.6894,1.693,1.7267,1.7962,1.7898,1.7732,1.7498,0.0,0.0,1.6916,1.6853,1.6821,1.6821,1.6821,1.7191,1.7822,1.7864,1.8255,1.878,1.8614,1.8501,1.8462,1.8948,1.9127,1.9212,1.9817,2.003,2.0051,2.022,2.0042,1.9785,1.9785,1.9567,0.0,1.9292,1.9292,1.9292,1.9292,1.9489,1.9686,1.9863,2.0118,2.0372,2.0449,2.0449,2.0332,1.9883,1.9766,1.9707,1.9453,1.9629,1.9746,1.957,1.9336,1.9004,1.8539,1.8874,1.9161,1.9196,1.9879,2.0336,2.0289,1.9558,1.8853,1.8294,1.7393,1.6841,1.6758,1.7116,1.744,1.7673,1.8445,1.9085,1.958,1.9984,2.0691,2.1631,2.0038,1.999,0.0,0.0,0.0,0.0,0.0,0.0,0.0,0.0,0.0,0.0,0.0,0.9445,0.9618,0.0,1.1212,1.1723,1.2319,1.2936,1.3433,1.3788,1.4144,1.4505,1.4676,1.4791,1.4896,1.5288,1.5503,1.5409,1.5968,1.6046,1.5438,1.5837,1.6249,1.6591,1.6888,1.7296,1.7785,1.7626,1.7467,1.7307,1.7096,1.6884,1.6689,1.6689,1.6689,1.6705,1.69,1.7302,1.7816,1.816,1.851,1.8788,1.8728,1.8665,1.8629,1.8935,1.9043,1.9136,1.9766,2.0011,2.0074,2.0395,2.0372,2.0207,2.0207,2.006,1.9861,1.9657,1.9602,1.9547,1.9347,1.9449,1.9645,1.9843,2.0098,2.0352,2.0566,2.0605,2.0546,2.0293,2.0253,2.0195,1.998,2.0117,2.0098,1.9668,1.9609,1.9453,1.9005,1.9285,1.9606,1.9677,2.0351,2.0755,2.0622,1.9882,1.9347,1.9119,1.8439,1.805,1.805,1.8278,1.8405,1.8458,1.9344,1.9935,2.0251,2.0689,2.1312,2.208,2.1337,2.1565,0.0,0.0,0.0,0.0,0.0,0.0,0.0,0.0,0.8657,0.8971,0.971,1.0404,1.0799,1.1544,1.22,1.2538,1.2918,1.3375,1.392,1.4052,1.4067,1.4008,1.4501,1.4876,1.4988,1.5177,1.5344,1.5402,1.5709,1.5782,1.5519,1.6203,1.6598,1.6521,1.6983,1.7329,1.7529,1.7302,1.7175,1.7175,1.6853,1.6689,1.6689,1.6789,1.6821,1.6837,1.7286,1.7641,1.7944,1.8535,1.8804,1.8804,1.8804,1.8804,1.8819,1.8985,1.9027,1.9128,1.9748,1.9967,2.0053,2.0567,2.0683,2.061,2.061,2.0555,2.0427,2.0115,1.9969,1.984,1.9492,1.9523,1.9645,1.9804,2.0079,2.0333,2.0508,2.0566,2.0605,2.0605,2.0605,2.0605,2.0605,2.0605,2.0351,1.9667,1.9746,1.9766,1.9453,1.9726,2.0015,2.0184,2.0828,2.1157,2.0878,2.0362,2.0014,1.9927,1.9558,1.9351,1.9351,1.9351,1.9351,1.9351,2.0402,2.0936,2.0936,2.1381,2.1804,2.2156,2.2288,2.2778,0.765,0.7283,0.7118,0.7428,0.7839,0.8421,0.0,0.0,1.01,1.0839,1.0987,1.1165,1.1749,1.2171,1.2553,1.2889,1.3477,1.392,1.3993,1.4257,1.433,1.4037,1.4316,1.477,1.53,1.5104,1.5075,1.5388,1.5709,1.5885,1.5841,1.5957,1.6079,1.6234,1.6247,1.636,1.6552,1.6707,1.6773,1.6773,1.6705,1.6689,1.6705,1.7064,1.7244,1.7276,1.7906,1.8208,1.8271,1.8646,1.8804,1.8804,1.8804,1.8804,1.8827,1.9078,1.9177,1.9314,2.0262,2.0599,2.0712,2.1359,2.1324,2.1013,2.1013,2.0775,2.0482,2.0445,2.0189,1.9895,1.9838,1.9725,1.9606,1.9626,1.9961,2.0313,2.0333,2.0469,2.0605,2.0605,2.0605,2.0605,2.0605,2.0605,2.0566,2.0468,2.0137,1.9883,1.9825,2.0033,2.0184,2.0202,2.0961,2.1366,2.1081,2.1013,2.0783,2.0351,2.0289,2.0248,2.0248,2.0248,2.0248,2.0248,2.1032,2.142,2.142,2.1828,2.2284,2.2697,2.255,2.2945,0.8305,0.8178,0.8092,0.8251,0.8816,0.9361,0.9618,1.0336,1.1048,1.1302,1.18,1.2277,1.2538,1.2862,1.314,0.0,1.3682,1.4067,1.4257,1.4404,1.4506,1.4511,1.4521,1.4594,1.4838,1.5066,1.5344,1.5665,1.5812,1.5899,1.5899,1.5899,1.5904,1.5908,1.5878,1.6122,1.6698,1.6578,1.6697,1.7048,1.7048,1.7048,1.7064,1.7435,1.7705,1.7912,1.8176,1.8414,1.8598,1.8741,1.8804,1.8804,1.8804,1.8804,1.8804,1.892,1.8966,1.9104,2.0133,2.0473,2.0609,2.1419,2.1599,2.1453,2.1453,2.1343,2.1159,2.0924,2.072,2.0537,2.0317,2.0012,1.9798,1.9919,2.0012,2.0098,2.0274,2.045,2.0605,2.0605,2.0605,2.0605,2.0605,2.0605,2.0605,2.0605,2.0429,2.0312,2.0312,2.0389,2.0523,2.0751,2.1103,2.1272,2.1118,2.1095,2.0909,2.0434,2.0413,2.0516,2.0806,2.0806,2.093,2.1199,2.1786,2.2083,2.2083,2.2528,2.2847,2.3037,2.2951,2.3255,0.8712,0.8831,0.8857,0.8911,0.9576,1.0146,0.9906,1.0846,1.1744,1.1632,1.2279,1.286,1.286,1.314,1.336,1.336,1.3635,1.3959,1.4311,1.4263,1.432,1.4623,1.4472,1.4389,1.4477,1.497,1.5446,1.5855,1.5899,1.5899,1.5899,1.5899,1.5802,1.5631,1.5831,1.6226,1.6809,1.6718,1.6891,1.7328,1.7328,1.7328,1.7344,1.7836,1.8208,1.8446,1.8557,1.8684,1.8804,1.8804,1.8804,1.8804,1.8804,1.8804,1.8804,1.8804,1.8804,1.8943,1.9951,2.0292,2.045,2.1396,2.1687,2.1687,2.1687,2.1687,2.1632,2.1343,2.12,2.1013,2.0738,2.0372,2.0099,2.0245,2.0206,2.0185,2.0348,2.0546,2.0683,2.0605,2.0605,2.0605,2.0605,2.0605,2.0605,2.0605,2.0605,2.0605,2.0605,2.0605,2.0741,2.1167,2.1205,2.1237,2.1304,2.1282,2.1137,2.0806,2.0785,2.0992,2.1487,2.1507,2.1714,2.217,2.2522,2.2687,2.2687,2.3018,2.3266,2.3391,2.3266,2.3515,0.8646,0.8897,0.903,0.9152,0.9847,1.0547,1.0729,1.1493,1.2178,1.2178,1.2359,1.2524,1.2524,1.2787,1.3023,1.3023,1.3238,1.3554,1.3957,1.3679,1.3588,1.3991,1.4023,1.414,0.0,1.4745,1.5177,1.5841,1.5899,1.5899,1.5899,1.5899,1.5739,1.5417,1.6175,1.6591,1.6612,1.7113,1.7377,1.7392,1.7392,1.7392,1.7445,1.8342,1.8773,1.8804,1.9216,1.9145,1.8804,1.8804,1.8804,1.8804,1.8804,1.8804,1.8804,1.8804,1.8804,1.8943,1.9951,2.0292,2.045,2.1396,2.1687,2.1687,2.1687,2.1687,2.1709,2.1691,2.1398,2.1108,2.1089,2.0775,2.0482,2.0503,2.0631,2.0731,2.0622,2.0748,2.0834,2.0625,2.0605,2.0605,2.0605,2.0605,2.0605,2.0605,2.0605,2.0605,2.0605,2.0605,2.0741,2.1167,2.1205,2.1359,2.1759,2.1776,2.1776,2.1756,2.1756,2.1963,2.2439,2.2459,2.2666,2.3163,2.3163,2.3183,2.3183,2.3184,2.3432,2.3867,2.3411,2.366,0.7743,0.7925,0.8155,0.852,0.892,0.934,0.9717,1.0398,1.0947,1.0947,1.1238,1.1562,1.1743,1.1724,1.176,1.2091,1.2389,1.2706,1.2974,1.3041,1.3059,1.3007,1.2852,0.0,0.0,0.0,0.0,1.5841,1.5899,1.6009,1.6221,1.6235,1.6191,1.6074,1.6329,1.6646,1.6981,1.6964,1.7186,1.7728,1.7906,1.8105,1.8358,1.8924,1.9193,1.9209,1.9582,1.9535,1.9193,1.9193,1.905,1.8804,1.8804,1.8804,1.8804,1.8804,1.8804,1.892,1.9745,2.0019,2.0201,2.119,2.1504,2.1526,2.1642,2.1687,2.1687,2.1687,2.1595,2.1508,2.1508,2.1196,2.0906,2.0906,2.0853,2.0843,2.0961,2.1167,2.1257,2.1034,2.0996,2.0918,2.0664,2.0605,2.0605,2.0605,2.0605,2.0605,2.0605,2.0605,2.0741,2.1167,2.1205,2.1237,2.1325,2.1342,2.1199,2.0889,2.1158,2.1424,2.155,2.217,2.2563,2.2729,2.3349,2.3515,2.3204,2.3515,2.3743,2.3888,2.3743,2.4136,0.7539,0.7763,0.7954,0.8433,0.873,0.8977,0.9211,0.9734,1.0108,0.991,1.017,1.0476,1.0598,1.0569,1.0678,1.1127,1.144,1.1739,1.2055,1.2213,1.2265,1.2226,1.206,1.2308,0.0,0.0,0.0,1.5476,1.5879,1.6068,1.605,1.6388,1.6514,1.6396,1.6603,1.6855,1.7198,1.7108,1.7372,1.7971,1.8153,1.8485,1.9034,1.9407,1.9566,1.9598,1.9932,1.9884,1.9566,1.9566,1.9439,1.9193,1.9193,1.9193,1.9177,1.9066,1.8995,1.9095,1.9612,1.9791,1.9951,2.0947,2.128,2.1307,2.1597,2.1687,2.1687,2.1687,2.1687,2.1687,2.1687,2.1508,2.1306,2.1306,2.1213,2.1184,2.1353,2.1524,2.1577,2.1461,2.1445,2.1387,2.1114,2.0918,2.0762,2.0625,2.0605,2.0605,2.0605,2.0605,2.0722,2.1051,2.1147,2.1199,2.1234,2.1306,2.122,2.093,2.1178,2.1445,2.1592,2.219,2.2563,2.2749,2.3349,2.3577,2.3453,2.3764,2.3971,2.4115,2.3971,2.4364,0.7896,0.822,0.8345,0.8793,0.9135,0.9331,0.9147,0.9439,0.9603,0.9099,0.9137,0.9233,0.9122,0.0,0.9734,1.0137,1.0389,1.0717,1.1264,1.1228,1.1301,0.0,0.0,0.0,0.0,0.0,0.0,1.4656,0.0,1.6087,1.5433,1.6358,1.6763,1.6455,1.6951,1.7205,1.7205,1.7541,1.7854,1.8133,1.8133,1.8574,1.9407,1.9765,1.9925,1.9932,2.0282,2.025,1.9941,1.9941,1.9925,1.9884,1.9884,1.9884,1.9853,1.9535,1.9423,1.9447,1.9566,1.9602,1.9729,2.0682,2.0975,2.1064,2.1553,2.1687,2.1687,2.1687,2.1687,2.1687,2.1687,2.1687,2.1687,2.1687,2.1687,2.1728,2.1798,2.1811,2.1848,2.1888,2.1894,2.1915,2.1915,2.1523,2.1113,2.0723,2.0664,2.0664,2.0605,2.0605,2.0683,2.0897,2.107,2.1263,2.1493,2.1664,2.1778,2.1797,2.1838,2.2045,2.248,2.2542,2.277,2.3225,2.3266,2.3494,2.3909,2.3909,2.4095,2.4466,2.4074,2.4364,0.68,0.7093,0.739,0.7599,0.7644,0.7646,0.7697,0.768,0.7621,0.7494,0.751,0.7568,0.7682,0.7906,0.0,0.8794,0.9303,0.0,1.0298,1.0637,0.0,1.0668,0.0,1.1134,1.1784,1.1987,0.0,0.0,1.4615,1.5651,1.5609,1.6604,1.7165,1.7054,1.7211,1.7278,1.7278,1.7762,1.8133,1.8404,1.855,1.8902,1.9407,1.9765,2.0028,2.0273,2.0639,2.0591,2.0282,2.0282,2.0123,1.9884,1.9884,1.9884,1.9884,1.9789,1.9757,1.9781,1.9806,1.9586,1.9455,2.0456,2.0789,2.0902,2.1508,2.1687,2.1687,2.1687,2.1687,2.1687,2.1687,2.1687,2.1687,2.1687,2.1687,2.1758,2.1997,2.2136,2.2223,2.2144,2.2005,2.1915,2.1915,2.1797,2.168,2.1583,2.1563,2.1329,2.0683,2.0605,2.0683,2.0897,2.0955,2.1109,2.1474,2.155,2.1646,2.1778,2.2128,2.2377,2.2501,2.3163,2.3598,2.3722,2.4033,2.4074,2.3909,2.3909,2.395,2.4053,2.395,2.4364,0.6611,0.6872,0.7098,0.7185,0.7147,0.7041,0.6886,0.6754,0.6602,0.6388,0.6372,0.6434,0.6487,0.6831,0.7279,0.0,0.0,0.0,0.9635,1.0088,1.0376,0.0,1.0399,0.0,1.123,1.1377,1.16,0.0,1.3779,1.494,1.5088,1.5879,1.6645,1.7279,1.6998,1.7021,1.7481,1.7761,1.8125,1.8512,1.8612,1.9004,1.9614,1.9805,2.0171,2.0639,0.0,2.0788,2.0623,2.0623,2.0512,2.0346,2.0346,2.0346,2.0305,2.0187,2.0123,2.0107,1.9948,1.987,1.9961,2.0554,2.0634,2.0677,2.1463,2.1687,2.1687,2.1687,2.1687,2.1687,2.1687,2.1687,2.1687,2.1687,2.1687,2.1776,2.2039,2.2176,2.2318,2.244,2.2427,2.2383,2.2187,2.2168,2.209,2.1935,2.1915,2.172,2.1231,2.0996,2.0899,2.1017,2.1115,2.1371,2.1907,2.2025,2.2183,2.2398,2.2646,2.2811,2.2811,2.3328,2.3598,2.3598,2.3826,2.3929,2.3909,2.3909,2.3971,2.4157,2.4157,2.4654,0.6906,0.7116,0.7234,0.721,0.7169,0.7007,0.6513,0.6327,0.6115,0.5656,0.5628,0.5667,0.5566,0.6081,0.6696,0.7207,0.0,0.8779,0.9231,0.9679,1.002,1.0266,1.0323,1.0486,1.0871,1.091,1.1101,1.1511,1.2979,1.3953,1.4176,1.4728,1.5687,1.7115,1.6645,1.681,1.7752,1.7737,1.8032,1.8543,1.8543,1.8989,1.9845,1.9869,2.025,2.0836,0.0,0.0,2.0899,2.0899,2.0899,2.0899,2.0899,2.0899,2.0867,2.0575,2.0432,2.0353,2.0123,2.0297,2.0651,2.0833,2.0726,2.072,2.1581,2.1815,2.1778,2.1778,2.1742,2.1687,2.1687,2.1687,2.1687,2.1687,2.1687,2.1754,2.2017,2.2106,2.2264,2.2706,2.2969,2.2984,2.2635,2.2576,2.2459,2.2109,2.2051,2.2031,2.1993,2.1582,2.1288,2.1288,2.1449,2.1809,2.2452,2.2656,2.2879,2.3184,2.3204,2.3225,2.3287,2.3287,2.3328,2.337,2.337,2.3557,2.3991,2.3991,2.4198,2.459,2.459,2.5066,0.6989,0.7224,0.7407,0.7242,0.6991,0.6725,0.6456,0.5931,0.0,0.5376,0.5233,0.5166,0.5247,0.5725,0.6349,0.71,0.7775,0.8448,0.9194,0.9524,0.9825,0.0,1.0446,1.0626,1.0891,0.0,0.0,0.0,0.0,0.0,1.3586,1.4351,1.5283,1.6362,1.6857,1.7396,1.8017,1.804,1.8272,1.8758,1.8758,1.9003,1.9487,1.9757,2.0123,2.0496,0.0,0.0,2.0899,2.0899,2.0899,2.0899,2.0899,2.0899,2.0883,2.082,2.0639,2.0432,2.0655,2.0568,2.0459,2.1097,2.1553,2.1972,2.253,2.2455,2.2204,2.2204,2.1966,2.1687,2.1687,2.1687,2.1687,2.1687,2.1687,2.1709,2.1754,2.2065,2.2441,2.2728,2.2969,2.3081,2.3003,2.3006,2.2964,2.2886,2.2908,2.2771,2.2441,2.2031,2.1777,2.1777,2.1818,2.2002,2.2451,2.2513,2.2737,2.3164,2.3204,2.337,2.3764,2.3784,2.3929,2.428,2.4259,2.4301,2.4405,2.4405,2.4611,2.5065,2.5065,2.5356,0.7006,0.7249,0.7453,0.7257,0.7002,0.673,0.6469,0.0,0.0,0.5287,0.5166,0.5099,0.5055,0.5573,0.6206,0.6832,0.7411,0.8099,0.9014,0.9221,0.958,1.0361,1.0541,1.0721,0.0,0.0,0.0,0.0,0.0,0.0,1.3028,1.4219,1.4886,1.4959,1.6344,1.7037,1.6889,1.7854,1.8272,1.8234,1.862,1.9018,1.9407,1.9765,2.0075,2.0416,0.0,0.0,2.0899,2.0899,2.0899,2.0883,2.0718,2.0655,2.0655,2.0655,2.0543,2.0448,2.0772,2.0956,2.1089,2.1436,2.1657,2.1882,2.2493,2.2556,2.2439,2.2579,2.2474,2.2327,2.2327,2.2327,2.2327,2.2327,2.2163,2.202,2.202,2.2214,2.2441,2.2574,2.2882,2.3101,2.3101,2.3101,2.3101,2.3101,2.3101,2.3023,2.2849,2.2635,2.244,2.2227,2.2207,2.2473,2.3134,2.3196,2.3385,2.3846,2.3867,2.397,2.4198,2.4198,2.4301,2.4487,2.4735,2.4859,2.4859,2.5108,2.5357,2.5564,2.5564,2.5813,0.7006,0.7267,0.7513,0.7268,0.7042,0.6814,0.6478,0.5982,0.5514,0.5256,0.5149,0.5076,0.4962,0.5476,0.6073,0.6568,0.7126,0.7823,0.8741,0.8986,0.942,0.0,1.0569,0.0,0.0,0.0,0.0,0.0,0.0,0.0,0.0,1.3929,1.4417,1.3725,1.5587,1.6292,1.5721,1.7396,1.8063,1.7707,1.8442,1.8986,1.9296,1.9709,2.0044,2.033,0.0,0.0,0.0,2.082,2.0788,2.0766,2.0416,2.0346,2.04,2.04,2.04,2.0448,2.0772,2.1167,2.1525,2.1607,2.1702,2.191,2.2505,2.2691,2.2762,2.297,2.2968,2.2913,2.2913,2.2913,2.2913,2.2913,2.2657,2.2442,2.2442,2.2526,2.2595,2.2595,2.2974,2.3288,2.3288,2.3274,2.3259,2.3259,2.3159,2.3101,2.3101,2.3101,2.2964,2.2654,2.2635,2.2924,2.3671,2.3732,2.3927,2.4421,2.4443,2.4464,2.4507,2.459,2.4652,2.4652,2.5108,2.5356,2.5356,2.5709,2.596,2.6043,2.6043,2.6291,0.7006,0.7387,0.7673,0.7286,0.7052,0.6823,0.6483,0.0,0.5239,0.5207,0.4999,0.4893,0.5045,0.5392,0.5821,0.6421,0.7069,0.7726,0.8363,0.892,0.9524,1.0247,0.0,0.0,0.0,0.0,0.0,0.0,0.0,0.0,0.0,1.3135,1.3698,1.3427,1.4814,1.5507,1.5436,1.6749,1.7512,1.7707,1.8442,1.882,1.8884,1.9582,1.9925,1.998,0.0,0.0,0.0,2.0575,2.0448,2.04,2.0075,2.0139,2.04,2.04,2.04,2.0448,2.0772,2.088,2.093,2.1246,2.2156,2.3157,2.3207,2.3302,2.342,2.3444,2.3187,2.2913,2.2913,2.2913,2.2913,2.2913,2.2876,2.284,2.284,2.3032,2.3224,2.3224,2.3582,2.3929,2.3929,2.3826,2.373,2.373,2.3376,2.3101,2.3101,2.3101,2.3081,2.3042,2.3042,2.3193,2.3493,2.3515,2.3731,2.4206,2.4228,2.4314,2.4507,2.49,2.5149,2.5149,2.5606,2.5835,2.5835,2.5877,2.6125,2.654,2.654,2.6791,0.6626,0.6879,0.7025,0.653,0.6413,0.6379,0.6241,0.5814,0.5441,0.5441,0.5158,0.498,0.5185,0.5426,0.5761,0.6238,0.6544,0.6984,0.7757,0.8069,0.8618,0.9741,1.0096,0.0,0.0,0.0,0.0,0.0,0.0,0.0,0.0,0.0,1.2802,1.2684,1.4142,1.4631,1.4016,1.5923,1.6927,1.7044,1.7792,1.8497,1.9177,1.9678,1.9996,0.0,0.0,0.0,0.0,2.0543,2.04,2.0353,2.0028,1.998,2.0123,2.0346,2.04,2.0448,2.0772,2.088,2.0937,2.1396,2.2131,2.2862,2.2995,2.3356,2.3717,2.3889,2.3828,2.3675,2.3675,2.3675,2.3675,2.3675,2.3468,2.3261,2.3261,2.3291,2.3289,2.3289,2.3691,2.4002,2.4002,2.4094,2.416,2.416,2.4001,2.3884,2.3884,2.3884,2.3884,2.3884,2.3393,2.321,2.3472,2.3883,2.4243,2.4593,2.5014,2.5269,2.5357,2.5523,2.5627,2.5627,2.6084,2.6312,2.6312,2.6602,2.683,2.704,2.704,2.7123,0.6067,0.63,0.6384,0.5943,0.6015,0.6161,0.6057,0.586,0.5686,0.5686,0.5415,0.5228,0.537,0.5557,0.578,0.6059,0.6266,0.6633,0.7397,0.766,0.8211,0.0,0.0,0.0,0.0,0.0,0.0,0.0,0.0,0.0,0.0,0.0,1.2364,1.2313,1.3523,1.3847,1.3219,1.5224,1.6244,1.6244,1.7021,1.7831,1.8701,1.9266,1.9706,0.0,0.0,0.0,0.0,2.0384,2.0178,2.0091,1.9837,1.9805,1.9932,2.0282,2.0464,2.0591,2.0804,2.0899,2.1002,2.1522,2.2055,2.256,2.2895,2.3438,2.3954,2.4152,2.4202,2.4202,2.4202,2.4202,2.4202,2.4202,2.3957,2.3706,2.3706,2.3631,2.3571,2.3571,2.3933,2.4268,2.4268,2.4454,2.4609,2.4609,2.4492,2.4391,2.4391,2.4391,2.4391,2.4391,2.3845,2.356,2.3757,2.4212,2.4571,2.484,2.5372,2.5737,2.5762,2.5997,2.6105,2.6105,2.656,2.6809,2.6809,2.7143,2.7309,2.7286,2.741,2.7555,0.5366,0.5711,0.596,0.5743,0.6052,0.6307,0.5985,0.59,0.5893,0.5893,0.5733,0.5592,0.5592,0.5752,0.5893,0.5893,0.6407,0.6962,0.7435,0.8004,0.8628,0.0,0.0,0.0,0.0,0.0,0.0,0.0,0.0,0.0,0.0,0.0,1.2596,1.2596,1.293,1.3243,1.3497,1.4771,1.5415,1.5415,1.6221,1.6766,1.705,1.8194,0.0,0.0,0.0,0.0,0.0,2.0044,1.9694,1.9407,1.9407,1.9598,1.9932,2.0282,2.0607,2.0899,2.0899,2.0899,2.1002,2.1522,2.2055,2.2593,2.312,2.3712,2.4202,2.4202,2.4202,2.4202,2.4202,2.4202,2.4202,2.4202,2.4202,2.4202,2.4202,2.4183,2.4183,2.4183,2.4578,2.4898,2.4898,2.5015,2.5082,2.5082,2.4687,2.4391,2.4391,2.4391,2.4391,2.4391,2.4391,2.4391,2.4391,2.4414,2.4529,2.4782,2.5054,2.5303,2.5488,2.6192,2.6581,2.6581,2.7061,2.7309,2.7309,2.7309,2.7309,2.7309,2.7717,2.8127,0.4807,0.5082,0.5259,0.4463,0.4824,0.5349,0.524,0.5561,0.5893,0.5893,0.5733,0.5601,0.5601,0.5761,0.5988,0.6257,0.6581,0.6972,0.7435,0.7899,0.0,0.9213,0.0,0.0,0.0,0.0,0.0,0.0,0.0,0.0,0.0,0.0,0.0,1.2596,1.3107,1.3419,1.3497,1.4256,1.489,1.5415,1.5652,1.6326,1.7358,0.0,0.0,0.0,0.0,0.0,0.0,2.0028,1.9845,1.9725,1.9725,1.9948,2.0273,2.0623,2.0804,2.0899,2.0899,2.0899,2.1027,2.1751,2.2106,2.2409,2.3338,2.3904,2.4202,2.4202,2.4202,2.4202,2.4202,2.4202,2.4202,2.4202,2.4202,2.4202,2.4202,2.4202,2.4202,2.4202,2.4597,2.4917,2.4917,2.5242,2.5503,2.5503,2.5386,2.5289,2.5289,2.5289,2.5289,2.5289,2.5289,2.5054,2.4449,2.4851,2.5188,2.5281,2.596,2.6378,2.6448,2.6854,2.7081,2.7081,2.7226,2.7309,2.7309,2.7309,2.7431,2.7717,2.8148,2.8624,0.4334,0.4457,0.4525,0.3726,0.4165,0.4794,0.4821,0.5373,0.5883,0.58,0.5808,0.5776,0.5623,0.5827,0.6101,0.6351,0.6553,0.6878,0.7416,0.7842,0.0,0.0,0.0,0.0,0.0,0.0,0.0,0.0,0.0,0.0,0.0,0.0,0.0,1.305,1.3333,1.3606,1.3799,1.4136,1.4532,1.4986,1.4986,1.5493,1.649,0.0,0.0,0.0,0.0,0.0,0.0,1.9789,1.9694,1.9709,1.9837,2.0107,2.0432,2.0798,2.0899,2.0899,2.0899,2.0899,2.1027,2.1725,2.2232,2.2686,2.3388,2.3904,2.4202,2.4202,2.4202,2.4202,2.4202,2.4202,2.4202,2.4202,2.4202,2.4202,2.4202,2.4202,2.4202,2.4202,2.4498,2.4775,2.4892,2.526,2.5596,2.5693,2.5693,2.5693,2.5693,2.5693,2.5693,2.5693,2.5693,2.5484,2.4937,2.5318,2.5571,2.5571,2.6308,2.6757,2.6757,2.7095,2.7309,2.7309,2.7451,2.7534,2.7534,2.77,2.8007,2.8442,2.8731,2.9125,0.0,0.3913,0.3828,0.3468,0.3984,0.4604,0.4683,0.5319,0.0,0.5679,0.5914,0.606,0.5726,0.5964,0.6219,0.6257,0.6436,0.6789,0.7451,0.7944,0.0,0.0,0.0,0.0,0.0,0.0,0.0,0.0,0.0,0.0,0.0,0.0,0.0,0.0,1.3635,1.3799,1.4292,1.4292,1.4292,1.4292,1.4292,1.4449,1.4739,0.0,0.0,0.0,0.0,0.0,0.0,1.932,1.936,1.9471,1.9773,2.0123,2.0464,2.0798,2.0899,2.0899,2.0899,2.0899,2.1002,2.1547,2.2434,2.327,2.332,2.3737,2.4202,2.4202,2.4202,2.4202,2.4202,2.4202,2.4202,2.4202,2.4202,2.4202,2.4202,2.4202,2.4202,2.4202,2.4356,2.4578,2.4849,2.5113,2.5382,2.5669,2.5693,2.5693,2.5693,2.5693,2.5693,2.5693,2.5693,2.5693,2.5693,2.5693,2.5693,2.5693,2.6183,2.6496,2.6496,2.702,2.7327,2.7327,2.7738,2.7941,2.7941,2.8417,2.8851,2.9311,2.9332,2.958,0.3855,0.0,0.3966,0.3265,0.3816,0.4552,0.0,0.52,0.5743,0.6,0.5886,0.5862,0.6215,0.6235,0.6374,0.6876,0.7131,0.7435,0.7889,0.0,0.0,0.0,0.0,0.0,0.0,0.0,0.0,0.0,0.0,0.0,0.0,0.0,0.0,0.0,1.4027,1.4184,1.4292,1.4292,1.4292,1.4292,1.4292,1.4449,0.0,0.0,0.0,0.0,0.0,0.0,0.0,1.8479,1.8992,1.9773,1.9877,2.0266,2.0788,2.0867,2.0899,2.0899,2.0899,2.0899,2.1027,2.1751,2.2442,2.307,2.3538,2.3929,2.4202,2.4202,2.4202,2.4202,2.4202,2.4202,2.4202,2.4202,2.4202,2.4202,2.4202,2.4202,2.4202,2.4202,2.4356,2.4578,2.4849,2.5113,2.5382,2.5669,2.5693,2.5693,2.5693,2.5693,2.5693,2.5693,2.5693,2.5693,2.5693,2.5693,2.5693,2.5693,2.6183,2.6496,2.6496,2.7328,2.7759,2.7759,2.8189,2.8442,2.8442,2.8918,2.9187,2.9311,2.9663,2.9891,0.3431,0.3676,0.378,0.3151,0.3726,0.4445,0.4419,0.4964,0.5489,0.5587,0.5523,0.5528,0.5729,0.6013,0.6323,0.6684,0.7165,0.7775,0.0,0.0,0.0,0.0,0.0,0.0,0.0,0.0,0.0,0.0,0.0,0.0,0.0,0.0,0.0,0.0,0.0,1.4292,1.4292,1.4292,1.4292,1.4292,1.4292,1.4377,0.0,0.0,0.0,0.0,0.0,0.0,1.8377,1.8377,1.9076,2.0139,2.0139,2.0448,2.0899,2.0899,2.0899,2.0899,2.0899,2.1078,2.1343,2.1776,2.2459,2.312,2.3463,2.3879,2.4202,2.4202,2.4202,2.4202,2.4202,2.4202,2.4202,2.4202,2.4349,2.4471,2.4471,2.4617,2.4746,2.4746,2.4829,2.5031,2.5434,2.5635,2.586,2.6253,2.6303,2.6303,2.6303,2.6303,2.6303,2.6303,2.6303,2.6303,2.6303,2.6303,2.6225,2.603,2.6581,2.6977,2.71,2.7692,2.821,2.8545,2.8794,2.9042,2.9249,2.9497,2.9622,2.9622,2.987,2.9994,0.3089,0.3298,0.3477,0.3091,0.3665,0.4275,0.4101,0.4595,0.5063,0.4992,0.5054,0.5128,0.5183,0.5662,0.6101,0.6222,0.6955,0.0,0.0,0.0,0.0,0.0,0.0,0.0,0.0,0.0,0.0,0.0,0.0,0.0,0.0,0.0,0.0,0.0,0.0,0.0,1.4425,1.434,1.4292,1.4292,1.4292,1.4316,1.4389,0.0,0.0,0.0,0.0,0.0,1.8449,1.8572,1.9327,2.04,2.04,2.0607,2.0899,2.0899,2.0899,2.0899,2.0899,2.1216,2.1649,2.1725,2.2417,2.3245,2.3363,2.3762,2.4202,2.4202,2.4202,2.4202,2.4202,2.4202,2.4202,2.4202,2.4452,2.4709,2.4709,2.5021,2.5315,2.5315,2.5352,2.557,2.6095,2.6198,2.6378,2.691,2.6986,2.6986,2.6986,2.6986,2.6986,2.6986,2.6986,2.6986,2.6986,2.707,2.6953,2.6602,2.7089,2.7546,2.7879,2.8152,2.863,2.9317,2.9389,2.9601,2.9994,2.9994,2.9994,2.9994,3.0077,3.0098,0.3531,0.3553,0.3358,0.3075,0.3489,0.3973,0.3937,0.4024,0.4343,0.5154,0.4765,0.4746,0.6236,0.5918,0.5662,0.6342,0.0,0.8061,0.0,0.0,0.0,0.0,0.0,0.0,0.0,0.0,0.0,0.0,0.0,0.0,0.0,0.0,0.0,0.0,0.0,0.0,0.0,1.4533,1.4292,1.4292,1.4292,1.4425,1.463,1.4789,1.4985,0.0,0.0,0.0,1.7722,1.8415,1.9351,2.04,2.04,2.0607,2.0899,2.0899,2.0899,2.0899,2.0899,2.1104,2.1445,2.1903,2.2459,2.3063,2.3562,2.3954,2.4202,2.4202,2.4202,2.4202,2.4202,2.4202,2.4202,2.4202,2.4257,2.4293,2.4293,2.4599,2.4893,2.4893,2.5168,2.557,2.6095,2.6198,2.6378,2.691,2.6986,2.6986,2.6986,2.6986,2.6986,2.6986,2.6986,2.6986,2.6986,2.7344,2.7565,2.7506,2.745,2.7685,2.8367,2.8645,2.9049,2.9556,2.9786,2.9932,2.9994,2.9994,2.9994,3.0015,3.0408,3.0574,0.3291,0.3284,0.3177,0.3116,0.3703,0.42,0.3905,0.4065,0.4406,0.4869,0.4559,0.4521,0.5532,0.5523,0.5765,0.7002,0.0,0.0,0.0,0.0,0.0,0.0,0.0,0.0,0.0,0.0,0.0,0.0,0.0,0.0,0.0,0.0,0.0,0.0,0.0,0.0,1.5101,1.4859,1.4739,1.4739,1.4739,1.4799,1.4932,1.5077,1.5209,0.0,0.0,1.6575,1.7399,1.8193,1.9135,2.0061,2.0493,2.0756,2.0899,2.0899,2.0899,2.0899,2.0899,2.1165,2.1547,2.1801,2.2459,2.3188,2.3438,2.3836,2.4257,2.4452,2.4385,2.4202,2.4202,2.4367,2.4526,2.4526,2.4863,2.5176,2.5176,2.548,2.5766,2.5766,2.5939,2.6209,2.6748,2.6854,2.7039,2.7617,2.7715,2.7715,2.7715,2.7715,2.7715,2.7715,2.7715,2.7715,2.7715,2.7891,2.8034,2.8034,2.8075,2.8316,2.8804,2.8955,2.9245,2.979,2.979,2.9863,2.9994,3.0243,3.0367,3.0387,3.087,3.1077,0.3038,0.3047,0.3079,0.321,0.374,0.4143,0.3828,0.4039,0.438,0.4595,0.4433,0.4436,0.5003,0.5461,0.0,0.7393,0.0,0.0,0.0,0.0,0.0,0.0,0.0,0.0,0.0,0.0,0.0,0.0,0.0,0.0,0.0,0.0,0.0,0.0,0.0,0.0,1.5282,1.5294,1.5234,1.5113,1.5113,1.5137,1.5209,1.5403,1.5535,1.5622,1.6039,1.6577,1.7279,1.8291,1.9101,1.9791,2.0591,2.0899,2.0899,2.0899,2.0899,2.0899,2.0899,2.1216,2.1623,2.1751,2.2417,2.3256,2.3494,2.3906,2.4415,2.4838,2.4709,2.4496,2.4496,2.4709,2.4948,2.4948,2.5407,2.5847,2.5847,2.6178,2.6472,2.6472,2.6545,2.6763,2.7306,2.7395,2.7584,2.822,2.8301,2.8301,2.8301,2.8301,2.8301,2.8301,2.8301,2.8301,2.8301,2.8301,2.8301,2.8301,2.8488,2.8701,2.8893,2.8973,2.9237,2.9784,2.9761,2.9876,3.016,3.0642,3.0843,3.0864,3.1319,3.1526,0.3156,0.3184,0.3222,0.336,0.3251,0.3197,0.3536,0.3545,0.3732,0.4603,0.4433,0.4506,0.5769,0.6437,0.683,0.6958,0.0,0.0,0.0,0.0,0.0,0.0,0.0,0.0,0.0,0.0,0.0,0.0,0.0,0.0,0.0,0.0,0.0,0.0,0.0,0.0,1.5825,1.5837,1.5596,1.5113,1.5113,1.5234,1.5475,1.5487,1.5632,1.5914,1.675,1.7147,1.7331,1.8945,1.9646,1.9791,2.0591,2.0899,2.0899,2.0899,2.0899,2.0899,2.0899,2.1104,2.142,2.1903,2.2459,2.3108,2.4053,2.4536,2.4838,2.5242,2.5333,2.5315,2.5315,2.5333,2.5352,2.5352,2.5388,2.5443,2.5443,2.5756,2.6031,2.6031,2.6343,2.6763,2.7306,2.7395,2.7584,2.822,2.8301,2.8301,2.8301,2.8301,2.8301,2.8301,2.8301,2.8301,2.8301,2.8301,2.8301,2.8301,2.8327,2.8354,2.8361,2.8594,2.886,2.9158,2.9829,3.03,3.0663,3.1118,3.1346,3.1367,3.1767,3.1974,0.3308,0.3385,0.3509,0.3722,0.3762,0.3778,0.3934,0.4296,0.4713,0.5142,0.5092,0.5122,0.5634,0.6394,0.711,0.0,0.0,0.0,0.0,0.0,0.0,0.0,0.0,0.0,0.0,0.0,0.0,0.0,0.0,0.0,0.0,0.0,0.0,0.0,0.0,0.0,0.0,1.5885,1.5789,1.5596,1.5596,1.5644,1.5741,1.5741,1.5801,1.5912,1.6258,1.6391,1.6524,1.8213,1.8893,1.9023,2.037,2.0899,2.0899,2.0899,2.0899,2.0899,2.0899,2.0976,2.1187,2.1964,2.2596,2.3202,2.4215,2.4832,2.526,2.5645,2.5756,2.57,2.5462,2.5572,2.5756,2.5756,2.5958,2.6159,2.6159,2.627,2.638,2.638,2.6508,2.6727,2.7071,2.7287,2.7557,2.7987,2.8174,2.8301,2.8301,2.8301,2.8301,2.8301,2.8301,2.8301,2.8301,2.8535,2.8672,2.8672,2.8672,2.8773,2.8982,2.9164,2.9548,3.0228,3.0336,3.0629,3.1139,3.1567,3.1767,3.1767,3.2222,3.245,0.3349,0.3435,0.361,0.3896,0.417,0.4411,0.4596,0.4985,0.5365,0.5588,0.5649,0.5661,0.5661,0.6349,0.0,0.0,0.0,0.0,0.0,0.0,0.0,0.0,0.0,0.0,0.0,0.0,0.0,0.0,0.0,0.0,0.0,0.0,0.0,0.0,0.0,0.0,0.0,1.5885,1.5885,1.5885,1.5885,1.5885,1.5885,1.5885,1.5885,1.5885,1.5885,1.5885,1.6019,1.7411,1.8344,1.8919,2.006,2.0694,2.0899,2.0899,2.0899,2.0899,2.0899,2.1091,2.1477,2.2275,2.3013,2.3756,2.4737,2.5283,2.5664,2.6068,2.6178,2.6123,2.5847,2.5976,2.6178,2.6178,2.6398,2.6591,2.6591,2.6591,2.6591,2.6591,2.6591,2.67,2.6962,2.7152,2.7422,2.7826,2.8067,2.8201,2.8301,2.8398,2.8555,2.8672,2.8718,2.8718,2.8718,2.8965,2.9121,2.9121,2.9258,2.936,2.9463,2.9553,2.9933,3.0598,3.0573,3.0848,3.1478,3.1883,3.2138,3.2243,3.2553,3.2698,0.3239,0.3301,0.3487,0.3823,0.4301,0.486,0.5467,0.5453,0.5421,0.5829,0.5966,0.5996,0.599,0.6391,0.0,0.0,0.0,0.0,0.0,0.0,0.0,0.0,0.0,0.0,0.0,0.0,0.0,0.0,0.0,0.0,0.0,0.0,0.0,0.0,0.0,0.0,0.0,1.5885,1.5885,1.5885,1.5885,1.5885,1.5885,1.5885,1.5885,1.5885,1.5885,1.5885,1.5965,1.6829,1.8199,1.9698,1.9698,2.0205,2.0899,2.0899,2.0899,2.0899,2.0899,2.1509,2.2384,2.2945,2.3774,2.4781,2.5707,2.6021,2.6086,2.6508,2.6591,2.6591,2.6591,2.6591,2.6591,2.6591,2.6591,2.6591,2.6591,2.6591,2.6591,2.6591,2.6591,2.6682,2.6935,2.6989,2.7206,2.7799,2.7906,2.7987,2.8274,2.8672,2.9082,2.9559,2.9598,2.9598,2.9598,2.9598,2.9598,2.9598,2.9961,3.0048,2.9618,2.9618,2.9729,3.0008,3.0472,3.1002,3.1602,3.2052,3.244,3.2698,3.2698,3.2698,0.3627,0.3747,0.3975,0.4303,0.4837,0.5326,0.5557,0.5873,0.6192,0.6362,0.6328,0.6236,0.6026,0.6269,0.0,0.0,0.0,0.0,0.0,0.0,0.0,0.0,0.0,0.0,0.0,0.0,0.0,0.0,0.0,0.0,0.0,0.0,0.0,0.0,0.0,0.0,0.0,0.0,1.5885,1.5885,1.5885,1.5885,1.5885,1.5885,1.5885,1.5885,1.5885,1.5885,1.5965,1.6829,1.8199,1.9698,1.9698,2.0343,2.1238,2.1238,2.1423,2.1682,2.1682,2.1985,2.2546,2.3651,2.4314,2.4906,2.6126,2.6446,2.6453,2.6582,2.6591,2.6591,2.6591,2.6591,2.6591,2.6591,2.6591,2.6591,2.6591,2.6591,2.6591,2.6591,2.6591,2.6646,2.6682,2.7035,2.7341,2.7503,2.7906,2.8318,2.8664,2.9101,2.9461,2.9579,2.9598,2.9598,2.9598,2.9872,3.0,3.0,3.043,3.0488,3.0039,3.0332,3.0632,3.0919,3.1038,3.1348,3.1729,3.2129,3.2334,3.242,3.2612,3.2698,0.3786,0.3958,0.4228,0.4592,0.5071,0.5531,0.5791,0.6117,0.641,0.6507,0.6505,0.6384,0.6086,0.6325,0.0,0.0,0.0,0.0,0.0,0.0,0.0,0.0,0.0,0.0,0.0,0.0,0.0,0.0,0.0,0.0,0.0,0.0,0.0,0.0,0.0,0.0,0.0,0.0,0.0,1.5885,1.5885,1.5885,1.5885,1.5885,1.5885,1.5885,1.5885,1.5885,1.5939,1.6471,1.7674,1.9194,1.9336,2.0197,2.1412,2.1581,2.1783,2.2011,2.2011,2.2349,2.2977,2.4008,2.4668,2.5304,2.6334,2.6637,2.6591,2.6591,2.6591,2.6591,2.6591,2.6591,2.6591,2.6591,2.6591,2.6591,2.6591,2.6591,2.6591,2.6591,2.6591,2.6591,2.6591,2.7084,2.7532,2.7641,2.8242,2.8769,2.9141,2.9442,2.9735,3.0087,3.0126,3.0126,3.0126,3.0332,3.0469,3.0469,3.0742,3.0762,3.0488,3.0742,3.0966,3.1141,3.1141,3.1267,3.1585,3.1932,3.2162,3.2305,3.2584,3.2801,0.378,0.4007,0.4294,0.4693,0.5098,0.5544,0.606,0.6165,0.6201,0.6338,0.6468,0.6461,0.6151,0.0,0.0,0.0,0.0,0.0,0.0,0.0,0.0,0.0,0.0,0.0,0.0,0.0,0.0,0.0,0.0,0.0,0.0,0.0,0.0,0.0,0.0,0.0,0.0,0.0,0.0,0.0,1.5885,1.5885,1.5885,1.5885,1.5885,1.5885,1.5948,1.591,1.5897,1.5948,1.6934,1.8492,1.8785,1.9968,2.1523,2.1921,2.2048,2.208,2.208,2.2695,2.359,2.417,2.4994,2.5861,2.6436,2.6609,2.6591,2.6591,2.6591,2.6591,2.6591,2.6591,2.6591,2.6591,2.6591,2.6591,2.6591,2.6591,2.6591,2.6591,2.6591,2.6591,2.6628,2.7169,2.7715,2.8066,2.879,2.9344,2.9579,2.9676,3.0028,3.0801,3.0898,3.0898,3.0898,3.0898,3.0898,3.0898,3.0898,3.0898,3.0898,3.0898,3.0898,3.0898,3.0898,3.1025,3.1267,3.1614,3.1981,3.2338,3.2617,3.3016,0.3893,0.4037,0.421,0.462,0.5054,0.5491,0.5886,0.5883,0.5874,0.6118,0.6195,0.6183,0.6124,0.0,0.0,0.0,0.0,0.0,0.0,0.0,0.0,0.0,0.0,0.0,0.0,0.0,0.0,0.0,0.0,0.0,0.0,0.0,0.0,0.0,0.0,0.0,1.5885,1.5885,1.5885,0.0,1.5885,1.5885,1.5885,1.5885,1.5885,1.5897,1.6103,1.6079,1.5936,1.6142,1.7243,1.8799,1.8855,2.0276,2.2275,2.2366,2.2545,2.2784,2.2784,2.3406,2.4245,2.4626,2.5329,2.6107,2.6552,2.6637,2.6591,2.6591,2.6591,2.6591,2.6591,2.6591,2.6591,2.6591,2.6591,2.6591,2.6591,2.6591,2.6591,2.6591,2.6591,2.671,2.7022,2.7373,2.778,2.8318,2.9232,2.9766,2.9618,3.0204,3.0684,3.0859,3.0898,3.0898,3.0898,3.0898,3.0898,3.0898,3.0898,3.0898,3.0898,3.0898,3.0898,3.0898,3.0898,3.0928,3.0995,3.1547,3.2027,3.2457,3.3012,3.3501,0.3891,0.4115,0.4416,0.4916,0.5217,0.5478,0.5746,0.5863,0.593,0.6063,0.6169,0.6235,0.0,0.0,0.0,0.0,0.0,0.0,0.0,0.0,0.0,0.0,0.0,0.0,0.0,0.0,0.0,0.0,0.0,0.0,0.0,0.0,0.0,0.0,0.0,0.0,1.5704,1.5825,1.5885,1.5885,1.5885,1.5885,1.5885,1.5885,1.5885,1.5924,1.6057,1.6018,1.591,1.6202,1.7089,1.836,1.9083,2.0384,2.189,2.2506,2.2863,2.305,2.3332,2.3753,2.429,2.5035,2.5579,2.5989,2.6508,2.6628,2.6591,2.6591,2.6591,2.6591,2.6591,2.6591,2.6591,2.6591,2.6591,2.6591,2.6591,2.6591,2.6673,2.6857,2.6894,2.7022,2.7426,2.7874,2.8502,2.9497,3.0091,3.0371,3.0243,3.0634,3.0898,3.0898,3.0898,3.0898,3.0898,3.0898,3.0898,3.0898,3.0898,3.0898,3.0898,3.0898,3.0898,3.0898,3.0898,3.0898,3.0898,3.1572,3.2025,3.2294,3.3116,3.374,0.3814,0.4184,0.4625,0.5197,0.5359,0.5447,0.5627,0.5891,0.6108,0.6146,0.6324,0.0,0.0,0.0,0.0,0.0,0.0,0.0,0.0,0.0,0.0,0.0,0.0,0.0,0.0,0.0,0.0,0.0,0.0,0.0,0.0,0.0,0.0,0.0,0.0,1.5185,1.5499,1.5716,1.5849,1.5885,1.5885,1.5885,1.5885,1.5885,1.5885,1.5897,1.5934,1.5934,1.591,1.6251,1.6904,1.783,1.932,2.044,2.1328,2.2545,2.2994,2.3062,2.3641,2.3893,2.4172,2.5266,2.5679,2.5871,2.6409,2.6591,2.6591,2.6591,2.6591,2.6591,2.6591,2.6591,2.6591,2.6591,2.6646,2.6664,2.6609,2.6646,2.682,2.7151,2.7316,2.7518,2.7812,2.8469,2.9305,3.0392,3.0762,3.0898,3.0898,3.0898,3.0898,3.0898,3.0898,3.0898,3.0898,3.0898,3.0898,3.0898,3.1035,3.1094,3.1035,3.1074,3.1113,3.1113,3.1035,3.0996,3.0996,3.1752,3.2137,3.2247,3.3205,3.3881,0.3692,0.4145,0.4586,0.4955,0.5219,0.5425,0.5502,0.5829,0.6146,0.0,0.0,0.0,0.0,0.0,0.0,0.0,0.0,0.0,0.0,0.0,0.0,0.0,0.0,0.0,0.0,0.0,0.0,0.0,0.0,0.0,0.0,0.0,1.4425,1.4678,1.4726,0.0,1.5499,1.5535,1.5668,1.5885,1.5885,1.5885,1.5885,1.5885,1.5885,1.5897,1.6154,1.6103,1.5934,1.6441,1.7191,1.8175,1.9403,2.057,2.1641,2.2652,2.2994,2.305,2.3416,2.3893,2.4423,2.5072,2.5624,2.6136,2.6509,2.6591,2.6591,2.6591,2.6591,2.6591,2.6591,2.6591,2.6591,2.6591,2.6875,2.7041,2.6692,2.6875,2.7151,2.7187,2.7746,2.8205,2.8179,2.8904,2.9434,2.9272,3.0205,3.0898,3.0898,3.0898,3.0898,3.0898,3.0898,3.0898,3.0898,3.0898,3.0898,3.0898,3.1612,3.1905,3.1601,3.1885,3.2022,3.2022,3.1621,3.1426,3.1426,3.2156,3.2732,3.314,3.3567,3.3982,0.415,0.4513,0.4786,0.5322,0.5586,0.5754,0.5866,0.6212,0.6529,0.6612,0.0,0.0,0.0,0.0,0.0,0.0,0.0,0.0,0.0,0.0,0.0,0.0,0.0,0.0,0.0,0.0,0.0,0.0,0.0,0.0,0.0,1.4292,1.4352,1.4473,1.4605,0.0,1.5282,1.5427,1.5632,1.5885,1.5885,1.5885,1.5885,1.5885,1.5885,1.5924,1.6006,1.6079,1.6139,1.6537,1.7032,1.7717,1.9452,2.043,2.1031,2.2469,2.2994,2.3119,2.3932,2.4406,2.4768,2.5679,2.6163,2.6409,2.6564,2.6591,2.6628,2.6875,2.6949,2.7004,2.7224,2.7279,2.7243,2.7068,2.7298,2.7536,2.749,2.7518,2.761,2.7848,2.8333,2.8788,2.8968,2.9124,2.9468,3.0,3.0528,3.0898,3.0898,3.0898,3.0898,3.0898,3.0898,3.0898,3.0898,3.0898,3.0898,3.0898,3.1729,3.2198,3.2187,3.2198,3.2198,3.2198,3.2003,3.1875,3.1875,3.2457,3.2813,3.304,3.3587,3.4101,0.4323,0.459,0.4801,0.5438,0.5717,0.5893,0.6099,0.6461,0.675,0.0,0.0,0.0,0.0,0.0,0.0,0.0,0.0,0.0,0.0,0.0,0.0,0.0,0.0,0.0,0.0,0.0,0.0,0.0,0.0,0.0,1.4292,1.4292,1.4292,1.4292,1.4497,1.4739,1.5004,1.533,1.5632,1.5885,1.5885,1.5885,1.5885,1.5885,1.5885,1.5897,1.5958,1.613,1.6335,1.6658,1.6911,1.7318,1.9456,2.0299,2.0529,2.2328,2.3106,2.3372,2.4351,2.4795,2.5083,2.6136,2.6537,2.6655,2.6738,2.6811,2.6967,2.7261,2.7353,2.7426,2.772,2.7793,2.7738,2.7555,2.7738,2.8014,2.8215,2.8105,2.8069,2.8462,2.8773,2.9094,2.9409,2.9201,2.942,3.0704,3.0898,3.0898,3.0898,3.0898,3.0898,3.0898,3.0898,3.0898,3.0898,3.0898,3.1074,3.1504,3.2159,3.2578,3.2804,3.2598,3.248,3.248,3.248,3.2441,3.2355,3.2754,3.2949,3.2969,3.3532,3.3974,0.3746,0.4035,0.436,0.4907,0.5237,0.5529,0.5917,0.0,0.0,0.0,0.0,0.0,0.0,0.0,0.0,0.0,0.0,0.0,0.0,0.0,0.0,0.0,0.0,0.0,0.0,0.0,0.0,0.0,0.0,0.0,1.4292,1.4292,1.4292,1.4292,1.4304,1.4449,1.4714,1.5246,1.5632,1.5885,1.5885,1.5885,1.5885,1.5885,1.5885,1.5897,1.6178,1.6299,1.6347,1.6851,1.708,1.7318,1.9456,2.0299,2.0529,2.2328,2.336,2.3921,2.4284,2.474,2.5276,2.5926,2.637,2.6761,2.7058,2.7444,2.7738,2.7757,2.7757,2.7775,2.7793,2.7793,2.7793,2.7775,2.8087,2.837,2.8388,2.837,2.848,2.8883,2.9005,2.9023,2.9023,2.9005,2.942,3.0704,3.0898,3.0898,3.0898,3.0898,3.0898,3.0898,3.0898,3.0898,3.0898,3.0898,3.1582,3.3152,3.3289,3.3328,3.3347,3.3328,3.3328,3.3328,3.3328,3.3164,3.2754,3.3184,3.3347,3.3347,3.3418,3.3437,0.3821,0.4161,0.4499,0.4948,0.5364,0.5709,0.5938,0.6402,0.0,0.0,0.0,0.0,0.0,0.0,0.0,0.0,0.0,0.0,0.0,0.0,0.0,0.0,0.0,0.0,0.0,0.0,0.0,0.0,0.0,0.0,1.4292,1.4292,1.4292,1.4292,1.4292,1.4509,1.4943,1.5318,1.5632,1.5885,1.5885,1.5885,1.5885,1.5885,1.5885,1.591,1.6356,1.6549,1.6573,1.6948,1.7189,1.755,1.9537,2.0299,2.0529,2.2328,2.3275,2.3758,2.4467,2.5099,2.5723,2.6578,2.7096,2.7432,2.7545,2.7683,2.7848,2.8124,2.8197,2.8223,2.8509,2.8583,2.8583,2.8583,2.8693,2.8803,2.8803,2.8803,2.884,2.8957,2.9005,2.9005,2.9005,2.9005,2.9153,2.9616,2.9675,2.997,3.0811,3.0898,3.0898,3.0898,3.0898,3.1328,3.2422,3.2519,3.2773,3.3347,3.3386,3.3386,3.3386,3.3386,3.3386,3.3386,3.3386,3.3308,3.3203,3.3308,3.3386,3.3386,3.3386,3.3574,0.3778,0.4103,0.4457,0.4977,0.5261,0.5562,0.6064,0.0,0.0,0.0,0.0,0.0,0.0,0.0,0.0,0.0,0.0,0.0,0.0,0.0,0.0,0.0,0.0,0.0,0.0,0.0,0.0,0.0,0.0,0.0,1.4292,1.4292,1.4292,1.4292,1.4292,1.4558,1.5101,1.5282,1.5547,1.5885,1.5885,1.5885,1.5885,1.5885,1.5885,1.5922,1.6465,1.6706,1.673,1.708,1.7322,1.7684,1.9577,2.0299,2.0529,2.2328,2.334,2.3921,2.4765,2.5531,2.6285,2.7179,2.7713,2.7995,2.7995,2.8105,2.8252,2.8546,2.859,2.8645,2.895,2.9005,2.9005,2.9005,2.9005,2.9005,2.9005,2.9005,2.9005,2.9005,2.9005,2.9005,2.9005,2.9005,2.9005,2.9005,2.9361,2.9941,3.0811,3.1387,3.1738,3.1738,3.1738,3.2187,3.332,3.3386,3.3386,3.3386,3.3386,3.3386,3.3386,3.3386,3.3386,3.3386,3.3386,3.3386,3.3386,3.3386,3.3386,3.3386,3.3386,3.3638,0.0,0.0,0.0,0.4887,0.0,0.0,0.6171,0.0,0.0,0.0,0.0,0.0,0.0,0.0,0.0,0.0,0.0,0.0,0.0,0.0,0.0,0.0,0.0,0.0,0.0,0.0,0.0,0.0,0.0,1.4292,1.4292,1.4292,1.4292,1.4292,1.4292,1.4558,1.5089,1.5101,1.5366,1.5873,1.5885,1.5885,1.5885,1.5885,1.5885,1.5922,1.6465,1.6706,1.6742,1.7274,1.7508,1.7684,1.9577,2.0299,2.0529,2.2343,2.3598,2.4518,2.5196,2.6035,2.6953,2.763,2.8077,2.8407,2.8407,2.8682,2.9005,2.9005,2.9005,2.8993,2.8993,2.9023,2.9042,2.9042,2.9042,2.9042,2.9042,2.9023,2.8993,2.9023,2.9023,2.9005,2.9005,2.9005,2.9005,2.9005,3.0097,3.0928,3.0957,3.2402,3.3386,3.3386,3.3386,3.3386,3.3386,3.3386,3.3386,3.3386,3.3386,3.3386,3.3386,3.3386,3.3386,3.3386,3.3386,3.3386,3.3386,3.3386,3.3386,3.3386,3.3386,3.3576,0.3606,0.0,0.0,0.0,0.0,0.0,0.0,0.0,0.0,0.0,0.0,0.0,0.0,0.0,0.0,0.0,0.0,0.0,0.0,0.0,0.0,0.0,0.0,0.0,0.0,0.0,0.0,0.0,0.0,1.4292,1.4292,1.4292,1.4292,1.4292,1.4292,1.4473,1.4823,1.4991,1.5282,1.5608,1.5801,1.5885,1.5885,1.5885,1.5885,1.5922,1.6465,1.6706,1.6742,1.7274,1.7508,1.7684,1.9577,2.0299,2.0557,2.2605,2.3995,2.4933,2.5599,2.6614,2.7661,2.8142,2.856,2.8828,2.8828,2.8902,2.9005,2.9005,2.9005,2.9078,2.9372,2.9445,2.9519,2.98,2.9709,2.9592,2.9592,2.928,2.9097,2.939,2.9207,2.9005,2.9005,2.9005,2.9005,2.9005,3.0272,3.1596,3.2591,3.3094,3.3386,3.3386,3.3386,3.3386,3.3386,3.3386,3.3386,3.3386,3.3386,3.3386,3.3386,3.3386,3.3386,3.3386,3.3386,3.3386,3.3386,3.3386,3.3386,3.3386,3.3386,3.3625,0.3805,0.0,0.0,0.0,0.0,0.0,0.0,0.5196,0.0,0.0,0.0,0.0,0.0,0.0,0.0,0.0,0.0,0.0,0.0,0.0,0.0,0.0,0.0,0.0,0.0,0.0,0.0,0.0,1.4232,1.4292,1.4292,1.4292,1.4292,1.4292,1.4292,1.4437,1.469,1.498,1.5234,1.5499,1.5765,1.5885,1.5885,1.5885,1.5885,1.5922,1.6465,1.6706,1.6742,1.7274,1.7508,1.7655,1.9142,1.9953,2.0543,2.2582,2.4043,2.5167,2.6239,2.7199,2.8044,2.8564,2.8845,2.9005,2.9005,2.9005,2.9005,2.9005,2.9133,2.9354,2.9758,2.9868,2.9874,3.0002,2.9892,2.9849,2.9929,2.9709,2.9562,2.9782,2.9941,2.9794,2.9133,2.9574,3.0015,3.0015,3.0804,3.1891,3.3228,3.3386,3.3386,3.3386,3.3386,3.3386,3.3386,3.3386,3.3386,3.3386,3.3386,3.3386,3.3386,3.3386,3.3386,3.3386,3.3386,3.3386,3.3386,3.3386,3.3516,3.3691,3.3691,3.3926,0.4105,0.418,0.0,0.0,0.0,0.0,0.5223,0.5155,0.0,0.0,0.0,0.0,0.0,0.0,0.0,0.0,0.0,0.0,0.0,0.0,0.0,0.0,0.0,0.0,0.0,0.0,0.0,1.3836,1.4147,1.4292,1.4292,1.4292,1.4292,1.4292,1.4292,1.4413,1.4642,1.4956,1.5221,1.5463,1.5753,1.5885,1.5885,1.5885,1.5936,1.5958,1.6477,1.6718,1.6779,1.7274,1.7508,1.7596,1.8532,1.9504,2.0585,2.2469,2.4017,2.5403,2.7011,2.7778,2.8199,2.8797,2.9005,2.9005,2.9005,2.9005,2.9023,2.903,2.9372,2.9776,3.0167,3.0259,3.0204,3.0033,2.9996,3.002,3.0277,3.0332,3.0332,3.0332,3.0901,3.0951,2.9519,3.0455,3.141,3.141,3.141,3.1891,3.3228,3.3386,3.3386,3.3386,3.3386,3.3386,3.3386,3.3386,3.3386,3.3386,3.3386,3.3386,3.3386,3.3445,3.3496,3.3496,3.3503,3.3523,3.3523,3.3516,3.3691,3.4114,3.4153,3.4407,0.4565,0.4659,0.4727,0.0,0.0,0.0,0.0,0.4619,0.0,0.0,0.0,0.0,0.0,0.0,0.0,0.0,0.0,0.0,0.0,0.0,0.0,0.0,0.0,0.0,0.0,0.0,1.347,1.387,1.4147,1.4292,1.4292,1.4292,1.4292,1.4292,1.4292,1.4328,1.4377,1.4859,1.5137,1.5185,1.5668,1.5885,1.5885,1.5885,1.6033,1.6251,1.6549,1.6827,1.7044,1.7387,1.7508,1.7596,1.8532,1.9654,2.0912,2.2804,2.4636,2.6363,2.7504,2.8307,2.8826,2.8945,2.9005,2.9005,2.9005,2.9005,2.9078,2.939,2.9764,3.0167,3.0571,3.0589,3.0639,3.1006,3.1098,3.1116,3.1139,3.1189,3.1189,3.1189,3.13,3.13,3.0987,3.1208,3.141,3.141,3.141,3.1891,3.3228,3.3386,3.3386,3.3386,3.3386,3.3386,3.3386,3.3386,3.3386,3.3386,3.3386,3.3386,3.3386,3.375,3.3945,3.3945,3.4277,3.4453,3.4453,3.4101,3.4016,3.4114,3.4414,3.4824,0.4863,0.4848,0.4882,0.4816,0.0,0.0,0.0,0.0,0.0,0.0,0.0,0.0,0.0,0.0,0.0,0.0,0.0,0.0,0.0,0.0,0.0,0.0,0.0,0.0,0.0,0.0,1.2973,1.3835,1.4147,1.4292,1.4292,1.4292,1.4292,1.4292,1.4292,1.4292,1.4292,1.4835,1.5113,1.5113,1.5644,1.5885,1.5885,1.5885,1.6057,1.6323,1.6573,1.6851,1.7117,1.7399,1.7508,1.7537,1.8035,1.9272,2.0997,2.2748,2.4703,2.669,2.8027,2.8707,2.9005,2.9005,2.9005,2.9042,2.9243,2.9445,2.9672,3.0106,3.0332,3.0589,3.0974,3.1061,3.1079,3.1355,3.141,3.141,3.141,3.141,3.141,3.141,3.141,3.141,3.141,3.141,3.141,3.141,3.141,3.1635,3.2307,3.2403,3.2657,3.3323,3.3386,3.3386,3.3386,3.3386,3.3386,3.3386,3.3633,3.375,3.375,3.416,3.4394,3.4394,3.4453,3.457,3.4707,3.4681,3.4701,3.4746,3.4941,3.5273,0.0,0.0,0.0,0.0,0.0,0.4817,0.0,0.0,0.0,0.5223,0.0,0.0,0.0,0.0,0.0,0.0,0.0,0.0,0.0,0.0,0.0,0.0,0.0,0.0,0.0,0.0,1.2292,1.3644,1.3906,1.4051,1.4208,1.4268,1.4292,1.4292,1.4292,1.4328,1.4377,1.4859,1.5137,1.5185,1.5668,1.5885,1.5885,1.5885,1.6066,1.6408,1.6598,1.6875,1.7177,1.7423,1.7537,1.7608,1.7608,1.9018,2.1259,2.2734,2.4782,2.7002,2.8479,2.9005,2.9005,2.9005,2.903,2.9207,2.9592,3.0015,3.0387,3.0699,3.0877,3.0974,3.1336,3.141,3.141,3.141,3.141,3.141,3.141,3.141,3.141,3.141,3.141,3.141,3.141,3.141,3.141,3.141,3.141,3.141,3.141,3.1635,3.2211,3.3292,3.3386,3.3464,3.3652,3.3672,3.3672,3.3672,3.4004,3.4231,3.4231,3.4609,3.4863,3.4961,3.4746,3.4726,3.4961,3.5215,3.5351,3.5391,3.5488,3.5703,0.0,0.0,0.0,0.0,0.5596,0.0,0.0,0.0,0.4761,0.4422,0.0,0.0,0.0,0.0,0.0,0.0,0.0,0.0,0.0,0.0,0.0,0.0,0.0,0.0,0.0,0.0,0.0,1.3113,1.3012,1.3194,1.3918,1.4171,1.4292,1.4292,1.4292,1.4413,1.4642,1.4956,1.5221,1.5451,1.5753,1.5885,1.5885,1.5885,1.6175,1.6658,1.6682,1.6984,1.7472,1.7496,1.7696,1.7943,1.7943,1.9666,2.226,2.3268,2.5403,2.7937,2.8719,2.9005,2.9005,2.9005,2.9243,2.9611,3.0002,3.0406,3.0736,3.0772,3.1079,3.1355,3.1391,3.141,3.141,3.141,3.141,3.141,3.141,3.141,3.141,3.141,3.141,3.141,3.141,3.141,3.141,3.141,3.141,3.141,3.141,3.2435,3.3228,3.3386,3.3386,3.3699,3.4492,3.4551,3.4551,3.4551,3.4609,3.4629,3.4629,3.5078,3.5488,3.5859,3.5806,3.5806,3.5845,3.5898,3.5742,3.541,3.5781,3.5976,0.0,0.0,0.0,0.0,0.0,0.0,0.0,0.0,0.5034,0.0,0.0,0.0,0.0,0.0,0.0,0.0,0.0,0.0,0.0,0.0,0.0,0.0,0.0,0.0,0.0,0.0,0.0,0.0,0.0,1.2831,1.3617,1.393,1.4075,1.4075,1.422,1.4437,1.469,1.498,1.5234,1.5499,1.5765,1.5885,1.5885,1.5885,1.6187,1.6706,1.6706,1.711,1.7784,1.7784,1.796,1.8265,1.8635,1.9853,2.1525,2.2466,2.4536,2.6948,2.7612,2.8331,2.9042,2.928,2.9629,3.002,3.0424,3.0809,3.1171,3.1171,3.1116,3.1029,3.1029,3.0974,3.1024,3.1336,3.141,3.141,3.141,3.141,3.141,3.141,3.141,3.141,3.141,3.141,3.141,3.141,3.141,3.141,3.141,3.1891,3.2243,3.2243,3.2943,3.3542,3.3926,3.4883,3.5332,3.5033,3.5059,3.5215,3.5449,3.5644,3.584,3.6016,3.5982,3.5982,3.5982,3.5982,3.5903,3.5762,3.5903,3.5982,0.6248,0.0,0.0,0.0,0.0,0.0,0.0,0.0,0.0,0.0,0.0,0.0,0.0,0.0,0.0,0.0,0.0,0.0,0.0,0.0,0.0,0.0,0.0,0.0,0.0,0.0,0.0,0.0,0.0,0.0,1.3328,1.3702,1.3906,1.3906,1.4159,1.4461,1.4823,1.4991,1.527,1.5608,1.5801,1.5885,1.5897,1.597,1.626,1.6706,1.6779,1.7269,1.8002,1.8002,1.8194,1.8599,1.9196,1.992,2.0783,2.1913,2.3993,2.6355,2.684,2.7953,2.9243,2.9647,3.002,3.0442,3.0827,3.1098,3.1244,3.1244,3.0969,3.0626,3.0626,3.0657,3.0717,3.1098,3.1428,3.1616,3.1689,3.174,3.1653,3.1446,3.1593,3.1814,3.2001,3.1703,3.141,3.141,3.1795,3.2038,3.2038,3.2038,3.2202,3.2628,3.3539,3.4108,3.4108,3.526,3.584,3.543,3.5508,3.5703,3.5982,3.5982,3.5982,3.5982,3.5982,3.5982,3.5982,3.5982,3.5982,3.5982,3.5982,3.5982,0.0,0.0,0.0,0.0,0.0,0.0,0.0,0.0,0.6479,0.0,0.0,0.0,0.0,0.0,0.0,0.0,0.0,0.0,0.0,0.0,0.0,0.0,0.0,0.0,0.0,0.0,0.0,0.0,0.0,0.0,1.3027,1.3605,1.3906,1.3906,1.4159,1.4558,1.5089,1.5101,1.5366,1.5873,1.5885,1.5885,1.5897,1.6175,1.6441,1.6718,1.6972,1.744,1.8002,1.8002,1.834,1.8933,1.955,1.9954,2.0419,2.199,2.4434,2.6991,2.6991,2.8112,2.9647,3.0039,3.0442,3.0877,3.1263,3.1134,3.0809,3.0809,3.0516,3.0222,3.0222,3.0497,3.0786,3.0657,3.1414,3.2258,3.2496,3.2551,3.2313,3.1557,3.2019,3.2808,3.3596,3.2423,3.141,3.141,3.2716,3.3725,3.3725,3.3725,3.4277,3.57,3.5903,3.5903,3.5903,3.5996,3.5982,3.5996,3.5962,3.5982,3.5982,3.5982,3.5982,3.5982,3.5982,3.5982,3.5982,3.5982,3.5982,3.5982,3.5982,3.5982,0.0,0.0,0.7122,0.6443,0.0,0.0,0.0,0.0,0.0,0.0,0.0,0.0,0.0,0.0,0.0,0.0,0.0,0.0,0.0,0.0,0.0,0.0,0.0,0.0,0.0,0.0,0.0,0.0,0.0,0.0,0.0,1.3328,1.3652,1.3652,1.4075,1.4558,1.5101,1.5113,1.5366,1.5885,1.5885,1.5885,1.5897,1.6175,1.6441,1.6718,1.6972,1.7452,1.8002,1.8194,1.8617,1.9223,1.9839,2.0269,2.0623,2.1341,2.3329,2.5975,2.8013,2.9119,2.9721,3.0369,3.0681,3.0809,3.0956,3.0901,3.0736,3.0479,3.0296,3.0259,3.0516,3.0681,3.0919,3.1414,3.1799,3.2166,3.2514,3.2459,3.2258,3.1983,3.1854,3.1873,3.2148,3.1777,3.141,3.141,3.1854,3.2588,3.367,3.3817,3.399,3.4508,3.4543,3.4956,3.5913,3.5982,3.5982,3.5982,3.5982,3.5982,3.5982,3.5982,3.5982,3.5982,3.5982,3.5982,3.5982,3.5982,3.5982,3.6035,3.6309,3.6289,0.7085,0.7292,0.0,0.0,0.6451,0.0,0.0,0.0,0.0,0.0,0.0,0.0,0.0,0.0,0.0,0.0,0.0,0.0,0.0,0.0,0.0,0.0,0.0,0.0,0.0,0.0,0.9793,1.1255,1.0755,0.0,0.0,0.0,1.3497,1.3497,1.4026,1.4558,1.5101,1.5113,1.5366,1.5885,1.5885,1.5934,1.6057,1.6335,1.6573,1.6851,1.7117,1.7596,1.8165,1.834,1.8816,1.9516,2.003,2.0414,2.0739,2.1002,2.2748,2.5441,2.8519,2.9702,2.9941,3.0571,3.0882,3.1006,3.0827,3.0791,3.0717,3.0314,3.0296,3.0461,3.0717,3.1011,3.1359,3.1873,3.2221,3.2478,3.257,3.2588,3.2463,3.2203,3.1854,3.1561,3.1428,3.1543,3.1616,3.1446,3.1616,3.2184,3.3248,3.384,3.4198,3.4198,3.4439,3.499,3.5913,3.5982,3.5982,3.5982,3.6177,3.6309,3.625,3.625,3.625,3.625,3.6094,3.5982,3.5982,3.5982,3.5982,3.6001,3.6465,3.6523]},{"header":{"parameterUnit":"m.s-1","parameterCategory":1,"la1":30.6,"la2":29.2853,"lo1":-89.7004,"lo2":-87.6739,"dy":0.0162,"dx":0.0183,"nx":112,"ny":82,"refTime":"2026-04-18T00:00:00:Z","depth":0,"parameterNumber":3,"parameterNumberName":"V-component_of_WINDS"},"data":[0.0,0.0,0.0,0.0,0.0,0.0,0.0,0.0,0.0,0.0,0.0,0.0,0.0,0.0,0.0,0.0,0.0,0.0,0.0,0.0,0.0,0.0,0.0,0.0,0.0,0.0,0.0,0.0,0.0,0.0,0.0,0.0,0.0,0.0,0.0,0.0,0.0,0.0,0.0,0.0,0.0,0.0,0.0,0.0,0.0,0.0,0.0,0.0,0.0,0.0,0.0,0.0,0.0,0.0,0.0,0.0,0.0,0.0,0.0,0.0,0.0,0.0,0.0,0.0,0.0,0.0,0.0,0.0,0.0,0.0,0.0,0.0,0.0,0.0,0.0,0.0,0.0,0.0,0.0,0.0,0.0,0.0,0.0,0.0,0.0,0.0,0.0,0.0,0.0,0.0,0.0,1.9042,2.1844,2.34,2.2882,2.2673,2.1505,1.9001,0.0,0.0,0.0,0.0,0.0,0.0,0.0,0.0,0.0,0.0,0.0,0.0,0.0,0.0,0.0,0.0,0.0,0.0,0.0,0.0,0.0,0.0,0.0,0.0,0.0,0.0,0.0,0.0,0.0,0.0,0.0,0.0,0.0,0.0,0.0,0.0,0.0,0.0,0.0,0.0,0.0,0.0,0.0,0.0,0.0,0.0,0.0,0.0,0.0,0.0,0.0,0.0,0.0,0.0,0.0,0.0,0.0,0.0,0.0,0.0,0.0,0.0,0.0,0.0,0.0,0.0,0.0,0.0,0.0,0.0,0.0,0.0,0.0,0.0,0.0,0.0,0.0,0.0,0.0,0.0,0.0,0.0,0.0,0.0,0.0,0.0,0.0,0.0,0.0,0.0,0.0,0.0,0.0,0.0,0.0,0.0,0.0,0.0,0.0,0.0,0.0,0.0,0.0,0.0,1.8067,2.1695,2.2981,2.355,2.346,2.2483,2.1196,1.9648,0.0,0.0,0.0,0.0,0.0,0.0,0.0,0.0,0.0,0.0,0.0,0.0,0.0,0.0,0.0,0.0,0.0,0.0,0.0,0.0,0.0,0.0,0.0,0.0,0.0,0.0,0.0,0.0,0.0,0.0,0.0,0.0,0.0,0.0,0.0,0.0,0.0,0.0,0.0,0.0,0.0,0.0,0.0,0.0,0.0,0.0,0.0,0.0,0.0,0.0,0.0,0.0,0.0,0.0,0.0,0.0,0.0,0.0,0.0,0.0,0.0,0.0,0.0,0.0,0.0,0.0,0.0,0.0,0.0,0.0,0.0,0.0,0.0,0.0,0.0,0.0,0.0,0.0,0.0,0.0,0.0,0.0,0.0,0.0,0.0,0.0,0.0,0.0,0.0,0.0,0.0,0.0,0.0,0.0,0.0,0.0,0.0,0.0,0.0,0.0,0.0,0.0,0.0,1.7788,1.9462,2.2403,2.3231,2.361,2.361,2.2443,2.1136,1.9789,1.7513,0.0,0.0,0.0,0.0,0.0,0.0,0.0,0.0,0.0,0.0,0.0,0.0,0.0,0.0,0.0,0.0,0.0,0.0,0.0,0.0,0.0,0.0,0.0,0.0,0.0,0.0,0.0,0.0,0.0,0.0,0.0,0.0,0.0,0.0,0.0,0.0,0.0,0.0,0.0,0.0,0.0,0.0,0.0,0.0,0.0,0.0,0.0,0.0,0.0,0.0,0.0,0.0,0.0,0.0,0.0,0.0,0.0,0.0,0.0,0.0,0.0,0.0,0.0,0.0,0.0,0.0,0.0,0.0,0.0,0.0,0.0,0.0,0.0,0.0,0.0,0.0,0.0,0.0,0.0,0.0,0.0,0.0,0.0,0.0,0.0,0.0,0.0,0.0,0.0,0.0,0.0,0.0,0.0,0.0,0.0,0.0,0.0,0.0,0.0,0.0,0.0,0.0,1.9878,2.0876,2.2733,2.331,2.361,2.361,2.2293,2.0946,1.9768,1.711,0.0,0.0,0.0,0.0,0.0,0.0,0.0,0.0,0.0,0.0,0.0,0.0,0.0,0.0,0.0,0.0,0.0,0.0,0.0,0.0,0.0,0.0,0.0,0.0,0.0,0.0,0.0,0.0,0.0,0.0,0.0,0.0,0.0,0.0,0.0,0.0,0.0,0.0,0.0,0.0,0.0,0.0,0.0,0.0,0.0,0.0,0.0,0.0,0.0,0.0,0.0,0.0,0.0,0.0,0.0,0.0,0.0,0.0,0.0,0.0,0.0,0.0,0.0,0.0,0.0,0.0,0.0,0.0,0.0,0.0,0.0,0.0,0.0,0.0,0.0,0.0,0.0,0.0,0.0,0.0,0.0,0.0,0.0,0.0,0.0,0.0,0.0,0.0,0.0,0.0,0.0,0.0,0.0,0.0,0.0,0.0,0.0,0.0,0.0,0.0,0.0,0.0,2.0408,2.2054,2.3411,2.358,2.361,2.361,2.1864,2.0458,1.9738,1.6645,0.0,0.0,0.0,0.0,0.0,0.0,0.0,0.0,0.0,0.0,0.0,0.0,0.0,0.0,0.0,0.0,0.0,0.0,0.0,0.0,0.0,0.0,0.0,0.0,0.0,0.0,0.0,0.0,0.0,0.0,0.0,0.0,0.0,0.0,0.0,0.0,0.0,0.0,0.0,0.0,0.0,0.0,0.0,0.0,0.0,0.0,0.0,0.0,0.0,0.0,0.0,0.0,0.0,0.0,0.0,0.0,0.0,0.0,0.0,0.0,0.0,0.0,0.0,0.0,0.0,0.0,0.0,0.0,0.0,0.0,0.0,0.0,0.0,0.0,0.0,0.0,0.0,0.0,0.0,0.0,0.0,0.0,0.0,0.0,0.0,0.0,0.0,0.0,0.0,0.0,0.0,0.0,0.0,0.0,0.0,0.0,0.0,0.0,0.0,0.0,0.0,0.0,2.0348,2.1833,0.0,2.4036,2.4036,2.4036,2.2594,2.1138,1.9777,0.0,0.0,0.0,0.0,0.0,0.0,0.0,0.0,0.0,0.0,0.0,0.0,0.0,0.0,0.0,0.0,0.0,0.0,0.0,0.0,0.0,0.0,0.0,0.0,0.0,0.0,0.0,0.0,0.0,0.0,0.0,0.0,0.0,0.0,0.0,0.0,0.0,0.0,0.0,0.0,0.0,0.0,0.0,0.0,0.0,0.0,0.0,0.0,0.0,0.0,0.0,0.0,0.0,0.0,0.0,0.0,0.0,0.0,0.0,0.0,0.0,0.0,0.0,0.0,0.0,0.0,0.0,0.0,0.0,0.0,0.0,0.0,0.0,0.0,0.0,0.0,0.0,0.0,0.0,0.0,0.0,0.0,0.0,0.0,0.0,0.0,0.0,0.0,0.0,0.0,0.0,0.0,0.0,0.0,0.0,0.0,0.0,0.0,0.0,0.0,0.0,0.0,1.931,2.0468,2.1813,0.0,2.3895,2.3773,2.3773,2.2378,2.0871,1.9477,0.0,0.0,0.0,0.0,0.0,0.0,0.0,0.0,0.0,0.0,0.0,0.0,0.0,0.0,0.0,0.0,0.0,0.0,0.0,0.0,0.0,0.0,0.0,0.0,0.0,0.0,0.0,0.0,0.0,0.0,0.0,0.0,0.0,0.0,0.0,0.0,0.0,0.0,0.0,0.0,0.0,0.0,0.0,0.0,0.0,0.0,0.0,0.0,0.0,0.0,0.0,0.0,0.0,0.0,0.0,0.0,0.0,0.0,0.0,0.0,0.0,0.0,0.0,0.0,0.0,0.0,0.0,0.0,0.0,0.0,0.0,0.0,0.0,0.0,0.0,0.0,0.0,0.0,0.0,0.0,0.0,0.0,0.0,0.0,0.0,0.0,0.0,0.0,0.0,0.0,0.0,0.0,0.0,0.0,0.0,0.0,0.0,0.0,0.0,0.0,0.0,0.0,1.9369,2.0866,2.2183,2.3471,2.3073,2.2724,2.2724,2.0885,1.9438,0.0,0.0,0.0,0.0,0.0,0.0,0.0,0.0,0.0,0.0,0.0,0.0,0.0,0.0,0.0,0.0,0.0,0.0,0.0,0.0,0.0,0.0,0.0,0.0,0.0,0.0,0.0,0.0,0.0,0.0,0.0,0.0,0.0,0.0,0.0,0.0,0.0,0.0,0.0,0.0,0.0,0.0,0.0,0.0,0.0,0.0,0.0,0.0,0.0,0.0,0.0,0.0,0.0,0.0,0.0,0.0,0.0,0.0,0.0,0.0,0.0,0.0,0.0,0.0,0.0,0.0,0.0,0.0,0.0,0.0,0.0,0.0,0.0,0.0,0.0,0.0,0.0,0.0,0.0,0.0,0.0,0.0,0.0,0.0,0.0,0.0,0.0,0.0,0.0,0.0,0.0,0.0,0.0,0.0,0.0,0.0,0.0,0.0,0.0,0.0,0.0,0.0,0.0,0.0,2.1119,2.2749,2.4336,2.4615,2.4378,2.3616,2.2574,2.1029,1.8835,0.0,0.0,0.0,0.0,0.0,0.0,0.0,0.0,0.0,0.0,0.0,0.0,0.0,0.0,0.0,0.0,0.0,0.0,0.0,0.0,0.0,0.0,0.0,0.0,0.0,0.0,0.0,0.0,0.0,0.0,0.0,0.0,0.0,0.0,0.0,0.0,0.0,0.0,0.0,0.0,0.0,0.0,0.0,0.0,0.0,0.0,0.0,0.0,0.0,0.0,0.0,0.0,0.0,0.0,0.0,0.0,0.0,0.0,0.0,0.0,0.0,0.0,0.0,0.0,0.0,0.0,0.0,0.0,0.0,0.0,0.0,0.0,0.0,0.0,0.0,0.0,0.0,0.0,0.0,0.0,0.0,0.0,0.0,0.0,0.0,0.0,0.0,0.0,0.0,0.0,0.0,0.0,0.0,0.0,0.0,0.0,0.0,0.0,0.0,0.0,0.0,0.0,1.901,2.0921,2.2661,2.4215,2.4383,2.4014,2.3117,2.2403,2.1007,1.865,0.0,0.0,0.0,0.0,0.0,0.0,0.0,0.0,0.0,0.0,0.0,0.0,0.0,0.0,0.0,0.0,0.0,0.0,0.0,0.0,0.0,0.0,0.0,0.0,0.0,0.0,0.0,0.0,0.0,0.0,0.0,0.0,0.0,0.0,0.0,0.0,0.0,0.0,0.0,0.0,0.0,0.0,0.0,0.0,0.0,0.0,0.0,0.0,0.0,0.0,0.0,0.0,0.0,0.0,0.0,0.0,0.0,0.0,0.0,0.0,0.0,0.0,0.0,0.0,0.0,0.0,0.0,0.0,0.0,0.0,0.0,0.0,0.0,0.0,0.0,0.0,0.0,0.0,0.0,0.0,0.0,0.0,0.0,0.0,0.0,0.0,0.0,0.0,0.0,0.0,0.0,0.0,0.0,0.0,0.0,0.0,0.0,0.0,0.0,0.0,0.0,0.0,1.8582,2.0628,2.2365,2.3652,2.3342,2.2728,2.2013,2.13,2.0185,1.8514,0.0,0.0,0.0,0.0,0.0,0.0,0.0,0.0,0.0,0.0,0.0,0.0,0.0,0.0,0.0,0.0,0.0,0.0,0.0,0.0,0.0,0.0,0.0,0.0,0.0,0.0,0.0,0.0,0.0,0.0,0.0,0.0,0.0,0.0,0.0,0.0,0.0,0.0,0.0,0.0,0.0,0.0,0.0,0.0,0.0,0.0,0.0,0.0,0.0,0.0,0.0,0.0,0.0,0.0,0.0,0.0,0.0,0.0,0.0,0.0,1.702,0.0,0.0,0.0,0.0,0.0,0.0,0.0,0.0,0.0,0.0,0.0,0.0,0.0,0.0,0.0,0.0,0.0,0.0,0.0,0.0,0.0,0.0,0.0,0.0,0.0,0.0,0.0,0.0,0.0,0.0,0.0,0.0,0.0,0.0,0.0,0.0,0.0,0.0,0.0,0.0,0.0,1.9619,2.1822,2.361,2.4936,2.5295,2.5056,2.4058,2.3034,2.1686,1.9953,0.0,0.0,0.0,0.0,0.0,0.0,0.0,0.0,0.0,0.0,0.0,0.0,0.0,0.0,0.0,0.0,0.0,0.0,0.0,0.0,0.0,0.0,0.0,0.0,0.0,0.0,0.0,0.0,0.0,0.0,0.0,0.0,0.0,0.0,0.0,0.0,0.0,0.0,0.0,0.0,0.0,0.0,0.0,0.0,0.0,0.0,0.0,0.0,0.0,0.0,0.0,0.0,0.0,0.0,0.0,0.0,0.0,0.0,0.0,0.0,0.0,1.8726,0.0,0.0,0.0,0.0,0.0,0.0,0.0,0.0,0.0,0.0,0.0,0.0,0.0,0.0,0.0,0.0,0.0,0.0,0.0,0.0,0.0,0.0,0.0,0.0,0.0,0.0,0.0,0.0,0.0,0.0,0.0,0.0,0.0,0.0,0.0,0.0,0.0,0.0,0.0,0.0,1.978,2.1877,2.3683,2.5064,2.5447,2.5213,2.4347,2.3738,2.2578,2.0672,1.8931,0.0,0.0,0.0,0.0,0.0,0.0,0.0,0.0,0.0,0.0,0.0,0.0,0.0,0.0,0.0,0.0,0.0,0.0,0.0,0.0,0.0,0.0,0.0,0.0,0.0,0.0,0.0,0.0,0.0,0.0,0.0,0.0,0.0,0.0,0.0,0.0,0.0,0.0,0.0,0.0,0.0,0.0,0.0,0.0,0.0,0.0,0.0,0.0,0.0,0.0,0.0,0.0,0.0,0.0,0.0,2.3765,2.3713,2.4214,2.4994,2.2763,2.1549,2.1076,0.0,0.0,0.0,0.0,0.0,0.0,0.0,0.0,0.0,0.0,0.0,0.0,0.0,0.0,0.0,0.0,0.0,0.0,0.0,0.0,0.0,0.0,0.0,0.0,0.0,2.132,2.1236,0.0,0.0,0.0,0.0,0.0,0.0,0.0,0.0,0.0,0.0,0.0,0.0,2.0035,2.1986,2.3715,2.499,2.5118,2.4904,2.4349,2.4143,2.3279,2.1553,2.0267,1.8501,0.0,0.0,0.0,0.0,0.0,0.0,0.0,0.0,0.0,0.0,0.0,0.0,0.0,0.0,0.0,0.0,0.0,0.0,0.0,0.0,0.0,0.0,0.0,0.0,0.0,0.0,0.0,0.0,0.0,0.0,0.0,0.0,1.448,1.4686,0.0,0.0,0.0,0.0,0.0,0.0,0.0,0.0,0.0,0.0,0.0,0.0,0.0,0.0,2.1864,2.3681,2.4287,2.3726,2.5606,2.6593,2.6744,2.6763,2.7529,2.8724,2.7156,0.0,2.3445,2.2013,0.0,0.0,0.0,0.0,0.0,0.0,0.0,0.0,0.0,0.0,0.0,0.0,0.0,0.0,0.0,0.0,0.0,0.0,0.0,0.0,0.0,0.0,2.3774,2.3733,2.4126,2.4409,0.0,2.0798,1.8006,1.8034,0.0,0.0,0.0,0.0,0.0,0.0,0.0,0.0,2.1883,2.3719,2.5119,2.5943,2.6041,2.5975,2.5886,2.5044,2.4394,2.4112,2.1627,2.0,1.9644,1.7084,0.0,0.0,0.0,0.0,0.0,0.0,0.0,0.0,0.0,0.0,0.0,0.0,0.0,0.0,0.0,0.0,0.0,0.0,0.0,0.0,0.0,0.0,0.0,0.0,0.0,0.0,0.0,0.0,0.0,1.4228,1.5293,1.5715,1.5485,1.5107,0.0,0.0,0.0,0.0,0.0,0.0,0.0,0.0,0.0,2.2013,2.2785,2.389,2.5324,2.6315,2.7225,2.8059,2.8974,2.9696,3.0139,2.9707,2.9957,3.0686,3.0127,2.9026,2.7482,2.5243,2.3719,2.2649,0.0,0.0,0.0,0.0,0.0,0.0,2.3043,0.0,0.0,0.0,0.0,0.0,0.0,0.0,0.0,0.0,0.0,0.0,0.0,0.0,0.0,2.5769,2.6237,2.6581,2.6581,2.4639,2.2568,0.0,2.0814,1.9675,1.7423,0.0,0.0,0.0,0.0,0.0,2.3728,2.5061,2.6033,2.6742,2.6809,2.6634,2.6227,2.5772,2.5127,2.4269,2.3015,2.1713,2.0297,1.878,1.7414,0.0,0.0,0.0,0.0,0.0,0.0,0.0,0.0,0.0,0.0,0.0,0.0,0.0,0.0,0.0,0.0,0.0,0.0,0.0,0.0,0.0,0.0,0.0,0.0,0.0,0.0,0.0,0.0,1.5505,1.6309,1.6873,1.7054,1.6805,0.0,0.0,0.0,0.0,0.0,0.0,2.049,2.1893,2.3325,2.467,2.5433,2.6798,2.8837,2.8974,2.99,3.1693,3.1746,3.2173,3.286,3.1956,3.1869,3.237,3.178,3.1414,3.0998,2.8351,2.6798,2.6024,2.5191,2.4598,0.0,2.5512,2.563,2.5417,2.7222,2.736,2.6576,2.5684,0.0,2.4693,2.328,0.0,0.0,0.0,0.0,2.4934,2.5613,0.0,2.6903,2.7615,2.8144,2.8539,2.8745,2.8148,2.6958,0.0,2.4263,2.3161,2.0123,0.0,0.0,0.0,0.0,2.3353,2.5522,2.6465,2.7096,2.7561,2.7618,2.73,2.6535,2.6468,2.5903,2.4585,2.424,2.3192,2.1233,2.0307,1.9229,0.0,0.0,0.0,0.0,0.0,0.0,0.0,0.0,0.0,0.0,0.0,0.0,0.0,0.0,0.0,0.0,0.0,0.0,0.0,0.0,0.0,0.0,0.0,0.0,0.0,0.0,0.0,0.0,0.0,0.0,1.8412,1.906,0.0,0.0,0.0,0.0,1.9478,2.2106,2.3736,2.3663,2.5141,2.657,2.7914,2.8751,3.0005,3.1752,3.2089,3.253,3.3104,3.3618,3.3985,3.4162,3.325,3.3327,3.4148,3.1848,3.1732,3.2999,3.0989,2.9539,2.8436,2.7633,2.7293,2.7357,2.8052,2.8319,2.8372,2.914,2.8948,2.8457,2.9033,2.869,2.8178,2.8772,2.8441,0.0,0.0,2.8329,2.8501,2.9523,2.9252,2.8843,2.9513,3.0031,3.0576,3.1272,3.064,2.934,0.0,2.6486,2.5646,2.4381,0.0,0.0,2.4106,2.4741,2.5757,2.7282,2.8111,2.8524,2.8434,2.8424,2.813,2.7324,2.7249,2.6899,2.6141,2.513,2.4314,2.372,2.149,2.0063,1.9594,1.7058,0.0,0.0,0.0,0.0,0.0,0.0,0.0,0.0,0.0,0.0,0.0,0.0,0.0,0.0,0.0,0.0,0.0,0.0,0.0,0.0,0.0,0.0,0.0,0.0,0.0,0.0,0.0,0.0,2.1434,2.2104,0.0,0.0,2.2838,2.3421,2.3173,2.4978,2.6303,2.6772,2.8172,2.9386,3.0348,3.135,3.2364,3.349,3.3868,3.4594,3.5719,3.5471,3.5923,3.6887,3.5615,3.5608,3.6514,3.5184,3.4908,3.5356,3.4682,3.3345,3.1681,3.1343,3.1245,3.1257,3.1404,3.1471,3.1461,3.1439,3.1273,3.1033,3.0749,3.0577,3.0466,3.028,3.0357,3.0467,3.0509,3.0762,3.1088,3.1473,3.1079,3.0694,3.1022,3.1018,3.1006,3.1274,3.1058,3.0746,3.0517,2.9128,2.7541,2.6117,2.6269,2.643,2.5882,2.6455,2.7448,2.8884,2.9311,2.9403,2.9229,2.921,2.8881,2.8087,2.7556,2.7047,2.6503,2.5241,2.4252,2.3613,2.1838,2.0716,2.0417,1.8176,1.6585,0.0,0.0,0.0,0.0,0.0,0.0,0.0,0.0,0.0,0.0,0.0,0.0,0.0,0.0,0.0,0.0,0.0,0.0,0.0,0.0,0.0,0.0,0.0,0.0,0.0,0.0,2.2238,2.3425,2.461,2.5146,2.4653,2.5706,2.6398,2.6328,2.7757,2.8901,2.9566,3.0783,3.1804,3.2561,3.3363,3.4319,3.5479,3.5619,3.6474,3.7919,3.7391,3.7711,3.8743,3.7154,3.6852,3.7591,3.6746,3.6561,3.6871,3.7166,3.6561,3.5415,3.4419,3.4046,3.4024,3.3861,3.3795,3.3728,3.3239,3.3061,3.2984,3.2431,3.242,3.2505,3.2293,3.2538,3.2895,3.2927,3.3039,3.3151,3.3261,3.2804,3.2301,3.2385,3.2161,3.1935,3.1935,3.1742,3.1708,3.2226,3.1108,2.9702,2.8387,2.8583,2.8694,2.7915,2.8236,2.8989,3.0191,3.0287,3.019,3.0065,3.0016,2.9646,2.8807,2.8078,2.7434,2.6872,2.5504,2.4421,2.3808,2.263,2.164,2.0947,1.9015,1.7712,1.7016,0.0,0.0,0.0,0.0,0.0,0.0,0.0,0.0,0.0,0.0,0.0,0.0,0.0,0.0,0.0,0.0,0.0,0.0,0.0,0.0,0.0,0.0,0.0,2.1136,2.2442,2.3695,2.4422,2.6446,2.7213,2.5799,2.7756,2.9025,2.8884,3.0355,3.1469,3.2047,3.2942,3.3781,3.4538,3.484,3.5897,3.7819,3.7532,3.8114,3.96,3.9258,3.9269,3.9565,3.7777,3.7093,3.7307,3.6324,3.6449,3.7433,3.8254,3.9016,3.9333,3.6629,3.5565,3.5566,3.535,3.5236,3.5135,3.4488,3.4231,3.4231,3.4231,3.4275,3.4376,3.5058,3.5236,3.5316,3.57,3.5202,3.4648,3.5032,3.4391,3.3635,3.3635,3.3507,3.3423,3.3413,3.2858,3.2327,3.2327,3.2327,3.209,3.1369,3.1224,3.0987,3.0267,3.0166,0.0,3.1099,3.1092,3.0982,3.0912,3.079,3.0368,2.9516,2.8797,2.8078,2.7358,2.5872,2.488,2.4495,2.3831,2.2765,2.1239,1.9602,1.8403,1.775,0.0,0.0,0.0,0.0,0.0,0.0,0.0,0.0,0.0,0.0,0.0,0.0,0.0,0.0,0.0,0.0,0.0,0.0,0.0,0.0,0.0,0.0,2.3457,2.3522,2.4807,2.6537,2.8613,2.9366,3.0097,3.1054,3.1367,3.189,3.2709,3.2363,3.2569,3.3544,3.3839,3.4555,3.5831,3.6752,3.7714,3.8723,3.888,3.9186,3.958,3.9004,3.9079,3.9726,3.8628,3.8496,3.9051,3.8196,3.8303,3.9096,3.8838,3.9151,3.9643,3.8061,3.7474,3.7374,3.6578,3.6028,3.5665,3.544,3.535,3.535,3.535,3.5515,3.5754,3.5938,3.5996,3.6017,3.6124,3.5934,3.5765,3.5924,3.5259,3.4543,3.4543,3.404,3.3528,3.3434,3.3254,3.3085,3.3085,3.3085,3.2848,3.2114,3.1989,3.1911,3.1742,0.0,0.0,3.1234,3.1092,3.0982,3.0912,3.079,3.0567,3.0245,2.9085,2.8078,0.0,2.5417,2.4232,2.4132,2.3202,2.2254,2.1303,2.0334,1.9611,0.0,0.0,0.0,0.0,0.0,0.0,0.0,0.0,0.0,0.0,0.0,0.0,0.0,0.0,0.0,0.0,0.0,0.0,0.0,0.0,0.0,0.0,2.4039,2.6016,2.6749,2.7576,2.8927,3.1107,3.1594,3.2317,3.3765,3.3677,3.3925,3.4872,3.4371,3.4393,3.526,3.5686,3.6316,3.718,3.8204,3.91,3.9901,3.9757,3.9858,4.0207,3.9485,3.9397,3.9824,3.9051,3.8944,0.0,3.8909,3.9113,3.9824,3.9786,4.0208,0.0,0.0,0.0,0.0,0.0,3.6946,3.6633,3.6163,3.5996,3.5996,3.5996,3.6124,3.6284,3.6284,3.6284,3.6284,3.6284,3.6276,3.6244,3.6307,3.5815,3.5348,3.5348,3.4902,3.4344,3.3941,3.3863,3.3761,3.3457,0.0,0.0,3.3231,3.296,3.2554,3.1911,3.209,3.2022,0.0,3.1361,3.1429,3.1371,3.1525,3.1432,3.0996,2.9947,0.0,0.0,0.0,2.477,2.4472,0.0,0.0,0.0,0.0,0.0,0.0,0.0,0.0,0.0,1.8862,1.8941,0.0,0.0,0.0,0.0,0.0,0.0,0.0,0.0,0.0,0.0,0.0,0.0,0.0,0.0,0.0,0.0,2.6198,2.8675,3.0129,3.0482,3.1102,3.2401,3.3089,3.3838,3.4862,3.4996,3.5314,3.6026,3.6198,3.6481,3.702,0.0,0.0,0.0,0.0,3.9959,4.0882,4.017,4.0165,4.0824,4.0136,3.9744,3.9637,3.8959,3.8673,3.8673,3.8673,3.9137,3.9958,4.0681,4.1502,4.2144,4.041,3.9691,3.9454,3.8366,3.7965,0.0,0.0,0.0,0.0,3.6559,3.649,3.6422,3.6422,3.6387,3.6284,3.6284,3.6284,3.6284,3.6284,3.617,3.6019,3.6008,3.5811,3.5453,3.4787,3.4607,3.4404,3.366,3.3514,3.3728,3.4269,3.3897,3.3085,3.1775,3.2046,0.0,3.1437,3.1766,3.2057,3.1997,0.0,0.0,3.1791,3.0986,2.9936,2.8608,2.7131,2.6029,2.5375,2.4514,2.4549,2.5593,2.4879,2.4462,2.4441,2.5171,2.5135,2.4344,2.2154,2.1593,0.0,0.0,0.0,0.0,0.0,0.0,0.0,0.0,0.0,0.0,0.0,0.0,0.0,0.0,0.0,2.6237,2.8707,3.072,3.1643,3.2904,3.3704,3.3682,3.324,3.3898,3.6312,3.5654,3.5817,3.76,3.7435,3.7435,3.7924,3.813,0.0,3.8913,3.911,3.9475,4.0107,3.9964,3.9653,3.9244,0.0,0.0,3.805,3.7907,3.7836,3.7836,3.7836,3.8611,3.9912,4.0065,4.1002,4.218,4.1141,4.0248,3.9535,3.9174,3.9,3.8958,3.8478,3.8323,3.8313,3.8179,3.7743,3.726,3.726,3.6801,0.0,3.6284,3.6284,3.6284,3.6284,3.6223,3.6116,3.6019,3.5877,3.5689,3.5419,3.5374,3.5171,3.4438,3.428,3.4134,3.3694,3.3998,3.4201,3.3897,3.3491,3.2916,3.2192,3.2042,3.2008,3.1987,3.244,3.2663,3.2508,3.1261,3.0135,2.9241,2.7869,2.7017,2.6884,2.7259,2.7146,2.648,2.5948,2.5529,2.5202,2.5926,2.6663,2.7316,2.5389,2.4576,0.0,0.0,0.0,0.0,0.0,0.0,0.0,0.0,0.0,0.0,0.0,2.2216,2.3583,0.0,2.7236,2.8925,3.0539,3.2017,3.3248,3.4074,3.4519,3.4327,3.4679,3.5435,3.687,3.6794,3.7085,3.8138,3.8373,3.8382,3.821,3.8891,3.9229,3.9085,3.9426,3.9718,3.9886,3.953,3.9173,3.8816,3.8397,3.7978,3.7595,3.7595,3.7595,3.7631,3.8014,3.8861,3.9958,4.0788,4.1573,4.2262,4.1818,4.1375,4.0877,4.0262,4.0038,3.995,3.9162,3.8905,3.8873,3.8661,3.8364,3.8054,3.8054,3.7778,3.7353,3.7019,3.6915,3.6812,3.6387,3.6244,3.6182,3.603,3.5888,3.5745,3.5622,3.56,3.5498,3.5103,3.5036,3.4934,3.4562,3.4799,3.481,3.4066,3.3964,3.3694,3.296,3.3069,3.3243,3.3156,3.3662,3.3828,3.3405,3.1934,3.0886,3.0522,2.9473,2.8887,2.8887,2.9251,2.9171,2.8628,2.851,2.8339,2.8162,2.8905,2.9468,2.9874,2.9402,2.8748,0.0,0.0,0.0,0.0,0.0,0.0,0.0,0.0,2.1528,2.2664,2.4262,2.5751,2.6729,2.8619,3.0292,3.1082,3.2024,3.3103,3.44,3.4725,3.4762,3.4617,3.5892,3.6878,3.7212,3.7683,3.8037,3.8182,3.8943,3.9124,3.8472,3.9543,3.9887,3.9158,3.947,3.9618,3.9487,3.8861,3.8576,3.8576,3.7907,3.7595,3.7595,3.7764,3.7836,3.7871,3.8826,3.9565,4.0243,4.1691,4.2297,4.2297,4.2297,4.2297,4.2205,4.1359,4.1038,4.0905,3.9826,3.9454,3.941,3.9144,3.8951,3.8813,3.8813,3.8709,3.8468,3.7881,3.7605,3.7364,3.6708,3.6382,3.6182,3.6051,3.5899,3.5756,3.5656,3.5622,3.56,3.56,3.56,3.56,3.56,3.56,3.5205,3.4021,3.4201,3.428,3.3694,3.4123,3.4406,3.4308,3.4879,3.4909,3.4028,3.2785,3.199,3.1813,3.1261,3.093,3.093,3.093,3.093,3.093,3.1044,3.1112,3.1112,3.1848,3.2175,3.2124,3.3121,3.2643,2.0327,1.9129,1.8481,1.9868,2.0255,2.1243,0.0,0.0,2.5116,2.7428,2.7495,2.7592,2.9126,3.0219,3.1118,3.1951,3.3357,3.44,3.4581,3.5232,3.5413,3.4689,3.5377,3.65,3.7929,3.7502,3.743,3.8146,3.8943,3.9378,3.9269,3.9433,3.9425,3.9193,3.851,3.808,3.7954,3.7801,3.7729,3.7729,3.7631,3.7595,3.7631,3.8326,3.8673,3.8745,4.0217,4.0895,4.1038,4.194,4.2297,4.2297,4.2297,4.2297,4.2287,4.2046,4.1958,4.1895,4.1314,4.1147,4.1091,4.0758,4.0158,3.9572,3.9572,3.9123,3.8571,3.8502,3.8019,3.7467,3.7409,3.6806,3.6204,3.6193,3.5965,3.5812,3.5801,3.5678,3.56,3.56,3.56,3.56,3.56,3.56,3.5532,3.5363,3.4878,3.4483,3.4381,3.4351,3.4308,3.4297,3.4799,3.4782,3.3902,3.3668,3.3259,3.2608,3.2508,3.2442,3.2442,3.2442,3.2442,3.2442,3.2079,3.1869,3.1869,3.263,3.3312,3.3928,3.5099,3.4748,2.2625,2.2131,2.1788,2.2479,2.3269,2.4189,2.5513,2.6451,2.7387,2.8463,2.9484,3.0387,3.1082,3.1836,3.2524,0.0,3.3864,3.4762,3.5232,3.5594,3.5848,3.5972,3.5884,3.6065,3.6725,3.7349,3.8037,3.8834,3.9197,3.9414,3.9414,3.9414,3.9117,3.8524,3.8156,3.8096,3.8402,3.79,3.789,3.829,3.829,3.829,3.8326,3.9102,3.9708,4.0172,4.0824,4.1359,4.1833,4.2155,4.2297,4.2297,4.2297,4.2297,4.2297,4.2246,4.2225,4.2163,4.1681,4.1515,4.1448,4.1035,4.0676,4.04,4.04,4.0193,3.9848,3.9353,3.902,3.8675,3.8261,3.7538,3.6943,3.6878,3.6383,3.5888,3.5834,3.5689,3.56,3.56,3.56,3.56,3.56,3.56,3.56,3.56,3.534,3.5137,3.5137,3.5093,3.5015,3.488,3.5079,3.484,3.3879,3.3801,3.3503,3.274,3.2707,3.2873,3.3337,3.3337,3.3536,3.3967,3.4197,3.4331,3.4331,3.5066,3.5605,3.5901,3.6418,3.6503,2.4057,2.418,2.4212,2.4483,2.5654,2.6649,2.6364,2.7845,2.9296,2.9341,3.0681,3.1879,3.1879,3.2524,3.3067,3.3067,3.4177,3.5099,3.5421,3.5693,3.6007,3.6306,3.582,3.5558,3.5776,3.7051,3.8291,3.9305,3.9414,3.9414,3.9414,3.9414,3.899,3.8089,3.8218,3.8519,3.8949,3.8563,3.8616,3.9149,3.9149,3.9149,3.9185,4.012,4.0895,4.1431,4.168,4.1966,4.2297,4.2297,4.2297,4.2297,4.2297,4.2297,4.2297,4.2297,4.2297,4.2236,4.1769,4.1604,4.1526,4.1047,4.0894,4.0894,4.0894,4.0894,4.0791,4.0193,3.9871,3.9572,3.9054,3.8364,3.7801,3.7679,3.7167,3.6555,3.6241,3.6084,3.5915,3.5645,3.56,3.56,3.56,3.56,3.56,3.56,3.56,3.56,3.56,3.56,3.5521,3.5314,3.5291,3.4998,3.4177,3.4099,3.3867,3.3337,3.3304,3.3635,3.4386,3.4419,3.475,3.5479,3.6042,3.6307,3.6307,3.6837,3.7189,3.7387,3.7189,3.7586,2.4247,2.4156,2.4315,2.5144,2.647,2.7793,2.8601,2.994,3.1015,3.1015,3.1027,3.1046,3.1046,3.1698,3.2234,3.2234,3.4375,3.5718,3.4764,3.5461,3.5747,3.4792,3.4653,3.4943,0.0,3.6552,3.7683,3.9269,3.9414,3.9414,3.9414,3.9414,3.9015,3.8218,3.8752,3.9085,3.9076,3.9712,4.0023,4.0059,4.0059,4.0059,4.0121,4.1562,4.2226,4.2297,4.3097,4.3001,4.2297,4.2297,4.2297,4.2297,4.2297,4.2297,4.2297,4.2297,4.2297,4.2236,4.1769,4.1604,4.1526,4.1047,4.0894,4.0894,4.0894,4.0894,4.0883,4.0848,4.0296,3.9698,3.9664,3.9123,3.8571,3.856,3.8447,3.8082,3.7251,3.7002,3.6684,3.5769,3.56,3.56,3.56,3.56,3.56,3.56,3.56,3.56,3.56,3.56,3.5521,3.5314,3.5291,3.5198,3.4906,3.4849,3.4849,3.4816,3.4816,3.5148,3.5909,3.5943,3.6274,3.7023,3.7069,3.7056,3.7056,3.7102,3.7454,3.8149,3.7421,3.7864,2.5327,2.5721,2.6467,2.7867,2.8561,2.9289,3.0645,3.1245,3.1512,3.1512,3.1409,3.15,3.2099,3.194,3.2093,3.322,3.4565,3.5572,3.5766,3.6573,3.6815,3.592,3.5312,0.0,0.0,0.0,0.0,3.9269,3.9414,3.9623,4.0085,4.0121,4.0012,3.9722,3.9914,4.0248,4.0744,4.0454,4.0488,4.0893,4.0815,4.1026,4.1598,4.2629,4.3108,4.3144,4.3918,4.3811,4.3108,4.3108,4.2787,4.2297,4.2297,4.2297,4.2297,4.2297,4.2297,4.2246,4.1866,4.1736,4.1648,4.1198,4.1035,4.1023,4.0918,4.0894,4.0894,4.0894,4.0722,4.0503,4.0503,3.9917,3.9319,3.9319,3.886,3.8288,3.7912,3.7797,3.7477,3.657,3.6411,3.6231,3.5701,3.56,3.56,3.56,3.56,3.56,3.56,3.56,3.5521,3.5314,3.5291,3.4998,3.421,3.4154,3.3967,3.3469,3.39,3.4286,3.453,3.5479,3.6108,3.6373,3.7321,3.7586,3.7089,3.7586,3.795,3.8182,3.795,3.8626,2.7014,2.7641,2.844,3.009,3.0697,3.1114,3.1859,3.2152,3.1996,3.1075,3.0785,3.0806,3.1054,3.0857,3.1233,3.2896,3.4439,3.5533,3.5963,3.7104,3.7539,3.6606,3.6044,3.6001,0.0,0.0,0.0,3.9414,3.9675,4.002,4.0616,4.0817,4.0809,4.0519,4.0773,4.1134,4.1584,4.1367,4.1427,4.1766,4.1688,4.2011,4.2751,4.3525,4.3882,4.3954,4.4703,4.4596,4.3882,4.3882,4.3597,4.3108,4.3108,4.3108,4.3072,4.2822,4.2726,4.2638,4.2058,4.1845,4.1769,4.1278,4.1152,4.1094,4.0942,4.0894,4.0894,4.0894,4.0894,4.0894,4.0894,4.0503,4.0124,4.0124,3.9686,3.9169,3.8721,3.8582,3.8283,3.736,3.719,3.7043,3.6524,3.6186,3.5915,3.5633,3.56,3.56,3.56,3.56,3.5532,3.5383,3.5326,3.5021,3.4313,3.4222,3.4,3.3536,3.3933,3.4319,3.4596,3.5512,3.6108,3.6406,3.7321,3.7685,3.7487,3.7983,3.8361,3.8593,3.8315,3.899,2.9023,2.9704,3.0156,3.1774,3.2733,3.3084,3.2365,3.2647,3.2355,2.9937,2.9312,2.8954,2.8128,0.0,2.9736,3.1372,3.3913,3.561,3.5522,3.7087,3.7922,0.0,0.0,0.0,0.0,0.0,0.0,3.9726,0.0,4.0643,4.0937,4.146,4.1424,4.0664,4.1305,4.1665,4.1665,4.2414,4.2707,4.2589,4.2589,4.291,4.3525,4.4264,4.4621,4.4703,4.5488,4.5416,4.4656,4.4656,4.4621,4.4596,4.4596,4.4596,4.4524,4.3811,4.3561,4.3422,4.2381,4.1977,4.1831,4.1368,4.122,4.1175,4.0965,4.0894,4.0894,4.0894,4.0894,4.0894,4.0894,4.0894,4.0894,4.0894,4.0894,4.0651,3.968,3.945,3.9162,3.8151,3.7922,3.791,3.791,3.7325,3.6615,3.5847,3.5701,3.5701,3.56,3.56,3.5554,3.552,3.5372,3.5256,3.5116,3.4965,3.4894,3.4883,3.4949,3.528,3.5976,3.6075,3.6439,3.7122,3.7189,3.7553,3.8215,3.8215,3.856,3.9249,3.8526,3.899,2.99,3.0955,3.217,3.3244,3.3194,3.2953,3.3422,3.2142,3.0709,3.0056,2.8843,2.7817,2.7583,2.821,0.0,3.0922,3.3335,0.0,3.6667,3.8276,0.0,3.8146,0.0,3.8988,3.9001,3.9592,0.0,0.0,4.0988,4.1106,4.1748,4.2287,4.2484,4.2276,4.2465,4.2564,4.2564,4.2619,4.2589,4.2516,4.2409,4.2767,4.3525,4.4264,4.4917,4.5534,4.6355,4.6248,4.5488,4.5488,4.5131,4.4596,4.4596,4.4596,4.4596,4.4382,4.431,4.43,4.4032,4.3102,4.1959,4.148,4.1358,4.1301,4.0989,4.0894,4.0894,4.0894,4.0894,4.0894,4.0894,4.0894,4.0894,4.0894,4.0894,4.0813,4.0462,4.0297,3.9936,3.904,3.8355,3.791,3.791,3.7753,3.755,3.7335,3.7302,3.6896,3.5735,3.56,3.5554,3.552,3.5486,3.5349,3.5128,3.5081,3.5022,3.4894,3.5413,3.581,3.6009,3.7069,3.7719,3.7917,3.846,3.8573,3.8215,3.8215,3.8282,3.8493,3.8282,3.899,3.1102,3.2244,3.3394,3.3895,3.3624,3.3127,3.2481,3.1191,2.9705,2.8232,2.7394,2.6737,2.5959,2.7081,2.866,0.0,0.0,0.0,3.7089,3.8747,3.9762,0.0,4.0119,0.0,4.0665,4.1111,4.1738,0.0,4.2017,4.1826,4.2312,4.2898,4.3151,4.2901,4.3013,4.3004,4.2861,4.2746,4.2635,4.2511,4.2425,4.2935,4.3989,4.4417,4.5238,4.6355,0.0,4.6759,4.632,4.632,4.607,4.563,4.563,4.563,4.5606,4.5274,4.5131,4.5095,4.4738,4.3917,4.293,4.2259,4.1784,4.1414,4.1012,4.0894,4.0894,4.0894,4.0894,4.0894,4.0894,4.0894,4.0894,4.0894,4.0894,4.0847,4.075,4.0631,4.0419,3.9815,3.9238,3.8768,3.843,3.8396,3.8261,3.7944,3.791,3.7572,3.6727,3.6321,3.6107,3.6083,3.6026,3.6011,3.6145,3.6119,3.6022,3.5889,3.6241,3.646,3.646,3.7288,3.7719,3.7719,3.8129,3.8295,3.8215,3.8215,3.8361,3.8659,3.8659,3.9454,3.2317,3.3391,3.4124,3.401,3.3819,3.3054,3.0723,2.9845,2.8691,2.5713,2.5519,2.5431,2.3931,2.5576,2.7758,2.9524,0.0,3.5211,3.7111,3.8731,4.0095,4.108,4.1308,4.167,4.2418,4.2569,4.2924,4.3624,4.321,4.2864,4.2832,4.3389,4.3467,4.2967,4.3151,4.3087,4.2792,4.2756,4.2675,4.2455,4.2455,4.3155,4.4442,4.456,4.5416,4.6866,0.0,0.0,4.7009,4.7009,4.7009,4.7009,4.7009,4.7009,4.6938,4.6212,4.5891,4.5713,4.5131,4.4667,4.416,4.3252,4.2436,4.1786,4.1347,4.1136,4.1067,4.1067,4.0998,4.0894,4.0894,4.0894,4.0894,4.0894,4.0894,4.0859,4.0762,4.0714,4.0583,4.0337,4.0188,3.991,3.9254,3.9153,3.8949,3.8294,3.8193,3.8159,3.8046,3.7381,3.6965,3.6965,3.6826,3.6977,3.7459,3.7381,3.7245,3.7102,3.7089,3.7122,3.7222,3.7268,3.7288,3.74,3.74,3.7698,3.8348,3.8348,3.8725,3.9448,3.9448,4.0163,3.2619,3.3807,3.4846,3.4163,3.2978,3.1637,3.0456,2.8052,0.0,2.5294,2.4166,2.3181,2.2842,2.4255,2.6195,2.8544,3.1113,3.3884,3.696,3.8286,3.9499,0.0,4.18,4.252,4.338,0.0,0.0,0.0,0.0,0.0,4.3923,4.3844,4.361,4.3259,4.3069,4.2854,4.2639,4.2629,4.253,4.2318,4.2318,4.2807,4.3704,4.431,4.5131,4.6034,0.0,0.0,4.7009,4.7009,4.7009,4.7009,4.7009,4.7009,4.6973,4.683,4.6355,4.5891,4.6391,4.5659,4.4378,4.3862,4.3465,4.3123,4.2879,4.2344,4.1814,4.1814,4.1366,4.0894,4.0894,4.0894,4.0894,4.0894,4.0894,4.0883,4.0859,4.0692,4.0485,4.0325,4.0188,4.0079,3.9943,3.9897,3.9876,3.974,3.9728,3.9491,3.887,3.8159,3.7719,3.7719,3.7696,3.7634,3.7504,3.7467,3.7378,3.7115,3.7089,3.7354,3.7983,3.8017,3.8295,3.8904,3.8917,3.8984,3.9103,3.9103,3.9481,4.021,4.021,4.0627,3.2695,3.3922,3.4877,3.36,3.2336,3.0996,2.9254,0.0,0.0,2.4035,2.3181,2.2476,2.2005,2.3609,2.5666,2.7725,2.9795,3.2482,3.6239,3.7154,3.8514,4.1459,4.2179,4.2899,0.0,0.0,0.0,0.0,0.0,0.0,4.4336,4.442,4.449,4.4465,4.3933,4.3459,4.3014,4.2707,4.253,4.2504,4.2379,4.2715,4.3525,4.4264,4.5024,4.5856,0.0,0.0,4.7009,4.7009,4.7009,4.6973,4.6534,4.6391,4.6391,4.6391,4.6141,4.5927,4.6723,4.6384,4.555,4.5388,4.4589,4.365,4.3382,4.3042,4.2706,4.2632,4.2378,4.2102,4.2102,4.2102,4.2102,4.2102,4.1792,4.1469,4.1469,4.0966,4.0485,4.0412,4.0238,4.0113,4.0113,4.0113,4.0113,4.0113,4.0113,3.9977,3.9626,3.9254,3.8916,3.8497,3.8464,3.8535,3.8644,3.8652,3.8538,3.8254,3.8241,3.8407,3.8772,3.8772,3.8937,3.9282,3.968,3.9879,3.9879,4.023,4.058,4.0912,4.0912,4.1309,3.2695,3.3918,3.4784,3.3038,3.1848,3.0498,2.8131,2.604,2.4184,2.2881,2.2304,2.188,2.1385,2.303,2.5056,2.6905,2.8779,3.1303,3.514,3.6126,3.7869,0.0,4.2293,0.0,0.0,0.0,0.0,0.0,0.0,0.0,0.0,4.5207,4.5464,4.5514,4.487,4.4161,4.3413,4.2854,4.2619,4.2684,4.2414,4.2644,4.3276,4.4203,4.4953,4.5595,0.0,0.0,0.0,4.683,4.6759,4.6641,4.5856,4.563,4.582,4.582,4.582,4.5927,4.6723,4.6717,4.6424,4.6602,4.5564,4.4247,4.3991,4.3764,4.3551,4.3486,4.331,4.3207,4.3207,4.3207,4.3207,4.3207,4.2723,4.2263,4.2263,4.1597,4.1025,4.1025,4.0814,4.0591,4.0591,4.0464,4.0337,4.0337,4.0214,4.0113,4.0113,4.0113,3.9876,3.9288,3.9254,3.9357,3.9688,3.9742,3.9625,3.9369,3.9355,3.9342,3.9315,3.9448,3.9547,3.9547,4.023,4.0627,4.0627,4.1143,4.1494,4.1626,4.1626,4.2024,3.2695,3.3932,3.4789,3.3034,3.1405,2.9775,2.801,0.0,2.2804,2.2611,2.1336,2.0478,2.1165,2.2086,2.3509,2.5936,2.8351,3.0844,3.3543,3.586,3.8286,4.1004,0.0,0.0,0.0,0.0,0.0,0.0,0.0,0.0,0.0,4.6379,4.6338,4.5603,4.5172,4.4484,4.3515,4.3069,4.2806,4.2684,4.2414,4.2333,4.2476,4.3918,4.4621,4.481,0.0,0.0,0.0,4.6212,4.5927,4.582,4.5024,4.5167,4.582,4.582,4.582,4.5927,4.6723,4.6419,4.5795,4.6553,4.6256,4.5632,4.5607,4.4943,4.422,4.4207,4.3724,4.3207,4.3207,4.3207,4.3207,4.3207,4.3138,4.3069,4.3069,4.2921,4.2774,4.2774,4.2488,4.2294,4.2294,4.1633,4.1102,4.1102,4.054,4.0113,4.0113,4.0113,4.0079,4.0011,4.0011,3.9969,3.9884,3.9871,3.9789,3.9501,3.9488,3.9435,3.9315,3.9945,4.0296,4.0296,4.0978,4.1295,4.1295,4.1361,4.1759,4.2421,4.2421,4.2771,3.1857,3.2802,3.341,3.2276,3.0665,2.9074,2.7864,2.4997,2.2556,2.2556,2.1178,2.0256,2.1091,2.1916,2.3161,2.5136,2.6308,2.801,3.1038,3.2288,3.4567,3.9158,4.0398,0.0,0.0,0.0,0.0,0.0,0.0,0.0,0.0,0.0,4.6958,4.6626,4.5632,4.478,4.4034,4.3381,4.3041,4.2995,4.2691,4.2731,4.3072,4.4132,4.4846,0.0,0.0,0.0,0.0,4.6141,4.582,4.5713,4.4917,4.481,4.5131,4.563,4.582,4.5927,4.6723,4.6761,4.6478,4.6613,4.6398,4.6043,4.5933,4.5531,4.5079,4.4988,4.4755,4.4527,4.4527,4.4527,4.4527,4.4527,4.4195,4.3862,4.3862,4.3403,4.3005,4.3005,4.274,4.2477,4.2477,4.2155,4.1847,4.1847,4.1623,4.142,4.142,4.142,4.142,4.142,4.062,4.0049,3.9897,4.0244,4.0347,4.0181,4.0472,4.0636,4.058,4.0845,4.1011,4.1011,4.1692,4.2057,4.2057,4.252,4.2885,4.3168,4.3168,4.33,3.0854,3.1764,3.2185,3.1396,3.0068,2.8602,2.7465,2.4946,2.2858,2.2858,2.1718,2.0919,2.1488,2.2286,2.3237,2.4416,2.525,2.6728,2.9598,3.0579,3.2857,0.0,0.0,0.0,0.0,0.0,0.0,0.0,0.0,0.0,0.0,0.0,4.7277,4.729,4.6023,4.5028,4.4361,4.3672,4.3303,4.3303,4.3004,4.3182,4.3791,4.4441,4.5187,0.0,0.0,0.0,0.0,4.5784,4.532,4.506,4.4489,4.4417,4.4703,4.5488,4.5963,4.6248,4.6795,4.7009,4.6963,4.6684,4.6435,4.6191,4.5983,4.5752,4.5528,4.5423,4.5397,4.5397,4.5397,4.5397,4.5397,4.5397,4.4996,4.4643,4.4643,4.4152,4.3696,4.3696,4.3455,4.3223,4.3223,4.2894,4.2625,4.2625,4.2422,4.23,4.23,4.23,4.23,4.23,4.1352,4.0704,4.0635,4.1002,4.1198,4.1036,4.1352,4.154,4.1479,4.1655,4.1726,4.1726,4.2454,4.2851,4.2851,4.3333,4.3598,4.3613,4.3812,4.4044,2.9953,3.1002,3.1392,3.0519,2.9582,2.845,2.6721,2.4936,2.3692,2.3692,2.3048,2.2479,2.2479,2.3123,2.3692,2.3692,2.5818,2.8055,2.9749,3.2103,3.4605,0.0,0.0,0.0,0.0,0.0,0.0,0.0,0.0,0.0,0.0,0.0,4.7216,4.7216,4.6234,4.525,4.4318,4.3828,4.3605,4.3605,4.3312,4.3606,4.4418,4.4891,0.0,0.0,0.0,0.0,0.0,4.4953,4.4168,4.3525,4.3525,4.3954,4.4703,4.5488,4.6284,4.7009,4.7009,4.7009,4.6963,4.6684,4.6435,4.6132,4.587,4.5611,4.5397,4.5397,4.5397,4.5397,4.5397,4.5397,4.5397,4.5397,4.5397,4.5397,4.5397,4.5363,4.5363,4.5363,4.515,4.4974,4.4974,4.4102,4.3389,4.3389,4.276,4.23,4.23,4.23,4.23,4.23,4.23,4.23,4.23,4.2286,4.222,4.2072,4.1956,4.1852,4.1694,4.2223,4.2487,4.2487,4.3201,4.3598,4.3598,4.3598,4.3598,4.3598,4.4357,4.5068,2.6918,2.7503,2.7947,2.7215,2.6677,2.6218,2.5682,2.4574,2.3692,2.3692,2.3048,2.2517,2.2517,2.3161,2.4071,2.5212,2.658,2.8093,2.9749,3.1606,0.0,3.7035,0.0,0.0,0.0,0.0,0.0,0.0,0.0,0.0,0.0,0.0,0.0,4.7216,4.5615,4.4587,4.4318,4.4039,4.3787,4.3605,4.3521,4.4106,4.522,0.0,0.0,0.0,0.0,0.0,0.0,4.4917,4.4442,4.4239,4.4239,4.4738,4.5534,4.632,4.6795,4.7009,4.7009,4.7009,4.6952,4.6578,4.641,4.6265,4.5803,4.5554,4.5397,4.5397,4.5397,4.5397,4.5397,4.5397,4.5397,4.5397,4.5397,4.5397,4.5397,4.5397,4.5397,4.5397,4.5184,4.5009,4.5009,4.4558,4.4228,4.4228,4.4025,4.3856,4.3856,4.3856,4.3856,4.3856,4.3856,4.345,4.2401,4.2665,4.2921,4.2866,4.3098,4.3256,4.3213,4.3238,4.3234,4.3234,4.3466,4.3598,4.3598,4.3598,4.3845,4.4357,4.5101,4.5863,2.4899,2.5195,2.55,2.5116,2.4888,2.4735,2.473,2.4176,2.3815,2.4157,2.3793,2.3439,2.3477,2.3869,2.4526,2.5591,2.6466,2.7714,2.9673,3.1379,0.0,0.0,0.0,0.0,0.0,0.0,0.0,0.0,0.0,0.0,0.0,0.0,0.0,4.6565,4.5102,4.4244,4.4184,4.4078,4.3908,4.3755,4.3755,4.4365,4.5461,0.0,0.0,0.0,0.0,0.0,0.0,4.4382,4.4168,4.4203,4.4489,4.5095,4.5891,4.6712,4.7009,4.7009,4.7009,4.7009,4.6952,4.659,4.635,4.613,4.5778,4.5554,4.5397,4.5397,4.5397,4.5397,4.5397,4.5397,4.5397,4.5397,4.5397,4.5397,4.5397,4.5397,4.5397,4.5397,4.5238,4.5042,4.5022,4.4817,4.4671,4.4615,4.4615,4.4615,4.4615,4.4615,4.4615,4.4615,4.4615,4.4195,4.3247,4.3523,4.3737,4.3737,4.3891,4.3985,4.3985,4.3732,4.3598,4.3598,4.3878,4.4011,4.4011,4.4275,4.4821,4.5516,4.598,4.6609,0.0,2.3861,2.3914,2.4009,2.3968,2.3896,2.3881,2.3868,0.0,2.4908,2.5054,2.5059,2.5177,2.5082,2.506,2.5212,2.5932,2.7293,2.9745,3.1715,0.0,0.0,0.0,0.0,0.0,0.0,0.0,0.0,0.0,0.0,0.0,0.0,0.0,0.0,4.4685,4.4184,4.3986,4.3986,4.3986,4.3986,4.3986,4.4469,4.5279,0.0,0.0,0.0,0.0,0.0,0.0,4.3521,4.3547,4.3668,4.4346,4.5131,4.5963,4.6712,4.7009,4.7009,4.7009,4.7009,4.6963,4.6672,4.6253,4.5794,4.5768,4.5598,4.5397,4.5397,4.5397,4.5397,4.5397,4.5397,4.5397,4.5397,4.5397,4.5397,4.5397,4.5397,4.5397,4.5397,4.527,4.515,4.5002,4.4899,4.4748,4.4629,4.4615,4.4615,4.4615,4.4615,4.4615,4.4615,4.4615,4.4615,4.4615,4.4615,4.4615,4.4615,4.4284,4.4097,4.4097,4.3824,4.3679,4.3679,4.439,4.477,4.477,4.5532,4.6228,4.6908,4.6941,4.7338,2.1056,0.0,2.2068,2.2262,2.265,2.315,0.0,2.4333,2.4813,2.4993,2.506,2.5266,2.5825,2.5418,2.5625,2.7513,2.8536,2.9749,3.1568,0.0,0.0,0.0,0.0,0.0,0.0,0.0,0.0,0.0,0.0,0.0,0.0,0.0,0.0,0.0,4.4235,4.4062,4.3986,4.3986,4.3986,4.3986,4.3986,4.4469,0.0,0.0,0.0,0.0,0.0,0.0,0.0,4.38,4.4006,4.4346,4.4514,4.5452,4.6759,4.6938,4.7009,4.7009,4.7009,4.7009,4.6952,4.6578,4.6205,4.5895,4.5701,4.5541,4.5397,4.5397,4.5397,4.5397,4.5397,4.5397,4.5397,4.5397,4.5397,4.5397,4.5397,4.5397,4.5397,4.5397,4.527,4.515,4.5002,4.4899,4.4748,4.4629,4.4615,4.4615,4.4615,4.4615,4.4615,4.4615,4.4615,4.4615,4.4615,4.4615,4.4615,4.4615,4.4284,4.4097,4.4097,4.4323,4.4423,4.4423,4.5167,4.5516,4.5516,4.6278,4.6709,4.6908,4.7471,4.7835,2.0298,2.085,2.1506,2.1647,2.2189,2.2933,2.3772,2.4263,2.463,2.5008,2.4783,2.4742,2.5577,2.5351,2.5718,2.7842,2.9212,3.1113,0.0,0.0,0.0,0.0,0.0,0.0,0.0,0.0,0.0,0.0,0.0,0.0,0.0,0.0,0.0,0.0,0.0,4.3986,4.3986,4.3986,4.3986,4.3986,4.3986,4.4246,0.0,0.0,0.0,0.0,0.0,0.0,4.4436,4.4436,4.4735,4.5167,4.5167,4.5927,4.7009,4.7009,4.7009,4.7009,4.7009,4.6929,4.6766,4.6566,4.624,4.587,4.5739,4.5567,4.5397,4.5397,4.5397,4.5397,4.5397,4.5397,4.5397,4.5397,4.5673,4.5962,4.5962,4.6238,4.6479,4.6479,4.6391,4.6282,4.6062,4.595,4.5824,4.5645,4.5616,4.5616,4.5616,4.5616,4.5616,4.5616,4.5616,4.5616,4.5616,4.5616,4.5481,4.5142,4.5183,4.5175,4.5102,4.5245,4.5476,4.5682,4.6079,4.6477,4.6808,4.7206,4.7404,4.7404,4.7802,4.8001,2.0669,2.1348,2.1874,2.1734,2.2199,2.2925,2.371,2.3779,2.3883,2.4815,2.4364,2.4189,2.5335,2.5472,2.5973,2.7708,2.9464,0.0,0.0,0.0,0.0,0.0,0.0,0.0,0.0,0.0,0.0,0.0,0.0,0.0,0.0,0.0,0.0,0.0,0.0,0.0,4.4395,4.4135,4.3986,4.3986,4.3986,4.4061,4.4201,0.0,0.0,0.0,0.0,0.0,4.5166,4.5116,4.5393,4.582,4.582,4.6284,4.7009,4.7009,4.7009,4.7009,4.7009,4.6824,4.6625,4.659,4.6217,4.5806,4.579,4.5585,4.5397,4.5397,4.5397,4.5397,4.5397,4.5397,4.5397,4.5397,4.5927,4.641,4.641,4.6996,4.7548,4.7548,4.7617,4.7589,4.7258,4.7201,4.7101,4.6844,4.68,4.68,4.68,4.68,4.68,4.68,4.68,4.68,4.68,4.6887,4.6684,4.6075,4.6334,4.6473,4.6456,4.6337,4.6549,4.7088,4.7089,4.7371,4.8001,4.8001,4.8001,4.8001,4.8133,4.8166,2.2063,2.3087,2.3432,2.2052,2.2267,2.2821,2.2986,2.297,2.3151,2.3864,2.4024,2.4704,2.6744,2.7256,2.7908,2.9442,0.0,3.4741,0.0,0.0,0.0,0.0,0.0,0.0,0.0,0.0,0.0,0.0,0.0,0.0,0.0,0.0,0.0,0.0,0.0,0.0,0.0,4.4729,4.3986,4.3986,4.3986,4.4395,4.5109,4.518,4.5609,0.0,0.0,0.0,4.5498,4.5222,4.5382,4.582,4.582,4.6284,4.7009,4.7009,4.7009,4.7009,4.7009,4.6917,4.6719,4.6506,4.624,4.5942,4.5688,4.5528,4.5397,4.5397,4.5397,4.5397,4.5397,4.5397,4.5397,4.5397,4.55,4.5569,4.5569,4.6203,4.6755,4.6755,4.7272,4.7589,4.7258,4.7201,4.7101,4.6844,4.68,4.68,4.68,4.68,4.68,4.68,4.68,4.68,4.68,4.7361,4.7684,4.7582,4.6892,4.6708,4.7211,4.7089,4.7346,4.7996,4.79,4.7901,4.8001,4.8001,4.8001,4.8034,4.8663,4.8928,2.1231,2.2141,2.2787,2.2441,2.3973,2.5437,2.5009,2.5221,2.564,2.5953,2.5692,2.6056,2.8053,2.8413,2.9401,3.2336,0.0,0.0,0.0,0.0,0.0,0.0,0.0,0.0,0.0,0.0,0.0,0.0,0.0,0.0,0.0,0.0,0.0,0.0,0.0,0.0,4.6475,4.5732,4.5361,4.5361,4.5361,4.5547,4.5955,4.6401,4.681,0.0,0.0,4.738,4.7083,4.6782,4.67,4.6693,4.6505,4.6688,4.7009,4.7009,4.7009,4.7009,4.7009,4.6847,4.6672,4.6554,4.624,4.5879,4.5752,4.5546,4.55,4.5927,4.5742,4.5397,4.5397,4.5707,4.6065,4.6065,4.6638,4.7224,4.7224,4.7858,4.8459,4.8459,4.872,4.8842,4.8504,4.8446,4.8343,4.8015,4.8003,4.8003,4.8003,4.8003,4.8003,4.8003,4.8003,4.8003,4.8003,4.8308,4.8496,4.8496,4.802,4.7833,4.7997,4.7952,4.7958,4.8082,4.8082,4.8082,4.8001,4.8398,4.8597,4.863,4.9342,4.9673,2.0795,2.1425,2.217,2.3019,2.4837,2.6435,2.6404,2.6728,2.7268,2.8024,2.7694,2.7812,2.9699,3.0293,0.0,3.5448,0.0,0.0,0.0,0.0,0.0,0.0,0.0,0.0,0.0,0.0,0.0,0.0,0.0,0.0,0.0,0.0,0.0,0.0,0.0,0.0,4.7033,4.707,4.6884,4.6513,4.6513,4.6587,4.681,4.7404,4.7813,4.799,4.8552,4.866,4.8374,4.8042,4.7726,4.7486,4.7145,4.7009,4.7009,4.7009,4.7009,4.7009,4.7009,4.6824,4.6637,4.6578,4.6217,4.5889,4.5986,4.5862,4.5858,4.6652,4.641,4.5949,4.5949,4.641,4.6858,4.6858,4.772,4.8548,4.8548,4.9169,4.972,4.972,4.9858,4.9874,4.9579,4.9486,4.9381,4.9065,4.9018,4.9018,4.9018,4.9018,4.9018,4.9018,4.9018,4.9018,4.9018,4.9018,4.9018,4.9018,4.891,4.8785,4.8626,4.8578,4.842,4.8131,4.8329,4.8396,4.8266,4.8978,4.9359,4.9392,5.0121,5.0452,2.2278,2.2747,2.3018,2.3906,2.3132,2.2745,2.5064,2.5024,2.5352,2.8458,2.9118,2.9818,3.2103,3.3807,3.576,3.8477,0.0,0.0,0.0,0.0,0.0,0.0,0.0,0.0,0.0,0.0,0.0,0.0,0.0,0.0,0.0,0.0,0.0,0.0,0.0,0.0,4.8704,4.8742,4.7999,4.6513,4.6513,4.6884,4.7627,4.7664,4.811,4.8799,4.8559,4.8421,4.8355,4.7788,4.7504,4.7486,4.7145,4.7009,4.7009,4.7009,4.7009,4.7009,4.7009,4.6917,4.6731,4.6506,4.624,4.6095,4.6578,4.6635,4.6652,4.741,4.7582,4.7548,4.7548,4.7582,4.7617,4.7617,4.7686,4.7789,4.7789,4.8376,4.8893,4.8893,4.9479,4.9874,4.9579,4.9486,4.9381,4.9065,4.9018,4.9018,4.9018,4.9018,4.9018,4.9018,4.9018,4.9018,4.9018,4.9018,4.9018,4.9018,4.9003,4.8987,4.8938,4.8848,4.8691,4.8468,4.8975,4.9144,4.9011,4.9739,5.0104,5.0137,5.09,5.1231,2.111,2.2481,2.3924,2.4721,2.5268,2.5858,2.6822,2.8427,3.0181,3.2011,3.2375,3.2687,3.3554,3.592,3.8013,0.0,0.0,0.0,0.0,0.0,0.0,0.0,0.0,0.0,0.0,0.0,0.0,0.0,0.0,0.0,0.0,0.0,0.0,0.0,0.0,0.0,0.0,4.889,4.8593,4.7999,4.7999,4.8147,4.8444,4.8444,4.863,4.8881,4.8767,4.8723,4.8678,4.8072,4.7809,4.7757,4.7198,4.7009,4.7009,4.7009,4.7009,4.7009,4.7009,4.6975,4.6965,4.7168,4.7042,4.692,4.7461,4.7449,4.7445,4.8169,4.8376,4.8272,4.7824,4.8031,4.8376,4.8376,4.8755,4.9134,4.9134,4.9341,4.9548,4.9548,4.9789,4.9938,4.9664,4.9545,4.9396,4.9153,4.9046,4.9018,4.9018,4.9018,4.9018,4.9018,4.9018,4.9018,4.9018,4.9424,4.9661,4.9661,4.9661,4.9648,4.9571,5.0008,5.01,4.9692,4.9992,5.0043,4.9773,5.0518,5.09,5.09,5.1629,5.1994,2.0707,2.2236,2.4067,2.5129,2.6708,2.8251,2.9329,3.1364,3.34,3.4788,3.5293,3.5489,3.5489,3.7315,0.0,0.0,0.0,0.0,0.0,0.0,0.0,0.0,0.0,0.0,0.0,0.0,0.0,0.0,0.0,0.0,0.0,0.0,0.0,0.0,0.0,0.0,0.0,4.889,4.889,4.889,4.889,4.889,4.889,4.889,4.889,4.889,4.889,4.889,4.8847,4.8326,4.8022,4.7798,4.7331,4.71,4.7009,4.7009,4.7009,4.7009,4.7009,4.7094,4.7263,4.7497,4.7578,4.7648,4.8159,4.8183,4.8203,4.8962,4.9169,4.9065,4.8548,4.8789,4.9169,4.9169,4.9582,5.0011,5.0011,5.0011,5.0011,5.0011,5.0011,4.9952,4.9723,4.9619,4.9471,4.9245,4.9107,4.9031,4.9018,4.9187,4.9458,4.9661,4.9679,4.9679,4.9679,5.0168,5.0439,5.0439,5.0676,5.0662,5.0331,5.0866,5.1006,5.061,5.0944,5.0961,5.062,5.1334,5.1682,5.1662,5.2159,5.2391,2.1594,2.2256,2.3335,2.5022,2.6687,2.8851,3.2235,3.3029,3.3747,3.6293,3.7537,3.8125,3.8086,3.8061,0.0,0.0,0.0,0.0,0.0,0.0,0.0,0.0,0.0,0.0,0.0,0.0,0.0,0.0,0.0,0.0,0.0,0.0,0.0,0.0,0.0,0.0,0.0,4.889,4.889,4.889,4.889,4.889,4.889,4.889,4.889,4.889,4.889,4.889,4.8864,4.8532,4.8035,4.7482,4.7482,4.7312,4.7009,4.7009,4.7009,4.7009,4.7009,4.7334,4.7662,4.7437,4.7683,4.818,4.8667,4.881,4.8996,4.9789,5.0011,5.0011,5.0011,5.0011,5.0011,5.0011,5.0011,5.0011,5.0011,5.0011,5.0011,5.0011,5.0011,4.9918,4.9737,4.9708,4.959,4.926,4.9199,4.9153,4.9034,4.9661,5.0371,5.1133,5.1201,5.1201,5.1201,5.1201,5.1201,5.1201,5.1894,5.1979,5.1235,5.1235,5.117,5.1007,5.1731,5.1916,5.1507,5.224,5.2551,5.2391,5.2391,5.2391,2.1532,2.3492,2.5829,2.6884,2.9805,3.2813,3.4477,3.5217,3.6153,3.8145,3.9259,3.9511,3.8318,3.9031,0.0,0.0,0.0,0.0,0.0,0.0,0.0,0.0,0.0,0.0,0.0,0.0,0.0,0.0,0.0,0.0,0.0,0.0,0.0,0.0,0.0,0.0,0.0,0.0,4.889,4.889,4.889,4.889,4.889,4.889,4.889,4.889,4.889,4.889,4.8864,4.8532,4.8035,4.7482,4.7482,4.7635,4.7841,4.7841,4.8187,4.8627,4.8627,4.8663,4.8836,4.9655,4.9508,4.9213,5.0255,5.0132,4.9686,4.9927,5.0011,5.0011,5.0011,5.0011,5.0011,5.0011,5.0011,5.0011,5.0011,5.0011,5.0011,5.0011,5.0011,4.9982,4.9918,4.9728,4.9515,4.9426,4.9199,4.9234,4.971,5.0405,5.0964,5.1167,5.1201,5.1201,5.1201,5.1674,5.1961,5.1961,5.2706,5.2807,5.2029,5.2536,5.2724,5.2556,5.2758,5.2756,5.2482,5.2559,5.2571,5.2518,5.2445,5.2391,2.2853,2.508,2.7568,2.9093,3.1904,3.4797,3.6694,3.7433,3.8176,3.9546,3.9942,3.9883,3.9257,3.9932,0.0,0.0,0.0,0.0,0.0,0.0,0.0,0.0,0.0,0.0,0.0,0.0,0.0,0.0,0.0,0.0,0.0,0.0,0.0,0.0,0.0,0.0,0.0,0.0,0.0,4.889,4.889,4.889,4.889,4.889,4.889,4.889,4.889,4.889,4.8873,4.8696,4.8231,4.7731,4.801,4.8163,4.8234,4.8544,4.8925,4.9293,4.9293,4.9398,4.9626,5.0264,5.0161,4.9931,5.0587,5.0428,5.0011,5.0011,5.0011,5.0011,5.0011,5.0011,5.0011,5.0011,5.0011,5.0011,5.0011,5.0011,5.0011,5.0011,5.0011,5.0011,5.0011,5.0012,4.999,4.993,4.9727,4.983,5.0473,5.093,5.1438,5.2046,5.2114,5.2114,5.2114,5.2536,5.2773,5.2773,5.3247,5.3281,5.2807,5.3247,5.3433,5.3331,5.3331,5.3213,5.3024,5.2816,5.2676,5.2589,5.2463,5.2557,2.4831,2.6614,2.8625,3.1172,3.3244,3.5507,3.8669,3.9482,3.9714,4.0444,3.9988,3.9673,4.0552,0.0,0.0,0.0,0.0,0.0,0.0,0.0,0.0,0.0,0.0,0.0,0.0,0.0,0.0,0.0,0.0,0.0,0.0,0.0,0.0,0.0,0.0,0.0,0.0,0.0,0.0,0.0,4.889,4.889,4.889,4.889,4.889,4.889,4.8993,4.8964,4.8927,4.8993,4.8661,4.8174,4.8857,4.8808,4.8484,4.9162,4.9448,4.9519,4.9519,4.9799,5.0159,4.9969,5.013,5.0348,5.0181,5.0045,5.0011,5.0011,5.0011,5.0011,5.0011,5.0011,5.0011,5.0011,5.0011,5.0011,5.0011,5.0011,5.0011,5.0011,5.0011,5.0011,5.008,5.0499,5.078,5.0632,5.0629,5.0761,5.1167,5.1336,5.1945,5.3348,5.3518,5.3518,5.3518,5.3518,5.3518,5.3518,5.3518,5.3518,5.3518,5.3518,5.3518,5.3518,5.3518,5.3399,5.3213,5.3007,5.2832,5.2706,5.258,5.2837,2.3904,2.6135,2.8598,3.1144,3.4594,3.7727,3.9091,3.996,4.0514,4.0636,4.0545,4.0468,4.0674,0.0,0.0,0.0,0.0,0.0,0.0,0.0,0.0,0.0,0.0,0.0,0.0,0.0,0.0,0.0,0.0,0.0,0.0,0.0,0.0,0.0,0.0,0.0,4.889,4.889,4.889,0.0,4.889,4.889,4.889,4.889,4.889,4.8927,4.9559,4.9485,4.8956,4.9587,4.9463,4.8893,4.9039,4.9484,5.0031,5.0161,5.0637,5.1173,5.1173,5.1063,5.0973,5.1484,5.1011,5.0353,5.087,5.0561,5.0011,5.0011,5.0011,5.0011,5.0011,5.0011,5.0011,5.0011,5.0011,5.0011,5.0011,5.0011,5.0011,5.0011,5.0011,5.0168,5.0755,5.0877,5.0834,5.076,5.1276,5.1555,5.1235,5.2249,5.3145,5.345,5.3518,5.3518,5.3518,5.3518,5.3518,5.3518,5.3518,5.3518,5.3518,5.3518,5.3518,5.3518,5.3518,5.3501,5.3416,5.3092,5.317,5.3685,5.3346,5.3548,2.4656,2.723,3.0108,3.3903,3.6543,3.8519,3.9782,4.0436,4.0742,4.0723,4.0668,4.0657,0.0,0.0,0.0,0.0,0.0,0.0,0.0,0.0,0.0,0.0,0.0,0.0,0.0,0.0,0.0,0.0,0.0,0.0,0.0,0.0,0.0,0.0,0.0,0.0,4.8333,4.8704,4.889,4.889,4.889,4.889,4.889,4.889,4.889,4.8919,4.9327,4.9299,4.8964,4.9773,4.9806,4.9435,5.0039,5.0452,5.0797,5.0997,5.1351,5.1695,5.1569,5.1376,5.1211,5.1329,5.0886,5.0326,5.0584,5.0345,5.0011,5.0011,5.0011,5.0011,5.0011,5.0011,5.0011,5.0011,5.0011,5.0011,5.0011,5.0011,5.01,5.0444,5.0513,5.0755,5.1513,5.1672,5.1819,5.2069,5.245,5.2604,5.2317,5.2993,5.3518,5.3518,5.3518,5.3518,5.3518,5.3518,5.3518,5.3518,5.3518,5.3518,5.3518,5.3518,5.3518,5.3518,5.3518,5.3518,5.3518,5.3532,5.3762,5.4148,5.4107,5.4457,2.5142,2.8207,3.1656,3.6546,3.7983,3.8602,4.0194,4.063,4.0716,4.0671,4.0644,0.0,0.0,0.0,0.0,0.0,0.0,0.0,0.0,0.0,0.0,0.0,0.0,0.0,0.0,0.0,0.0,0.0,0.0,0.0,0.0,0.0,0.0,0.0,0.0,4.6735,4.7701,4.837,4.8779,4.889,4.889,4.889,4.889,4.889,4.889,4.8927,4.9039,4.9039,4.8964,4.9921,5.0158,5.0002,5.1078,5.1397,5.1331,5.1619,5.1721,5.1647,5.1428,5.1311,5.118,5.0606,5.0397,5.0299,5.0063,5.0011,5.0011,5.0011,5.0011,5.0011,5.0011,5.0011,5.0011,5.0011,5.0114,5.0149,5.0045,5.0114,5.0375,5.0996,5.1306,5.1686,5.2237,5.2638,5.3072,5.3582,5.3551,5.3518,5.3518,5.3518,5.3518,5.3518,5.3518,5.3518,5.3518,5.3518,5.3518,5.3518,5.3754,5.3856,5.3754,5.3822,5.389,5.389,5.3754,5.3687,5.3687,5.4241,5.4559,5.4676,5.4922,5.5425,2.2591,2.683,3.1385,3.5121,3.7135,3.8447,3.9462,4.0204,4.0671,0.0,0.0,0.0,0.0,0.0,0.0,0.0,0.0,0.0,0.0,0.0,0.0,0.0,0.0,0.0,0.0,0.0,0.0,0.0,0.0,0.0,0.0,0.0,4.4395,4.5257,4.5406,0.0,4.7701,4.7813,4.8221,4.889,4.889,4.889,4.889,4.889,4.889,4.8927,4.9624,4.9559,4.9039,5.0599,5.1009,5.0708,5.1297,5.1724,5.2005,5.1786,5.1721,5.1695,5.1531,5.1311,5.1061,5.0702,5.0425,5.0206,5.0054,5.0011,5.0011,5.0011,5.0011,5.0011,5.0011,5.0011,5.0011,5.0011,5.0479,5.0789,5.0134,5.0479,5.0996,5.1065,5.2183,5.3046,5.2927,5.3513,5.407,5.4335,5.3867,5.3518,5.3518,5.3518,5.3518,5.3518,5.3518,5.3518,5.3518,5.3518,5.3518,5.3518,5.4684,5.5192,5.4735,5.5158,5.5395,5.5395,5.4769,5.4431,5.4431,5.5001,5.5568,5.619,5.6072,5.6415,2.5049,2.8394,3.1435,3.5344,3.724,3.836,3.9251,4.0068,4.0651,4.0598,0.0,0.0,0.0,0.0,0.0,0.0,0.0,0.0,0.0,0.0,0.0,0.0,0.0,0.0,0.0,0.0,0.0,0.0,0.0,0.0,0.0,4.3986,4.4172,4.4544,4.5034,0.0,4.7033,4.7478,4.811,4.889,4.889,4.889,4.889,4.889,4.889,4.8919,4.9262,4.9485,4.967,5.0896,5.1556,5.1821,5.2113,5.2367,5.2465,5.1908,5.1721,5.1622,5.125,5.1026,5.0851,5.0397,5.0192,5.0063,5.0025,5.0011,5.008,5.0479,5.0617,5.072,5.1134,5.1237,5.1168,5.0907,5.1272,5.172,5.1701,5.1686,5.1858,5.2306,5.3287,5.393,5.3701,5.406,5.4274,5.3982,5.3685,5.3518,5.3518,5.3518,5.3518,5.3518,5.3518,5.3518,5.3518,5.3518,5.3518,5.3518,5.4887,5.5699,5.575,5.5699,5.5699,5.5699,5.5361,5.5209,5.5209,5.5865,5.6336,5.6655,5.6878,5.7391,2.601,2.8381,3.0207,3.4456,3.635,3.7469,3.8781,3.9673,4.0337,0.0,0.0,0.0,0.0,0.0,0.0,0.0,0.0,0.0,0.0,0.0,0.0,0.0,0.0,0.0,0.0,0.0,0.0,0.0,0.0,0.0,4.3986,4.3986,4.3986,4.3986,4.4618,4.5361,4.6178,4.7181,4.811,4.889,4.889,4.889,4.889,4.889,4.889,4.8927,4.9113,4.955,5.0182,5.1268,5.2048,5.2614,5.2736,5.2794,5.2705,5.1969,5.167,5.1508,5.1052,5.0838,5.0653,5.0206,5.0172,5.033,5.0287,5.0424,5.0651,5.1203,5.1375,5.1513,5.2065,5.2203,5.2099,5.1755,5.2099,5.2617,5.2996,5.2789,5.272,5.3529,5.4115,5.4431,5.4306,5.4418,5.4255,5.3584,5.3518,5.3518,5.3518,5.3518,5.3518,5.3518,5.3518,5.3518,5.3518,5.3518,5.3822,5.4566,5.5631,5.6427,5.6747,5.6461,5.6258,5.6258,5.6258,5.619,5.5969,5.6731,5.707,5.7103,5.7499,5.7965,2.2384,2.4356,2.6677,3.0981,3.3302,3.5154,3.7623,0.0,0.0,0.0,0.0,0.0,0.0,0.0,0.0,0.0,0.0,0.0,0.0,0.0,0.0,0.0,0.0,0.0,0.0,0.0,0.0,0.0,0.0,0.0,4.3986,4.3986,4.3986,4.3986,4.4023,4.4469,4.5369,4.6921,4.811,4.889,4.889,4.889,4.889,4.889,4.889,4.8927,4.9699,5.007,5.0219,5.1862,5.2568,5.2614,5.2736,5.2794,5.2705,5.1969,5.1556,5.1298,5.1127,5.0865,5.0557,5.0271,5.0657,5.1202,5.109,5.1548,5.2099,5.2134,5.2134,5.2168,5.2203,5.2203,5.2203,5.2168,5.2754,5.3356,5.3391,5.3356,5.3563,5.4322,5.4478,5.4513,5.4513,5.4478,5.4255,5.3584,5.3518,5.3518,5.3518,5.3518,5.3518,5.3518,5.3518,5.3518,5.3518,5.3518,5.4702,5.7494,5.773,5.7798,5.7832,5.7798,5.7798,5.7798,5.7798,5.7442,5.6731,5.7476,5.7832,5.7832,5.7881,5.7915,2.2094,2.4057,2.6099,2.9272,3.1737,3.3779,3.5245,3.7504,0.0,0.0,0.0,0.0,0.0,0.0,0.0,0.0,0.0,0.0,0.0,0.0,0.0,0.0,0.0,0.0,0.0,0.0,0.0,0.0,0.0,0.0,4.3986,4.3986,4.3986,4.3986,4.3986,4.4655,4.6075,4.7144,4.811,4.889,4.889,4.889,4.889,4.889,4.889,4.8964,5.0339,5.0933,5.1008,5.2159,5.2902,5.3319,5.2956,5.2794,5.2705,5.1969,5.1594,5.146,5.1732,5.1603,5.1382,5.1605,5.1776,5.1864,5.1804,5.1996,5.2306,5.2823,5.2961,5.308,5.3548,5.3685,5.3685,5.3685,5.3892,5.4099,5.4099,5.4099,5.4168,5.446,5.4478,5.4478,5.4478,5.4478,5.4399,5.4193,5.4161,5.3998,5.3568,5.3518,5.3518,5.3518,5.3518,5.4262,5.6156,5.6325,5.6765,5.7832,5.79,5.79,5.79,5.79,5.79,5.79,5.79,5.7764,5.7509,5.7764,5.79,5.79,5.79,5.8152,2.1427,2.3195,2.5195,2.8316,2.9932,3.1545,3.4391,0.0,0.0,0.0,0.0,0.0,0.0,0.0,0.0,0.0,0.0,0.0,0.0,0.0,0.0,0.0,0.0,0.0,0.0,0.0,0.0,0.0,0.0,0.0,4.3986,4.3986,4.3986,4.3986,4.3986,4.4804,4.6475,4.7033,4.785,4.889,4.889,4.889,4.889,4.889,4.889,4.9002,5.0673,5.1416,5.1491,5.2568,5.3311,5.3727,5.3066,5.2794,5.2705,5.1969,5.1737,5.1815,5.2067,5.213,5.2148,5.2349,5.2466,5.2582,5.2582,5.2789,5.3065,5.3616,5.377,5.3873,5.4375,5.4478,5.4478,5.4478,5.4478,5.4478,5.4478,5.4478,5.4478,5.4478,5.4478,5.4478,5.4478,5.4478,5.4478,5.4478,5.4287,5.4014,5.3568,5.4363,5.4972,5.4972,5.4972,5.575,5.7712,5.79,5.79,5.79,5.79,5.79,5.79,5.79,5.79,5.79,5.79,5.79,5.79,5.79,5.79,5.79,5.79,5.8115,0.0,0.0,0.0,2.7895,0.0,0.0,3.4888,0.0,0.0,0.0,0.0,0.0,0.0,0.0,0.0,0.0,0.0,0.0,0.0,0.0,0.0,0.0,0.0,0.0,0.0,0.0,0.0,0.0,0.0,4.3986,4.3986,4.3986,4.3986,4.3986,4.3986,4.4804,4.6438,4.6475,4.7293,4.8853,4.889,4.889,4.889,4.889,4.889,4.9002,5.0673,5.1416,5.1528,5.3162,5.3784,5.3727,5.3066,5.2794,5.2705,5.2005,5.2006,5.2356,5.2163,5.2361,5.2685,5.2378,5.2804,5.3425,5.3425,5.3942,5.4478,5.4478,5.4478,5.4529,5.4529,5.4513,5.4547,5.4547,5.4547,5.4547,5.4547,5.4513,5.4529,5.4513,5.4513,5.4478,5.4478,5.4478,5.4478,5.4478,5.4017,5.3636,5.3619,5.6122,5.79,5.79,5.79,5.79,5.79,5.79,5.79,5.79,5.79,5.79,5.79,5.79,5.79,5.79,5.79,5.79,5.79,5.79,5.79,5.79,5.79,5.779,2.0387,0.0,0.0,0.0,0.0,0.0,0.0,0.0,0.0,0.0,0.0,0.0,0.0,0.0,0.0,0.0,0.0,0.0,0.0,0.0,0.0,0.0,0.0,0.0,0.0,0.0,0.0,0.0,0.0,4.3986,4.3986,4.3986,4.3986,4.3986,4.3986,4.4544,4.5621,4.6223,4.7033,4.8036,4.863,4.889,4.889,4.889,4.889,4.9002,5.0673,5.1416,5.1528,5.3162,5.3784,5.3727,5.3066,5.2794,5.2778,5.2615,5.2426,5.2419,5.3443,5.36,5.342,5.3917,5.414,5.4218,5.4218,5.4356,5.4478,5.4478,5.4478,5.4616,5.5168,5.5306,5.5444,5.6046,5.5874,5.5582,5.5582,5.4996,5.4651,5.5203,5.4858,5.4478,5.4478,5.4478,5.4478,5.4478,5.6192,5.7295,5.6735,5.7392,5.79,5.79,5.79,5.79,5.79,5.79,5.79,5.79,5.79,5.79,5.79,5.79,5.79,5.79,5.79,5.79,5.79,5.79,5.79,5.79,5.79,5.8168,2.1581,0.0,0.0,0.0,0.0,0.0,0.0,2.9467,0.0,0.0,0.0,0.0,0.0,0.0,0.0,0.0,0.0,0.0,0.0,0.0,0.0,0.0,0.0,0.0,0.0,0.0,0.0,0.0,4.3801,4.3986,4.3986,4.3986,4.3986,4.3986,4.3986,4.4432,4.5295,4.6104,4.6884,4.7701,4.8519,4.889,4.889,4.889,4.889,4.9002,5.0673,5.1416,5.1528,5.3162,5.3784,5.3737,5.3225,5.2926,5.2826,5.288,5.2833,5.2913,5.3872,5.4181,5.4233,5.4579,5.4608,5.4478,5.4478,5.4478,5.4478,5.4478,5.472,5.5134,5.5892,5.6099,5.6184,5.6426,5.6219,5.6065,5.6288,5.5874,5.5598,5.6012,5.6237,5.5961,5.472,5.5547,5.6375,5.6375,5.7858,5.8736,5.7991,5.79,5.79,5.79,5.79,5.79,5.79,5.79,5.79,5.79,5.79,5.79,5.79,5.79,5.79,5.79,5.79,5.79,5.79,5.79,5.8051,5.8355,5.8355,5.8761,2.3432,2.3855,0.0,0.0,0.0,0.0,2.9621,2.9236,0.0,0.0,0.0,0.0,0.0,0.0,0.0,0.0,0.0,0.0,0.0,0.0,0.0,0.0,0.0,0.0,0.0,0.0,0.0,4.282,4.354,4.3986,4.3986,4.3986,4.3986,4.3986,4.3986,4.4358,4.5146,4.603,4.6847,4.759,4.8481,4.889,4.889,4.889,4.8956,4.9113,5.0711,5.1454,5.1639,5.3162,5.3784,5.3756,5.344,5.3135,5.2935,5.3013,5.3317,5.371,5.3882,5.437,5.49,5.4589,5.4478,5.4478,5.4478,5.4478,5.4513,5.4598,5.5168,5.5927,5.6736,5.6909,5.6805,5.6409,5.634,5.646,5.6943,5.7047,5.7047,5.7047,5.8116,5.8133,5.5444,5.7202,5.8995,5.8995,5.8995,5.8736,5.7991,5.79,5.79,5.79,5.79,5.79,5.79,5.79,5.79,5.79,5.79,5.79,5.79,5.8001,5.8017,5.8017,5.8103,5.8137,5.8137,5.8051,5.8355,5.9013,5.9081,5.952,2.589,2.6508,2.6892,0.0,0.0,0.0,0.0,2.6277,0.0,0.0,0.0,0.0,0.0,0.0,0.0,0.0,0.0,0.0,0.0,0.0,0.0,0.0,0.0,0.0,0.0,0.0,4.2158,4.2768,4.354,4.3986,4.3986,4.3986,4.3986,4.3986,4.3986,4.4098,4.4246,4.5732,4.6587,4.6735,4.8221,4.889,4.889,4.889,4.9253,4.9921,5.0933,5.1788,5.2457,5.3413,5.3784,5.3756,5.344,5.3454,5.3688,5.3804,5.398,5.4202,5.464,5.4668,5.4573,5.451,5.4478,5.4478,5.4478,5.4478,5.4616,5.5203,5.5977,5.6736,5.7495,5.7529,5.7547,5.8237,5.8409,5.8444,5.8564,5.8582,5.8582,5.8582,5.8788,5.8788,5.8202,5.8616,5.8995,5.8995,5.8995,5.8736,5.7991,5.79,5.79,5.79,5.79,5.79,5.79,5.79,5.79,5.79,5.79,5.79,5.79,5.8457,5.8795,5.8795,5.937,5.9674,5.9674,5.9066,5.8844,5.9013,5.9607,6.0317,2.7582,2.7585,2.7777,2.7313,0.0,0.0,0.0,0.0,0.0,0.0,0.0,0.0,0.0,0.0,0.0,0.0,0.0,0.0,0.0,0.0,0.0,0.0,0.0,0.0,0.0,0.0,4.1619,4.2738,4.354,4.3986,4.3986,4.3986,4.3986,4.3986,4.3986,4.3986,4.3986,4.5658,4.6513,4.6513,4.8147,4.889,4.889,4.889,4.9327,5.0144,5.1008,5.1862,5.2679,5.345,5.3784,5.3775,5.361,5.3676,5.3907,5.4082,5.4207,5.4346,5.4637,5.4636,5.4478,5.4478,5.4478,5.4547,5.4927,5.5306,5.5805,5.6547,5.7047,5.7529,5.8254,5.834,5.8375,5.8892,5.8995,5.8995,5.8995,5.8995,5.8995,5.8995,5.8995,5.8995,5.8995,5.8995,5.8995,5.8995,5.8995,5.8875,5.8509,5.8456,5.8314,5.7936,5.79,5.79,5.79,5.79,5.79,5.79,5.8254,5.8457,5.8457,5.9167,5.9573,5.9573,5.9674,5.9877,6.0114,5.9994,6.0028,6.0182,6.052,6.1095,0.0,0.0,0.0,0.0,0.0,2.7233,0.0,0.0,0.0,2.9621,0.0,0.0,0.0,0.0,0.0,0.0,0.0,0.0,0.0,0.0,0.0,0.0,0.0,0.0,0.0,0.0,4.0602,4.2225,4.2797,4.3243,4.3726,4.3912,4.3986,4.3986,4.3986,4.4098,4.4246,4.5732,4.6587,4.6735,4.8221,4.889,4.889,4.889,4.9447,5.0404,5.1082,5.1936,5.2865,5.3524,5.3775,5.3793,5.3793,5.3891,5.4056,5.4131,5.43,5.4454,5.4491,5.4478,5.4478,5.4478,5.4598,5.4858,5.5582,5.6375,5.715,5.7736,5.7995,5.8254,5.8857,5.8995,5.8995,5.8995,5.8995,5.8995,5.8995,5.8995,5.8995,5.8995,5.8995,5.8995,5.8995,5.8995,5.8995,5.8995,5.8995,5.8995,5.8995,5.8875,5.8562,5.7954,5.79,5.8035,5.8287,5.8321,5.8321,5.8321,5.8896,5.9216,5.9216,5.9945,6.0385,6.0554,6.0182,6.0148,6.0554,6.0994,6.1231,6.1298,6.1467,6.1839,0.0,0.0,0.0,0.0,3.1737,0.0,0.0,0.0,2.7085,2.532,0.0,0.0,0.0,0.0,0.0,0.0,0.0,0.0,0.0,0.0,0.0,0.0,0.0,0.0,0.0,0.0,0.0,4.0508,4.0048,4.0606,4.2835,4.3615,4.3986,4.3986,4.3986,4.4358,4.5146,4.603,4.6847,4.7553,4.8481,4.889,4.889,4.889,4.9782,5.1268,5.1342,5.2271,5.3673,5.3747,5.3764,5.3723,5.3723,5.4032,5.4496,5.4158,5.44,5.4903,5.4586,5.4478,5.4478,5.4478,5.4927,5.5616,5.6426,5.7185,5.7805,5.7874,5.8375,5.8892,5.8961,5.8995,5.8995,5.8995,5.8995,5.8995,5.8995,5.8995,5.8995,5.8995,5.8995,5.8995,5.8995,5.8995,5.8995,5.8995,5.8995,5.8995,5.8995,5.8438,5.7991,5.79,5.79,5.8441,5.9742,5.9844,5.9844,5.9844,5.9945,5.9979,5.9979,6.0757,6.1467,6.211,6.2096,6.2096,6.2164,6.2178,6.1907,6.1332,6.1975,6.2313,0.0,0.0,0.0,0.0,0.0,0.0,0.0,0.0,2.628,0.0,0.0,0.0,0.0,0.0,0.0,0.0,0.0,0.0,0.0,0.0,0.0,0.0,0.0,0.0,0.0,0.0,0.0,0.0,0.0,3.9491,4.1988,4.2872,4.3318,4.3318,4.3763,4.4432,4.5295,4.6104,4.6884,4.7701,4.8519,4.889,4.889,4.889,4.9819,5.1416,5.1416,5.2271,5.3735,5.3735,5.3676,5.3615,5.4025,5.4546,5.5084,5.5171,5.5352,5.5481,5.5154,5.4788,5.4547,5.4996,5.5651,5.646,5.7219,5.7943,5.8547,5.8547,5.8444,5.8357,5.8357,5.8254,5.8271,5.8857,5.8995,5.8995,5.8995,5.8995,5.8995,5.8995,5.8995,5.8995,5.8995,5.8995,5.8995,5.8995,5.8995,5.8995,5.8995,5.8736,5.8544,5.8544,5.8153,5.817,5.8761,6.0419,6.1197,6.0603,6.0723,6.0994,6.14,6.1738,6.2076,6.2381,6.24,6.24,6.24,6.24,6.2265,6.1941,6.2265,6.24,3.5549,0.0,0.0,0.0,0.0,0.0,0.0,0.0,0.0,0.0,0.0,0.0,0.0,0.0,0.0,0.0,0.0,0.0,0.0,0.0,0.0,0.0,0.0,0.0,0.0,0.0,0.0,0.0,0.0,0.0,4.1096,4.2248,4.2797,4.2797,4.3578,4.4506,4.5621,4.6223,4.6995,4.8036,4.863,4.889,4.8927,4.915,5.0042,5.1416,5.1639,5.2465,5.3704,5.3704,5.3598,5.3541,5.4491,5.5104,5.5494,5.5897,5.593,5.5722,5.549,5.5157,5.4927,5.5685,5.646,5.7253,5.7978,5.8409,5.8685,5.8685,5.8168,5.7598,5.7598,5.7582,5.7771,5.8409,5.903,5.9461,5.9599,5.9616,5.953,5.9064,5.934,5.9754,6.0185,5.9547,5.8995,5.8995,5.9719,6.0254,6.0254,6.0254,6.0167,5.9937,5.9431,5.9152,5.9152,6.1148,6.2076,6.1366,6.1501,6.1839,6.24,6.24,6.24,6.24,6.24,6.24,6.24,6.24,6.24,6.24,6.24,6.24,0.0,0.0,0.0,0.0,0.0,0.0,0.0,0.0,2.9452,0.0,0.0,0.0,0.0,0.0,0.0,0.0,0.0,0.0,0.0,0.0,0.0,0.0,0.0,0.0,0.0,0.0,0.0,0.0,0.0,0.0,4.0167,4.195,4.2797,4.2797,4.3578,4.4804,4.6438,4.6475,4.7293,4.8853,4.889,4.889,4.8927,4.9782,5.0599,5.1454,5.2234,5.2985,5.3704,5.3704,5.3548,5.3465,5.5112,5.5673,5.5629,5.5825,5.5696,5.5417,5.5417,5.5471,5.5685,5.6495,5.7253,5.7995,5.872,5.8478,5.7943,5.7943,5.7391,5.684,5.684,5.7357,5.7823,5.7582,5.9081,6.0668,6.1116,6.122,6.0771,5.9271,6.022,6.1703,6.3186,6.0978,5.8995,5.8995,6.153,6.3427,6.3427,6.3427,6.3131,6.2382,6.2265,6.2265,6.2265,6.2347,6.24,6.2347,6.2367,6.24,6.24,6.24,6.24,6.24,6.24,6.24,6.24,6.24,6.24,6.24,6.24,6.24,0.0,0.0,4.0392,3.6427,0.0,0.0,0.0,0.0,0.0,0.0,0.0,0.0,0.0,0.0,0.0,0.0,0.0,0.0,0.0,0.0,0.0,0.0,0.0,0.0,0.0,0.0,0.0,0.0,0.0,0.0,0.0,4.1096,4.2017,4.2017,4.3318,4.4804,4.6475,4.6513,4.7293,4.889,4.889,4.889,4.8927,4.9782,5.0599,5.1454,5.2234,5.3022,5.3704,5.3598,5.3783,5.4191,5.5257,5.5974,5.6469,5.7078,5.676,5.5943,5.5652,5.5567,5.5823,5.7116,5.7702,5.7943,5.8219,5.8116,5.7805,5.7322,5.6978,5.6909,5.7391,5.7702,5.815,5.9081,5.9806,6.0496,6.1151,6.1047,6.0668,6.0151,5.9909,5.9944,6.0461,5.9685,5.8995,5.8995,5.9909,6.1289,6.3324,6.36,6.3507,6.3227,6.3208,6.2981,6.244,6.24,6.24,6.24,6.24,6.24,6.24,6.24,6.24,6.24,6.24,6.24,6.24,6.24,6.24,6.2415,6.2888,6.2854,4.0439,4.1354,0.0,0.0,3.6584,0.0,0.0,0.0,0.0,0.0,0.0,0.0,0.0,0.0,0.0,0.0,0.0,0.0,0.0,0.0,0.0,0.0,0.0,0.0,0.0,0.0,3.0251,3.4705,3.3224,0.0,0.0,0.0,4.1616,4.1616,4.3169,4.4804,4.6475,4.6513,4.7293,4.889,4.889,4.9039,4.9327,5.0182,5.1008,5.1862,5.2679,5.3262,5.3608,5.3548,5.3879,5.4543,5.5313,5.6088,5.6884,5.7703,5.729,5.6231,5.5746,5.5789,5.6237,5.7495,5.8081,5.8237,5.7978,5.7909,5.7771,5.7012,5.6978,5.7288,5.7771,5.8323,5.8978,5.9944,6.0599,6.1082,6.1254,6.1289,6.1134,6.0565,5.9909,5.9357,5.903,5.9323,5.9461,5.9064,5.9461,6.053,6.253,6.3144,6.3396,6.3396,6.3265,6.2962,6.244,6.24,6.24,6.24,6.2739,6.2888,6.2787,6.2787,6.2787,6.2787,6.2516,6.24,6.24,6.24,6.24,6.2434,6.3159,6.326]}]]